[[{"header":{"parameterUnit":"m.s-1","parameterCategory":1,"la1":30.6,"la2":29.2853,"lo1":-89.7004,"lo2":-87.6739,"dy":0.0162,"dx":0.0183,"nx":112,"ny":82,"refTime":"2026-05-16T00:00:00:Z","depth":0,"parameterNumber":2,"parameterNumberName":"U-component_of_WINDS"},"data":[0.0,0.0,0.0,0.0,0.0,0.0,0.0,0.0,0.0,0.0,0.0,0.0,0.0,0.0,0.0,0.0,0.0,0.0,0.0,0.0,0.0,0.0,0.0,0.0,0.0,0.0,0.0,0.0,0.0,0.0,0.0,0.0,0.0,0.0,0.0,0.0,0.0,0.0,0.0,0.0,0.0,0.0,0.0,0.0,0.0,0.0,0.0,0.0,0.0,0.0,0.0,0.0,0.0,0.0,0.0,0.0,0.0,0.0,0.0,0.0,0.0,0.0,0.0,0.0,0.0,0.0,0.0,0.0,0.0,0.0,0.0,0.0,0.0,0.0,0.0,0.0,0.0,0.0,0.0,0.0,0.0,0.0,0.0,0.0,0.0,0.0,0.0,0.0,0.0,0.0,0.0,-2.5076,-2.83,-3.0638,-3.1219,-2.9458,-2.658,-2.2499,0.0,0.0,0.0,0.0,0.0,0.0,0.0,0.0,0.0,0.0,0.0,0.0,0.0,0.0,0.0,0.0,0.0,0.0,0.0,0.0,0.0,0.0,0.0,0.0,0.0,0.0,0.0,0.0,0.0,0.0,0.0,0.0,0.0,0.0,0.0,0.0,0.0,0.0,0.0,0.0,0.0,0.0,0.0,0.0,0.0,0.0,0.0,0.0,0.0,0.0,0.0,0.0,0.0,0.0,0.0,0.0,0.0,0.0,0.0,0.0,0.0,0.0,0.0,0.0,0.0,0.0,0.0,0.0,0.0,0.0,0.0,0.0,0.0,0.0,0.0,0.0,0.0,0.0,0.0,0.0,0.0,0.0,0.0,0.0,0.0,0.0,0.0,0.0,0.0,0.0,0.0,0.0,0.0,0.0,0.0,0.0,0.0,0.0,0.0,0.0,0.0,0.0,0.0,0.0,-2.3912,-2.892,-3.0017,-3.0585,-3.1016,-2.8866,-2.6151,-2.3059,0.0,0.0,0.0,0.0,0.0,0.0,0.0,0.0,0.0,0.0,0.0,0.0,0.0,0.0,0.0,0.0,0.0,0.0,0.0,0.0,0.0,0.0,0.0,0.0,0.0,0.0,0.0,0.0,0.0,0.0,0.0,0.0,0.0,0.0,0.0,0.0,0.0,0.0,0.0,0.0,0.0,0.0,0.0,0.0,0.0,0.0,0.0,0.0,0.0,0.0,0.0,0.0,0.0,0.0,0.0,0.0,0.0,0.0,0.0,0.0,0.0,0.0,0.0,0.0,0.0,0.0,0.0,0.0,0.0,0.0,0.0,0.0,0.0,0.0,0.0,0.0,0.0,0.0,0.0,0.0,0.0,0.0,0.0,0.0,0.0,0.0,0.0,0.0,0.0,0.0,0.0,0.0,0.0,0.0,0.0,0.0,0.0,0.0,0.0,0.0,0.0,0.0,0.0,-2.2538,-2.4861,-2.9877,-3.0404,-3.0361,-3.0304,-2.8445,-2.5879,-2.2564,-2.0418,0.0,0.0,0.0,0.0,0.0,0.0,0.0,0.0,0.0,0.0,0.0,0.0,0.0,0.0,0.0,0.0,0.0,0.0,0.0,0.0,0.0,0.0,0.0,0.0,0.0,0.0,0.0,0.0,0.0,0.0,0.0,0.0,0.0,0.0,0.0,0.0,0.0,0.0,0.0,0.0,0.0,0.0,0.0,0.0,0.0,0.0,0.0,0.0,0.0,0.0,0.0,0.0,0.0,0.0,0.0,0.0,0.0,0.0,0.0,0.0,0.0,0.0,0.0,0.0,0.0,0.0,0.0,0.0,0.0,0.0,0.0,0.0,0.0,0.0,0.0,0.0,0.0,0.0,0.0,0.0,0.0,0.0,0.0,0.0,0.0,0.0,0.0,0.0,0.0,0.0,0.0,0.0,0.0,0.0,0.0,0.0,0.0,0.0,0.0,0.0,0.0,0.0,-2.4927,-2.6379,-3.0006,-3.0329,-3.0053,-2.9465,-2.7706,-2.5174,-2.1718,-1.8812,0.0,0.0,0.0,0.0,0.0,0.0,0.0,0.0,0.0,0.0,0.0,0.0,0.0,0.0,0.0,0.0,0.0,0.0,0.0,0.0,0.0,0.0,0.0,0.0,0.0,0.0,0.0,0.0,0.0,0.0,0.0,0.0,0.0,0.0,0.0,0.0,0.0,0.0,0.0,0.0,0.0,0.0,0.0,0.0,0.0,0.0,0.0,0.0,0.0,0.0,0.0,0.0,0.0,0.0,0.0,0.0,0.0,0.0,0.0,0.0,0.0,0.0,0.0,0.0,0.0,0.0,0.0,0.0,0.0,0.0,0.0,0.0,0.0,0.0,0.0,0.0,0.0,0.0,0.0,0.0,0.0,0.0,0.0,0.0,0.0,0.0,0.0,0.0,0.0,0.0,0.0,0.0,0.0,0.0,0.0,0.0,0.0,0.0,0.0,0.0,0.0,0.0,-2.574,-2.8343,-3.0192,-3.0182,-2.9642,-2.8669,-2.6199,-2.352,-2.0766,-1.6915,0.0,0.0,0.0,0.0,0.0,0.0,0.0,0.0,0.0,0.0,0.0,0.0,0.0,0.0,0.0,0.0,0.0,0.0,0.0,0.0,0.0,0.0,0.0,0.0,0.0,0.0,0.0,0.0,0.0,0.0,0.0,0.0,0.0,0.0,0.0,0.0,0.0,0.0,0.0,0.0,0.0,0.0,0.0,0.0,0.0,0.0,0.0,0.0,0.0,0.0,0.0,0.0,0.0,0.0,0.0,0.0,0.0,0.0,0.0,0.0,0.0,0.0,0.0,0.0,0.0,0.0,0.0,0.0,0.0,0.0,0.0,0.0,0.0,0.0,0.0,0.0,0.0,0.0,0.0,0.0,0.0,0.0,0.0,0.0,0.0,0.0,0.0,0.0,0.0,0.0,0.0,0.0,0.0,0.0,0.0,0.0,0.0,0.0,0.0,0.0,0.0,0.0,-2.4743,-2.7134,0.0,-2.9958,-2.9389,-2.8333,-2.6399,-2.3894,-2.0692,0.0,0.0,0.0,0.0,0.0,0.0,0.0,0.0,0.0,0.0,0.0,0.0,0.0,0.0,0.0,0.0,0.0,0.0,0.0,0.0,0.0,0.0,0.0,0.0,0.0,0.0,0.0,0.0,0.0,0.0,0.0,0.0,0.0,0.0,0.0,0.0,0.0,0.0,0.0,0.0,0.0,0.0,0.0,0.0,0.0,0.0,0.0,0.0,0.0,0.0,0.0,0.0,0.0,0.0,0.0,0.0,0.0,0.0,0.0,0.0,0.0,0.0,0.0,0.0,0.0,0.0,0.0,0.0,0.0,0.0,0.0,0.0,0.0,0.0,0.0,0.0,0.0,0.0,0.0,0.0,0.0,0.0,0.0,0.0,0.0,0.0,0.0,0.0,0.0,0.0,0.0,0.0,0.0,0.0,0.0,0.0,0.0,0.0,0.0,0.0,0.0,0.0,-2.2283,-2.4494,-2.6845,0.0,-2.9712,-2.9083,-2.783,-2.5949,-2.3486,-2.0325,0.0,0.0,0.0,0.0,0.0,0.0,0.0,0.0,0.0,0.0,0.0,0.0,0.0,0.0,0.0,0.0,0.0,0.0,0.0,0.0,0.0,0.0,0.0,0.0,0.0,0.0,0.0,0.0,0.0,0.0,0.0,0.0,0.0,0.0,0.0,0.0,0.0,0.0,0.0,0.0,0.0,0.0,0.0,0.0,0.0,0.0,0.0,0.0,0.0,0.0,0.0,0.0,0.0,0.0,0.0,0.0,0.0,0.0,0.0,0.0,0.0,0.0,0.0,0.0,0.0,0.0,0.0,0.0,0.0,0.0,0.0,0.0,0.0,0.0,0.0,0.0,0.0,0.0,0.0,0.0,0.0,0.0,0.0,0.0,0.0,0.0,0.0,0.0,0.0,0.0,0.0,0.0,0.0,0.0,0.0,0.0,0.0,0.0,0.0,0.0,0.0,0.0,-2.2108,-2.5374,-2.8065,-2.9533,-2.9523,-2.8705,-2.7047,-2.4497,-2.1951,0.0,0.0,0.0,0.0,0.0,0.0,0.0,0.0,0.0,0.0,0.0,0.0,0.0,0.0,0.0,0.0,0.0,0.0,0.0,0.0,0.0,0.0,0.0,0.0,0.0,0.0,0.0,0.0,0.0,0.0,0.0,0.0,0.0,0.0,0.0,0.0,0.0,0.0,0.0,0.0,0.0,0.0,0.0,0.0,0.0,0.0,0.0,0.0,0.0,0.0,0.0,0.0,0.0,0.0,0.0,0.0,0.0,0.0,0.0,0.0,0.0,0.0,0.0,0.0,0.0,0.0,0.0,0.0,0.0,0.0,0.0,0.0,0.0,0.0,0.0,0.0,0.0,0.0,0.0,0.0,0.0,0.0,0.0,0.0,0.0,0.0,0.0,0.0,0.0,0.0,0.0,0.0,0.0,0.0,0.0,0.0,0.0,0.0,0.0,0.0,0.0,0.0,0.0,0.0,-2.5171,-2.7696,-2.9316,-2.8769,-2.7843,-2.6774,-2.4412,-2.1951,-1.9462,0.0,0.0,0.0,0.0,0.0,0.0,0.0,0.0,0.0,0.0,0.0,0.0,0.0,0.0,0.0,0.0,0.0,0.0,0.0,0.0,0.0,0.0,0.0,0.0,0.0,0.0,0.0,0.0,0.0,0.0,0.0,0.0,0.0,0.0,0.0,0.0,0.0,0.0,0.0,0.0,0.0,0.0,0.0,0.0,0.0,0.0,0.0,0.0,0.0,0.0,0.0,0.0,0.0,0.0,0.0,0.0,0.0,0.0,0.0,0.0,0.0,0.0,0.0,0.0,0.0,0.0,0.0,0.0,0.0,0.0,0.0,0.0,0.0,0.0,0.0,0.0,0.0,0.0,0.0,0.0,0.0,0.0,0.0,0.0,0.0,0.0,0.0,0.0,0.0,0.0,0.0,0.0,0.0,0.0,0.0,0.0,0.0,0.0,0.0,0.0,0.0,0.0,-2.1985,-2.5011,-2.7501,-2.9079,-2.8375,-2.7475,-2.6667,-2.4382,-2.1951,-1.9462,0.0,0.0,0.0,0.0,0.0,0.0,0.0,0.0,0.0,0.0,0.0,0.0,0.0,0.0,0.0,0.0,0.0,0.0,0.0,0.0,0.0,0.0,0.0,0.0,0.0,0.0,0.0,0.0,0.0,0.0,0.0,0.0,0.0,0.0,0.0,0.0,0.0,0.0,0.0,0.0,0.0,0.0,0.0,0.0,0.0,0.0,0.0,0.0,0.0,0.0,0.0,0.0,0.0,0.0,0.0,0.0,0.0,0.0,0.0,0.0,0.0,0.0,0.0,0.0,0.0,0.0,0.0,0.0,0.0,0.0,0.0,0.0,0.0,0.0,0.0,0.0,0.0,0.0,0.0,0.0,0.0,0.0,0.0,0.0,0.0,0.0,0.0,0.0,0.0,0.0,0.0,0.0,0.0,0.0,0.0,0.0,0.0,0.0,0.0,0.0,0.0,0.0,-2.1683,-2.4886,-2.7394,-2.8734,-2.8172,-2.7365,-2.6557,-2.4345,-2.196,-1.9554,0.0,0.0,0.0,0.0,0.0,0.0,0.0,0.0,0.0,0.0,0.0,0.0,0.0,0.0,0.0,0.0,0.0,0.0,0.0,0.0,0.0,0.0,0.0,0.0,0.0,0.0,0.0,0.0,0.0,0.0,0.0,0.0,0.0,0.0,0.0,0.0,0.0,0.0,0.0,0.0,0.0,0.0,0.0,0.0,0.0,0.0,0.0,0.0,0.0,0.0,0.0,0.0,0.0,0.0,0.0,0.0,0.0,0.0,0.0,0.0,-2.5748,0.0,0.0,0.0,0.0,0.0,0.0,0.0,0.0,0.0,0.0,0.0,0.0,0.0,0.0,0.0,0.0,0.0,0.0,0.0,0.0,0.0,0.0,0.0,0.0,0.0,0.0,0.0,0.0,0.0,0.0,0.0,0.0,0.0,0.0,0.0,0.0,0.0,0.0,0.0,0.0,0.0,-2.1595,-2.4709,-2.7014,-2.7963,-2.7346,-2.6521,-2.5723,-2.4025,-2.2217,-2.0364,0.0,0.0,0.0,0.0,0.0,0.0,0.0,0.0,0.0,0.0,0.0,0.0,0.0,0.0,0.0,0.0,0.0,0.0,0.0,0.0,0.0,0.0,0.0,0.0,0.0,0.0,0.0,0.0,0.0,0.0,0.0,0.0,0.0,0.0,0.0,0.0,0.0,0.0,0.0,0.0,0.0,0.0,0.0,0.0,0.0,0.0,0.0,0.0,0.0,0.0,0.0,0.0,0.0,0.0,0.0,0.0,0.0,0.0,0.0,0.0,0.0,-2.7023,0.0,0.0,0.0,0.0,0.0,0.0,0.0,0.0,0.0,0.0,0.0,0.0,0.0,0.0,0.0,0.0,0.0,0.0,0.0,0.0,0.0,0.0,0.0,0.0,0.0,0.0,0.0,0.0,0.0,0.0,0.0,0.0,0.0,0.0,0.0,0.0,0.0,0.0,0.0,0.0,-2.2097,-2.4561,-2.6484,-2.7669,-2.6722,-2.5852,-2.5429,-2.3933,-2.229,-2.0621,-1.8603,0.0,0.0,0.0,0.0,0.0,0.0,0.0,0.0,0.0,0.0,0.0,0.0,0.0,0.0,0.0,0.0,0.0,0.0,0.0,0.0,0.0,0.0,0.0,0.0,0.0,0.0,0.0,0.0,0.0,0.0,0.0,0.0,0.0,0.0,0.0,0.0,0.0,0.0,0.0,0.0,0.0,0.0,0.0,0.0,0.0,0.0,0.0,0.0,0.0,0.0,0.0,0.0,0.0,0.0,-3.5,-3.4693,-3.5356,-3.5694,-3.5545,-3.2388,-3.1324,-3.1575,0.0,0.0,0.0,0.0,0.0,0.0,0.0,0.0,0.0,0.0,0.0,0.0,0.0,0.0,0.0,0.0,0.0,0.0,0.0,0.0,0.0,0.0,0.0,0.0,0.0,-2.68,-2.6344,0.0,0.0,0.0,0.0,0.0,0.0,0.0,0.0,0.0,0.0,0.0,0.0,-2.2888,-2.4533,-2.5962,-2.742,-2.6274,-2.5338,-2.5191,-2.3969,-2.2492,-2.0823,-1.9337,-1.7502,0.0,0.0,0.0,0.0,0.0,0.0,0.0,0.0,0.0,0.0,0.0,0.0,0.0,0.0,0.0,0.0,0.0,0.0,0.0,0.0,0.0,0.0,0.0,0.0,0.0,0.0,0.0,0.0,0.0,0.0,0.0,0.0,-2.5879,-2.6099,0.0,0.0,0.0,0.0,0.0,0.0,0.0,0.0,0.0,0.0,0.0,0.0,0.0,0.0,-3.3744,-3.4549,-3.5311,-3.6068,-3.7006,-3.7437,-3.7384,-3.7509,-3.7752,-3.81,-3.7663,0.0,-3.3039,-3.1564,0.0,0.0,0.0,0.0,0.0,0.0,0.0,0.0,0.0,0.0,0.0,0.0,0.0,0.0,0.0,0.0,0.0,0.0,0.0,0.0,0.0,0.0,-3.0204,-2.9279,-2.9922,-3.0125,0.0,-2.4408,-2.1666,-2.1243,0.0,0.0,0.0,0.0,0.0,0.0,0.0,0.0,-2.3722,-2.4833,-2.5742,-2.6667,-2.5944,-2.5117,-2.442,-2.4153,-2.3345,-2.1739,-2.0721,-1.941,-1.7704,-1.5502,0.0,0.0,0.0,0.0,0.0,0.0,0.0,0.0,0.0,0.0,0.0,0.0,0.0,0.0,0.0,0.0,0.0,0.0,0.0,0.0,0.0,0.0,0.0,0.0,0.0,0.0,0.0,0.0,0.0,-2.5895,-2.7994,-2.7994,-2.8078,-2.7519,0.0,0.0,0.0,0.0,0.0,0.0,0.0,0.0,0.0,-3.4307,-3.4742,-3.5825,-3.7642,-3.8379,-3.892,-3.9276,-4.002,-4.0375,-4.0358,-3.9952,-3.9881,-4.0041,-3.9662,-3.8376,-3.6412,-3.4547,-3.2333,-2.9982,0.0,0.0,0.0,0.0,0.0,-2.8464,-2.9283,0.0,0.0,0.0,0.0,0.0,0.0,0.0,0.0,0.0,0.0,0.0,0.0,0.0,0.0,-3.1297,-3.1686,-3.1823,-3.0938,-2.8162,-2.5456,0.0,-2.2951,-2.1492,-1.9292,0.0,0.0,0.0,0.0,0.0,-2.4006,-2.4897,-2.5521,-2.5888,-2.5209,-2.4585,-2.4226,-2.419,-2.3511,-2.1904,-2.1445,-2.0299,-1.8188,-1.708,-1.5729,0.0,0.0,0.0,0.0,0.0,0.0,0.0,0.0,0.0,0.0,0.0,0.0,0.0,0.0,0.0,0.0,0.0,0.0,0.0,0.0,0.0,0.0,0.0,0.0,0.0,0.0,0.0,0.0,-2.7943,-2.9839,-2.9839,-3.0835,-3.0748,0.0,0.0,0.0,0.0,0.0,0.0,-3.2611,-3.4539,-3.6355,-3.7895,-3.8464,-3.936,-4.0654,-4.1204,-4.1474,-4.1491,-4.2033,-4.2286,-4.2269,-4.1728,-4.139,-4.117,-4.0798,-4.011,-3.9105,-3.6938,-3.4947,-3.3189,-3.1983,-3.1137,-3.0662,-3.141,-3.176,-3.1987,-3.2918,-3.3222,-3.2923,-3.1179,0.0,-2.9677,-2.7247,0.0,0.0,0.0,0.0,-2.9035,-3.0448,0.0,-3.2155,-3.2761,-3.2913,-3.2839,-3.2638,-3.1113,-2.9082,0.0,-2.5999,-2.4879,-2.2208,0.0,0.0,0.0,0.0,-2.3988,-2.4979,-2.5283,-2.5485,-2.5686,-2.4805,-2.419,-2.419,-2.4006,-2.329,-2.1886,-2.1592,-2.0537,-1.85,-1.8207,-1.7154,0.0,0.0,0.0,0.0,0.0,0.0,0.0,0.0,0.0,0.0,0.0,0.0,0.0,0.0,0.0,0.0,0.0,0.0,0.0,0.0,0.0,0.0,0.0,0.0,0.0,0.0,0.0,0.0,0.0,0.0,-3.2124,-3.4032,0.0,0.0,0.0,0.0,-3.2141,-3.4134,-3.5723,-3.6491,-3.7963,-3.9445,-4.0933,-4.1018,-4.1407,-4.2168,-4.2219,-4.2236,-4.2236,-4.2269,-4.2286,-4.2286,-4.2252,-4.1863,-4.123,-4.1776,-4.1256,-3.9926,-3.8386,-3.7081,-3.5882,-3.4751,-3.4089,-3.3724,-3.341,-3.3573,-3.3971,-3.4096,-3.4075,-3.414,-3.4768,-3.3444,-3.1509,-3.1022,-2.9609,0.0,0.0,-3.0632,-3.1415,-3.2265,-3.3091,-3.3697,-3.3733,-3.3733,-3.3532,-3.2766,-3.2206,-3.1256,0.0,-2.7574,-2.6245,-2.5301,0.0,-2.5136,-2.5099,-2.5191,-2.5852,-2.7431,-2.6311,-2.5686,-2.6465,-2.5144,-2.419,-2.419,-2.3511,-2.2703,-2.1849,-2.1015,-2.0162,-1.9279,-1.85,-1.7686,-1.6798,-1.5203,0.0,0.0,0.0,0.0,0.0,0.0,0.0,0.0,0.0,0.0,0.0,0.0,0.0,0.0,0.0,0.0,0.0,0.0,0.0,0.0,0.0,0.0,0.0,0.0,0.0,0.0,0.0,0.0,-3.5204,-3.7168,0.0,0.0,-3.6417,-3.6891,-3.6643,-3.8227,-3.9343,-3.9614,-4.0578,-4.1576,-4.2564,-4.2615,-4.2997,-4.3785,-4.3785,-4.3785,-4.3785,-4.3785,-4.3785,-4.3768,-4.325,-4.2878,-4.2574,-4.1827,-4.124,-4.073,-3.9715,-3.8798,-3.7897,-3.7045,-3.661,-3.6486,-3.6344,-3.6395,-3.6468,-3.6034,-3.5864,-3.5788,-3.5373,-3.4129,-3.2889,-3.3318,-3.2791,-3.2176,-3.2888,-3.3178,-3.327,-3.3265,-3.3524,-3.3734,-3.348,-3.3404,-3.3332,-3.3059,-3.2459,-3.1791,-3.1066,-2.9629,-2.8021,-2.6442,-2.6605,-2.6586,-2.5558,-2.6274,-2.6972,-2.7016,-2.6521,-2.608,-2.5852,-2.485,-2.419,-2.419,-2.3465,-2.2666,-2.1849,-2.0978,-2.0144,-1.9334,-1.9022,-1.8243,-1.6927,-1.5833,-1.4077,0.0,0.0,0.0,0.0,0.0,0.0,0.0,0.0,0.0,0.0,0.0,0.0,0.0,0.0,0.0,0.0,0.0,0.0,0.0,0.0,0.0,0.0,0.0,0.0,0.0,0.0,-3.7246,-3.7523,-3.9503,-4.0257,-3.8802,-3.9529,-4.0104,-4.0104,-4.1255,-4.1948,-4.1948,-4.2658,-4.3284,-4.3792,-4.3809,-4.4062,-4.4598,-4.4615,-4.4615,-4.4615,-4.4615,-4.4615,-4.4581,-4.4045,-4.3673,-4.3341,-4.2388,-4.166,-4.117,-4.0663,-4.002,-3.9334,-3.9027,-3.8792,-3.8647,-3.8791,-3.8606,-3.8125,-3.7151,-3.6893,-3.6859,-3.5707,-3.4631,-3.3913,-3.465,-3.4512,-3.4185,-3.4585,-3.4568,-3.4309,-3.3755,-3.3673,-3.3596,-3.3083,-3.2968,-3.3014,-3.3169,-3.254,-3.1954,-3.1992,-3.0817,-2.9379,-2.8036,-2.8026,-2.7842,-2.6778,-2.7512,-2.8007,-2.7482,-2.6932,-2.641,-2.587,-2.4832,-2.419,-2.419,-2.3217,-2.2373,-2.1831,-2.0721,-1.9858,-1.9315,-1.904,-1.828,-1.6927,-1.5582,-1.3972,-1.2095,0.0,0.0,0.0,0.0,0.0,0.0,0.0,0.0,0.0,0.0,0.0,0.0,0.0,0.0,0.0,0.0,0.0,0.0,0.0,0.0,0.0,0.0,0.0,-3.4607,-3.6586,-3.8311,-3.9039,-4.1035,-4.1813,-4.0366,-4.1525,-4.2354,-4.2354,-4.3031,-4.3426,-4.3426,-4.4181,-4.4615,-4.4615,-4.4615,-4.4615,-4.4615,-4.4615,-4.4615,-4.4615,-4.4615,-4.4615,-4.4615,-4.4615,-4.4164,-4.3426,-4.3409,-4.2591,-4.1238,-4.1221,-4.0764,-4.0146,-4.0679,-4.0552,-4.0144,-4.053,-3.9981,-3.8785,-3.7371,-3.7142,-3.7271,-3.6055,-3.5148,-3.4631,-3.5063,-3.4725,-3.4254,-3.4637,-3.4765,-3.4588,-3.3828,-3.3634,-3.3421,-3.2678,-3.2484,-3.2599,-3.306,-3.245,-3.1847,-3.1966,-3.1046,-3.021,-3.0186,-2.9507,-2.9005,-2.9005,-2.9005,0.0,-2.9005,-2.7592,-2.6602,-2.6602,-2.5162,-2.419,-2.419,-2.273,-2.1794,-2.1794,-2.0233,-1.9297,-1.9297,-1.8555,-1.7759,-1.6945,-1.4597,-1.2986,-1.2205,0.0,0.0,0.0,0.0,0.0,0.0,0.0,0.0,0.0,0.0,0.0,0.0,0.0,0.0,0.0,0.0,0.0,0.0,0.0,0.0,0.0,0.0,-3.7567,-3.7043,-3.9343,-4.1356,-4.2117,-4.3234,-4.3819,-4.3386,-4.3735,-4.3972,-4.3972,-4.4175,-4.4265,-4.4265,-4.4496,-4.4615,-4.4615,-4.4615,-4.4615,-4.4615,-4.4615,-4.4615,-4.4615,-4.4615,-4.4615,-4.4615,-4.4615,-4.4496,-4.4231,-4.3656,-4.2878,-4.1948,-4.1424,-4.0764,-4.0121,-4.0262,-4.0229,-4.0129,-4.0219,-3.973,-3.8937,-3.8531,-3.7787,-3.6933,-3.6587,-3.5943,-3.5323,-3.5438,-3.5629,-3.5792,-3.5916,-3.6037,-3.5878,-3.4747,-3.4331,-3.3888,-3.2778,-3.223,-3.2022,-3.2161,-3.1986,-3.181,-3.1864,-3.14,-3.0732,-2.9913,-2.9332,-2.9005,-2.9005,0.0,0.0,-2.9005,-2.7592,-2.6602,-2.6602,-2.5162,-2.419,-2.419,-2.273,-2.1794,0.0,-2.0233,-1.9297,-1.9297,-1.9095,-1.8592,-1.7796,-1.5967,-1.4927,0.0,0.0,0.0,0.0,0.0,0.0,0.0,0.0,0.0,0.0,0.0,0.0,0.0,0.0,0.0,0.0,0.0,0.0,0.0,0.0,0.0,0.0,-3.8142,-4.0341,-4.024,-4.1694,-4.3047,-4.3809,-4.4316,-4.4615,-4.4615,-4.4615,-4.4615,-4.4615,-4.4615,-4.4615,-4.4615,-4.4615,-4.4615,-4.4615,-4.4615,-4.4615,-4.4615,-4.4615,-4.4615,-4.4615,-4.4615,-4.4615,-4.4615,-4.4615,-4.4615,0.0,-4.4096,-4.347,-4.2709,-4.1965,-4.1221,0.0,0.0,0.0,0.0,0.0,-3.9982,-3.971,-3.9188,-3.843,-3.7625,-3.6998,-3.6468,-3.6045,-3.5701,-3.581,-3.6054,-3.6054,-3.6151,-3.6004,-3.4948,-3.433,-3.3723,-3.2665,-3.1975,-3.1603,-3.1771,-3.166,-3.1603,-3.1771,0.0,0.0,-2.9738,-2.9386,-2.9187,-2.9037,-2.8851,-2.8815,0.0,-2.7737,-2.679,-2.6609,-2.5456,-2.4566,-2.4226,-2.3033,0.0,0.0,0.0,-1.9491,-1.8831,-1.8794,0.0,0.0,0.0,0.0,0.0,0.0,0.0,0.0,-1.3807,-1.495,0.0,0.0,0.0,0.0,0.0,0.0,0.0,0.0,0.0,0.0,0.0,0.0,0.0,0.0,0.0,0.0,-4.0612,-4.2675,-4.3436,-4.3527,-4.3809,-4.453,-4.4615,-4.4615,-4.4615,-4.4615,-4.4615,-4.4615,-4.4615,-4.4615,-4.4615,0.0,0.0,0.0,0.0,-4.4615,-4.4615,-4.4615,-4.4615,-4.4615,-4.4615,-4.4615,-4.4615,-4.4615,-4.4615,-4.4615,-4.4615,-4.4096,-4.325,-4.2574,-4.1813,-4.1052,-4.0882,-4.0521,-4.0096,-4.0096,-4.0417,0.0,0.0,0.0,0.0,-3.7388,-3.688,-3.666,-3.5836,-3.5644,-3.5694,-3.5694,-3.5739,-3.5596,-3.4853,-3.4147,-3.3409,-3.2578,-3.1842,-3.1412,-3.1677,-3.1468,-3.131,-3.166,-3.1163,-3.0421,-2.9626,-2.9531,-2.939,-2.8991,-2.8608,0.0,-2.8875,-2.7888,-2.7007,-2.671,0.0,0.0,-2.4392,-2.3501,-2.3006,-2.3006,-2.152,-2.0016,-1.8574,-1.8519,-1.8144,-1.733,-1.7312,-1.7257,-1.7165,-1.7165,-1.722,-1.7275,-1.639,-1.6775,0.0,0.0,0.0,0.0,0.0,0.0,0.0,0.0,0.0,0.0,0.0,0.0,0.0,0.0,0.0,-4.0206,-4.2049,-4.347,-4.4248,-4.4378,-4.4445,-4.4581,-4.4615,-4.4615,-4.4615,-4.4615,-4.4615,-4.4615,-4.4615,-4.4615,-4.4615,-4.4615,0.0,-4.4615,-4.4615,-4.4615,-4.4615,-4.4615,-4.4615,-4.4615,0.0,0.0,-4.4615,-4.4615,-4.4615,-4.4615,-4.4615,-4.3819,-4.2489,-4.2354,-4.1491,-4.0299,-4.0255,-4.0179,-4.0096,-4.0096,-4.0171,-4.022,-3.9977,-3.9503,-3.8853,-3.7973,-3.728,-3.666,-3.5836,-3.5898,0.0,-3.6245,-3.6563,-3.6708,-3.5843,-3.5275,-3.4579,-3.3179,-3.2474,-3.1941,-3.1429,-3.1252,-3.123,-3.131,-3.1191,-3.0743,-2.9679,-2.9283,-2.8966,-2.8572,-2.8224,-2.8116,-2.8458,-2.7503,-2.6876,-2.7049,-2.5778,-2.4991,-2.5152,-2.3841,-2.3006,-2.3006,-2.2097,-2.1408,-2.1096,-2.1078,-2.0684,-1.9824,-1.9806,-1.9483,-1.8838,-1.8838,-1.9179,-1.9769,-1.8309,-1.8151,0.0,0.0,0.0,0.0,0.0,0.0,0.0,0.0,0.0,0.0,0.0,-3.5238,-3.7425,0.0,-4.0578,-4.2066,-4.3267,-4.413,-4.4547,-4.4615,-4.4615,-4.4615,-4.4615,-4.4615,-4.4615,-4.4615,-4.4615,-4.4615,-4.4615,-4.4615,-4.4615,-4.4615,-4.4615,-4.4615,-4.4615,-4.4615,-4.4615,-4.4615,-4.4615,-4.4615,-4.4615,-4.4615,-4.4615,-4.4615,-4.4615,-4.4615,-4.4615,-4.3927,-4.2794,-4.2049,-4.1085,-4.0096,-4.0096,-4.0096,-4.0096,-4.0096,-4.0096,-4.0096,-4.0096,-3.9859,-3.9436,-3.8684,-3.7956,-3.7212,-3.6434,-3.6111,-3.6006,-3.6006,-3.6186,-3.6312,-3.5873,-3.5325,-3.4627,-3.3456,-3.2747,-3.2107,-3.136,-3.119,-3.119,-3.119,-3.119,-3.0777,-2.9485,-2.911,-2.8812,-2.8239,-2.7837,-2.7736,-2.8102,-2.7473,-2.6827,-2.6402,-2.5629,-2.4998,-2.4582,-2.3975,-2.3363,-2.2781,-2.2539,-2.2208,-2.1812,-2.1794,-2.1592,-2.1161,-2.1143,-2.0941,-2.0546,-2.0546,-2.0766,-2.1125,-2.0335,-2.0178,0.0,0.0,0.0,0.0,0.0,0.0,0.0,0.0,-3.3339,-3.6276,-3.7415,-3.8447,-4.0383,-4.1711,-4.276,-4.3521,-4.4181,-4.4615,-4.4615,-4.4615,-4.4615,-4.4615,-4.4615,-4.4615,-4.4615,-4.4615,-4.4615,-4.4615,-4.4615,-4.4615,-4.4615,-4.4615,-4.4615,-4.4615,-4.4615,-4.4615,-4.4615,-4.4615,-4.4615,-4.4615,-4.4615,-4.4615,-4.4615,-4.4615,-4.4615,-4.4598,-4.4418,-4.391,-4.3098,-4.1762,-4.0764,-4.0096,-4.0096,-4.0096,-4.0096,-4.0096,-4.0096,-4.0096,-4.0096,-4.0096,-3.996,-3.9056,-3.8379,-3.7736,-3.684,-3.6113,-3.56,-3.56,-3.56,-3.56,-3.56,-3.5165,-3.4489,-3.3609,-3.2949,-3.2276,-3.1376,-3.119,-3.119,-3.119,-3.119,-3.0768,-2.945,-2.9094,-2.8715,-2.7909,-2.7439,-2.7317,-2.7739,-2.7424,-2.6849,-2.5948,-2.5566,-2.4913,-2.371,-2.3907,-2.3712,-2.278,-2.3048,-2.2942,-2.229,-2.2271,-2.2198,-2.2033,-2.2033,-2.1959,-2.1794,-2.1794,-2.1886,-2.2033,-2.2033,-2.2033,-2.8237,-2.8277,-2.9546,-3.2117,-3.1918,-3.2645,0.0,0.0,-3.799,-4.0933,-4.161,-4.1965,-4.2851,-4.3156,-4.3555,-4.4333,-4.4547,-4.4615,-4.4615,-4.4615,-4.4615,-4.4615,-4.4615,-4.4615,-4.4615,-4.4615,-4.4615,-4.4615,-4.4615,-4.4615,-4.4615,-4.4615,-4.4615,-4.4615,-4.4615,-4.4615,-4.4615,-4.4615,-4.4615,-4.4615,-4.4615,-4.4615,-4.4615,-4.4615,-4.4615,-4.4564,-4.3842,-4.3115,-4.2354,-4.1542,-4.0764,-4.0096,-4.0096,-4.0096,-4.0096,-4.0096,-4.0096,-4.0096,-4.0096,-4.0096,-3.9876,-3.8481,-3.7973,-3.7635,-3.6157,-3.5667,-3.56,-3.56,-3.56,-3.56,-3.56,-3.5532,-3.5126,-3.3744,-3.3339,-3.2899,-3.1495,-3.119,-3.119,-3.119,-3.119,-3.0937,-3.0125,-2.9431,-2.8628,-2.7528,-2.7019,-2.6906,-2.7319,-2.702,-2.6854,-2.7059,-2.5875,-2.457,-2.3354,-2.3566,-2.3699,-2.3566,-2.3878,-2.4025,-2.3933,-2.3933,-2.3602,-2.2878,-2.2859,-2.252,-2.1794,-2.1794,-2.218,-2.2859,-2.2859,-2.2859,-3.2352,-3.2664,0.0,0.0,-3.5876,-3.7127,-3.991,-4.0189,-4.0426,-4.2523,-4.2946,-4.3183,-4.3961,-4.4096,-4.4198,0.0,-4.4615,-4.4615,-4.4615,-4.4198,-4.391,-4.391,-4.391,-4.4079,-4.4564,-4.4615,-4.4615,-4.4615,-4.4615,-4.4615,-4.4615,-4.4615,-4.4615,-4.4615,-4.4615,-4.4615,-4.4615,-4.4615,-4.4615,-4.4615,-4.4615,-4.4615,-4.4615,-4.4615,-4.4615,-4.453,-4.3301,-4.2574,-4.2202,-4.1035,-4.0383,-4.0096,-4.0096,-4.0096,-4.0096,-4.0096,-4.0096,-4.0096,-4.0096,-4.0096,-3.9994,-3.9377,-3.8599,-3.7787,-3.7121,-3.6309,-3.56,-3.56,-3.56,-3.56,-3.56,-3.56,-3.5228,-3.3761,-3.3406,-3.3,-3.1512,-3.119,-3.119,-3.119,-3.119,-3.097,-3.0243,-2.9482,-2.8674,-2.7725,-2.708,-2.6758,-2.6939,-2.6791,-2.6605,-2.6341,-2.5134,-2.4092,-2.3381,-2.3375,-2.3335,-2.3129,-2.3628,-2.3907,-2.3907,-2.4094,-2.4043,-2.3694,-2.3694,-2.3529,-2.3208,-2.3208,-2.3364,-2.3694,-2.3694,-2.3694,-3.4532,0.0,0.0,-3.7144,-3.892,-4.0502,-4.0907,-4.1414,-4.2117,-4.3172,-4.3392,-4.3538,-4.3904,-4.4113,-4.4265,-4.4265,-4.4479,-4.4615,-4.4615,-4.391,-4.3392,-4.3392,-4.3206,-4.342,-4.4181,-4.4479,-4.4615,-4.4615,-4.4615,-4.4615,-4.4615,-4.4615,-4.4615,-4.4615,-4.4615,-4.4615,-4.4615,-4.4615,-4.4615,-4.4615,-4.4615,-4.4615,-4.4615,-4.4615,-4.4615,-4.453,-4.3183,-4.2489,-4.2185,-4.0942,-4.0282,-4.0096,-4.0096,-4.0096,-4.0096,-4.0096,-4.0096,-4.0096,-4.0096,-4.0096,-4.0028,-3.9639,-3.8768,-3.7838,-3.7398,-3.6479,-3.56,-3.56,-3.56,-3.56,-3.56,-3.56,-3.5228,-3.3761,-3.3406,-3.3,-3.1512,-3.119,-3.119,-3.119,-3.119,-3.1021,-3.0497,-2.9786,-2.9025,-2.8264,-2.7486,-2.6928,-2.6725,-2.6691,-2.642,-2.5693,-2.4857,-2.4196,-2.3744,-2.3505,-2.328,-2.3055,-2.3366,-2.3599,-2.3692,-2.3837,-2.4006,-2.4208,-2.4103,-2.4103,-2.419,-2.419,-2.419,-2.419,-2.419,-2.419,0.0,0.0,-3.7117,-3.8565,-4.0054,-4.1542,-4.2953,-4.3308,-4.3341,-4.3375,-4.3392,-4.32,-4.2489,-4.2963,-4.3426,-4.3426,-4.4079,-4.4615,-4.4615,-4.391,-4.3392,-4.3392,-4.2777,-4.2625,0.0,-4.413,-4.4615,-4.4615,-4.4615,-4.4615,-4.4615,-4.4615,-4.4615,-4.4615,-4.4615,-4.4615,-4.4615,-4.4615,-4.4615,-4.4615,-4.4615,-4.4615,-4.4615,-4.4615,-4.4615,-4.4564,-4.3741,-4.2963,-4.2236,-4.1474,-4.0747,-4.0096,-4.0096,-4.0096,-4.0096,-4.0096,-4.0096,-4.0096,-4.0096,-4.0096,-3.9859,-3.843,-3.7939,-3.7635,-3.6124,-3.5633,-3.56,-3.56,-3.56,-3.56,-3.56,-3.56,-3.5228,-3.3761,-3.3406,-3.3,-3.1512,-3.119,-3.119,-3.119,-3.119,-3.119,-3.1157,-3.0548,-2.982,-2.9077,-2.8281,-2.7503,-2.6793,-2.6691,-2.642,-2.5693,-2.5575,-2.5252,-2.4525,-2.4099,-2.3877,-2.3863,-2.3448,-2.3357,-2.3692,-2.3403,-2.3533,-2.418,-2.3886,-2.3886,-2.419,-2.419,-2.419,-2.419,-2.419,-2.419,-3.4542,0.0,-3.8599,-4.0087,-4.1204,-4.2185,-4.32,-4.3031,-4.254,-4.2049,-4.1948,-4.1711,-4.0993,-4.1441,-4.21,-4.2591,-4.3318,-4.3995,-4.453,-4.391,-4.3234,-4.2726,-4.2878,0.0,0.0,0.0,0.0,-4.4564,-4.4615,-4.4615,-4.4615,-4.4615,-4.4615,-4.4615,-4.4615,-4.4615,-4.4615,-4.4615,-4.4615,-4.4615,-4.4615,-4.4615,-4.4615,-4.4615,-4.4615,-4.453,-4.3234,-4.2523,-4.2185,-4.0993,-4.0333,-4.0096,-4.0096,-4.0096,-4.0096,-4.0096,-4.0096,-4.0096,-4.0096,-4.0096,-3.9943,-3.8937,-3.8311,-3.7719,-3.6705,-3.6028,-3.56,-3.56,-3.56,-3.56,-3.56,-3.56,-3.5346,-3.4353,-3.3761,-3.3136,-3.2141,-3.1565,-3.119,-3.119,-3.119,-3.119,-3.119,-3.0598,-2.9685,-2.8399,-2.7571,-2.6979,-2.6725,-2.6691,-2.659,-2.6353,-2.5896,-2.5507,-2.5253,-2.4666,-2.4093,-2.3599,-2.3625,-2.3487,-2.3051,-2.3141,-2.3311,-2.3533,-2.3631,-2.3764,-2.3876,-2.4094,-2.419,-2.419,-2.419,-2.419,-3.6265,-3.8075,-3.9757,-4.1221,-4.2151,-4.276,-4.2963,-4.2439,-4.161,-4.0612,-4.0206,-3.9715,-3.8667,-3.9106,-4.0037,-4.1305,-4.2134,-4.3081,-4.4429,-4.391,-4.3206,-4.276,-4.2878,0.0,0.0,0.0,0.0,-4.4547,-4.4615,-4.4615,-4.4615,-4.4615,-4.4615,-4.4615,-4.4615,-4.4615,-4.4615,-4.4615,-4.4615,-4.4615,-4.4615,-4.4615,-4.4615,-4.4615,-4.4615,-4.4513,-4.2963,-4.2286,-4.2185,-4.0722,-4.0096,-4.0096,-4.0096,-4.0096,-4.0096,-4.0096,-4.0096,-4.0096,-4.0096,-4.0096,-3.9943,-3.892,-3.8294,-3.7719,-3.6671,-3.6011,-3.56,-3.56,-3.56,-3.56,-3.56,-3.56,-3.5397,-3.4675,-3.4134,-3.3525,-3.2513,-3.1938,-3.1532,-3.1241,-3.119,-3.119,-3.119,-3.0362,-2.9364,-2.8383,-2.7351,-2.6691,-2.6691,-2.6691,-2.6691,-2.6691,-2.6285,-2.5998,-2.5998,-2.5321,-2.4678,-2.4222,-2.3884,-2.3653,-2.353,-2.3358,-2.3495,-2.4014,-2.4117,-2.4225,-2.4348,-2.4547,-2.4737,-2.4853,-2.4551,-2.4649,-3.8142,-3.9529,-4.0502,-4.188,-4.2777,-4.3071,-4.2354,-4.1593,-4.0612,-3.9073,-3.8176,-3.7195,0.0,0.0,-3.7405,-3.9597,-4.0646,-4.1999,-4.4293,-4.3944,-4.3443,0.0,0.0,0.0,0.0,0.0,0.0,-4.4547,0.0,-4.4615,-4.4615,-4.4615,-4.4615,-4.4615,-4.4615,-4.4615,-4.4615,-4.4615,-4.4615,-4.4615,-4.4615,-4.4615,-4.4615,-4.4615,-4.4615,-4.4513,-4.2963,-4.2286,-4.2185,-4.0722,-4.0096,-4.0096,-4.0096,-4.0096,-4.0096,-4.0096,-4.0096,-4.0096,-4.0096,-4.0096,-3.9859,-3.843,-3.7939,-3.7635,-3.6107,-3.5633,-3.56,-3.56,-3.56,-3.56,-3.56,-3.56,-3.5414,-3.4726,-3.4523,-3.41,-3.2666,-3.2327,-3.209,-3.1326,-3.119,-3.119,-3.119,-3.0025,-2.9044,-2.901,-2.7723,-2.6742,-2.6691,-2.6691,-2.6691,-2.6691,-2.6691,-2.6691,-2.6691,-2.6065,-2.5642,-2.5592,-2.4289,-2.3945,-2.4928,-2.3991,-2.4084,-2.5416,-2.516,-2.516,-2.5473,-2.5487,-2.5664,-2.5967,-2.5188,-2.545,-3.7821,-3.9529,-4.1001,-4.139,-4.1627,-4.1576,-4.0849,-3.9681,-3.8159,-3.6079,-3.5064,-3.3909,0.0,0.0,0.0,-3.7347,-3.9648,0.0,-4.4293,-4.4429,0.0,-4.346,0.0,-4.3842,-4.3426,-4.3944,0.0,0.0,-4.4615,-4.4615,-4.4615,-4.4615,-4.4615,-4.4615,-4.4615,-4.4615,-4.4615,-4.4615,-4.4615,-4.4615,-4.4615,-4.4615,-4.4615,-4.4615,-4.4615,-4.4513,-4.2963,-4.2286,-4.2185,-4.0722,-4.0096,-4.0096,-4.0096,-4.0096,-4.0096,-4.0096,-4.0096,-4.0096,-4.0096,-4.0096,-3.996,-3.9005,-3.8345,-3.7719,-3.6772,-3.6079,-3.56,-3.56,-3.56,-3.56,-3.56,-3.56,-3.5549,-3.5346,-3.4895,-3.4252,-3.3322,-3.2679,-3.209,-3.1326,-3.119,-3.119,-3.119,-3.0429,-2.9634,-2.9077,-2.8163,-2.7317,-2.6759,-2.6691,-2.6691,-2.6691,-2.6691,-2.6691,-2.6691,-2.6522,-2.6184,-2.5626,-2.5253,-2.4928,-2.4628,-2.435,-2.4396,-2.4761,-2.4922,-2.5034,-2.5133,-2.538,-2.5552,-2.5625,-2.5417,-2.5486,-3.8971,-4.0257,-4.1204,-4.1204,-4.0967,-4.0248,-3.8507,-3.6969,-3.5199,-3.2611,-3.1478,0.0,0.0,0.0,0.0,0.0,0.0,0.0,-4.3707,-4.4395,-4.4418,0.0,-4.4344,0.0,-4.3978,-4.4333,-4.4615,0.0,-4.4615,-4.4615,-4.4615,-4.4615,-4.4615,-4.4615,-4.4615,-4.4615,-4.4615,-4.4615,-4.4615,-4.4615,-4.4615,-4.4615,-4.4615,-4.4615,-4.4429,-4.4012,0.0,-4.2117,-4.1728,-4.0587,-4.0096,-4.0096,-4.0096,-4.0096,-4.0096,-4.0096,-4.0096,-4.0096,-4.0096,-4.0096,-3.9977,-3.9225,-3.8497,-3.777,-3.7032,-3.6231,-3.56,-3.56,-3.56,-3.56,-3.56,-3.56,-3.56,-3.56,-3.5278,-3.4776,-3.4049,-3.3305,-3.2459,-3.141,-3.119,-3.119,-3.119,-3.0598,-2.9973,-2.955,-2.8517,-2.7655,-2.7249,-2.6894,-2.6691,-2.6691,-2.6691,-2.6691,-2.6691,-2.6691,-2.6522,-2.6116,-2.5795,-2.5558,-2.5472,-2.5151,-2.5134,-2.5455,-2.5661,-2.5737,-2.5737,-2.5932,-2.6109,-2.6282,-2.5936,-2.6051,-4.051,-4.1052,-4.1035,-4.0933,-4.0333,-3.9014,-3.592,-3.4081,-3.2154,-2.9132,0.0,-2.718,-2.632,-2.8161,-3.0768,-3.3728,0.0,-3.98,-4.2953,-4.3995,-4.4496,-4.4598,-4.4615,-4.4615,-4.4615,-4.4615,-4.4615,-4.4615,-4.4615,-4.4615,-4.4615,-4.4615,-4.4615,-4.4615,-4.4615,-4.4615,-4.4615,-4.4615,-4.4615,-4.4615,-4.4615,-4.4615,-4.4615,-4.4615,-4.4147,-4.3341,0.0,0.0,-4.1136,-4.0417,-4.0096,-4.0096,-4.0096,-4.0096,-4.0096,-4.0096,-4.0096,-4.0096,-4.0096,-4.0096,-3.9994,-3.9368,-3.8582,-3.7787,-3.7127,-3.6315,-3.56,-3.56,-3.56,-3.56,-3.56,-3.56,-3.56,-3.56,-3.56,-3.5397,-3.4658,-3.3846,-3.2848,-3.1461,-3.119,-3.119,-3.119,-3.0666,-3.0226,-3.0106,-2.8872,-2.7925,-2.7824,-2.7165,-2.6691,-2.6691,-2.6691,-2.6691,-2.6691,-2.6691,-2.6691,-2.6691,-2.6099,-2.6031,-2.6674,-2.6082,-2.6048,-2.6691,-2.6691,-2.6691,-2.6691,-2.6691,-2.6873,-2.7208,-2.649,-2.674,-4.0028,-4.0299,-4.0146,-3.9529,-3.8836,-3.7388,-3.4041,-3.2095,0.0,0.0,0.0,-2.5062,-2.3652,-2.6034,-2.9176,-3.2192,0.0,0.0,0.0,0.0,-4.3859,0.0,0.0,0.0,0.0,0.0,0.0,0.0,0.0,0.0,-4.4615,-4.4615,-4.4615,-4.4615,-4.4615,-4.4615,-4.4615,-4.4615,-4.4615,-4.4615,-4.4615,-4.4615,-4.4615,-4.4615,-4.4147,-4.3341,0.0,0.0,-4.1136,-4.0417,-4.0096,-4.0096,-4.0096,-4.0096,-4.0096,-4.0096,-4.0096,-4.0096,-4.0096,-4.0096,-4.0079,-3.996,-3.8988,-3.7889,-3.7753,-3.6715,-3.56,-3.56,-3.56,-3.56,-3.56,-3.56,-3.56,-3.56,-3.56,-3.5397,-3.4658,-3.3444,-3.2242,-3.136,-3.119,-3.119,-3.119,-3.1089,-3.0801,-3.0192,-2.9347,-2.8552,-2.7891,-2.7165,-2.6691,-2.6691,-2.6691,-2.6691,-2.6691,-2.6691,-2.6691,-2.6691,-2.6573,-2.6573,-2.6691,-2.6573,-2.6573,-2.6691,-2.6691,-2.6691,-2.6691,-2.6691,-2.6741,-2.6791,-2.6672,-2.6705,-3.991,-4.0096,-3.9926,-3.9174,-3.7932,-3.584,-3.1931,0.0,0.0,0.0,0.0,-2.2481,-2.1739,-2.4359,0.0,0.0,0.0,0.0,0.0,0.0,0.0,0.0,0.0,0.0,0.0,0.0,0.0,0.0,0.0,0.0,-4.4615,-4.4615,-4.4615,-4.4615,-4.4615,-4.4615,-4.4615,-4.4615,-4.4615,-4.4615,-4.4615,-4.4615,-4.4615,-4.4615,-4.3944,-4.2811,0.0,0.0,-4.0595,-4.0248,-4.0096,-4.0096,-4.0096,-4.0096,-4.0096,-4.0096,-4.0096,-4.0096,-4.0096,-4.0096,-4.0096,-4.0096,-3.9089,-3.7905,-3.7905,-3.6817,-3.56,-3.56,-3.56,-3.56,-3.56,-3.56,-3.56,-3.56,-3.56,-3.5278,-3.4167,-3.3372,-3.2527,-3.141,-3.119,-3.119,-3.119,-3.119,-3.1072,-3.0734,-3.004,-2.9431,-2.9041,-2.7994,-2.7131,-2.6742,-2.6691,-2.6691,-2.6691,-2.6691,-2.6691,-2.6691,-2.6691,-2.6691,-2.6691,-2.6691,-2.6691,-2.6691,-2.6691,-2.6691,-2.6691,-2.6691,-2.6691,-2.6691,-2.6691,-2.6691,-3.9723,-3.9977,-3.9893,-3.8988,-3.72,-3.4488,-3.0063,-2.6912,0.0,0.0,-2.0057,-2.0368,-2.0455,0.0,-2.5798,0.0,-3.0482,0.0,0.0,0.0,0.0,0.0,0.0,0.0,0.0,0.0,0.0,0.0,0.0,0.0,0.0,-4.4615,-4.4615,-4.4615,-4.4615,-4.4615,-4.4615,-4.4615,-4.4615,-4.4615,-4.4615,-4.4615,-4.4598,-4.4429,-4.3616,-4.2286,0.0,0.0,0.0,-4.0096,-4.0096,-4.0096,-4.0096,-4.0096,-4.0096,-4.0096,-4.0096,-4.007,-3.9901,-3.9833,-3.9808,-3.9653,-3.8832,-3.7905,-3.7905,-3.6817,-3.56,-3.56,-3.56,-3.56,-3.56,-3.56,-3.56,-3.56,-3.56,-3.5194,-3.3728,-3.3406,-3.2966,-3.1478,-3.119,-3.119,-3.119,-3.119,-3.119,-3.119,-3.0581,-3.0108,-3.0108,-2.8889,-2.7774,-2.7012,-2.6793,-2.6691,-2.6691,-2.6691,-2.6691,-2.6691,-2.6691,-2.6691,-2.6691,-2.6691,-2.6691,-2.6691,-2.6691,-2.6691,-2.6691,-2.6691,-2.6691,-2.6691,-2.6691,-2.6691,-3.9073,-3.9605,-3.9774,-3.8345,-3.6382,-3.3594,-2.8914,0.0,0.0,-1.9502,-1.919,-1.961,-1.9981,-2.1658,-2.4048,-2.7366,0.0,-3.2138,0.0,0.0,0.0,0.0,0.0,0.0,0.0,0.0,0.0,0.0,0.0,0.0,0.0,-4.4615,-4.4615,-4.4615,-4.4615,-4.4615,-4.4615,-4.4615,-4.4615,-4.4615,-4.4615,-4.4615,-4.4581,-4.3842,-4.3081,-4.2252,0.0,0.0,0.0,-4.0096,-4.0096,-4.0096,-4.0096,-4.0096,-4.0096,-4.0096,-4.0096,-3.9995,-3.9246,-3.9016,-3.8908,-3.8234,-3.7959,-3.7905,-3.7905,-3.6817,-3.56,-3.56,-3.56,-3.56,-3.56,-3.56,-3.56,-3.56,-3.56,-3.5194,-3.3728,-3.3406,-3.2966,-3.1478,-3.119,-3.119,-3.119,-3.119,-3.119,-3.119,-3.0581,-3.0108,-3.0108,-2.9381,-2.8569,-2.7773,-2.7097,-2.6691,-2.6691,-2.6691,-2.6691,-2.6691,-2.6691,-2.6691,-2.6691,-2.6691,-2.6691,-2.6691,-2.6691,-2.6691,-2.6691,-2.6691,-2.6691,-2.6691,-2.6691,-2.6691,-3.7973,-3.8548,-3.8531,-3.7483,-3.5051,-3.198,-2.8496,0.0,-2.1132,-1.8616,-1.8159,-1.8449,-1.9244,-2.05,-2.2538,-2.5932,-2.6623,-2.8552,-3.3778,0.0,0.0,0.0,0.0,0.0,0.0,0.0,0.0,0.0,0.0,0.0,0.0,-4.4615,-4.4615,-4.4615,-4.4093,-4.4064,-4.4598,-4.4064,-4.4064,-4.4615,-4.4615,-4.4361,-4.3876,-4.3555,-4.2777,-4.1627,0.0,0.0,0.0,-4.0096,-4.0096,-4.0096,-4.0096,-4.0096,-4.0045,-3.9558,-3.9368,-3.9262,-3.8497,-3.8246,-3.8206,-3.7892,-3.7252,-3.6593,-3.6593,-3.5853,-3.4988,-3.4988,-3.4988,-3.5098,-3.5492,-3.5316,-3.4988,-3.4988,-3.4988,-3.4722,-3.3683,-3.3436,-3.298,-3.1529,-3.1237,-3.119,-3.119,-3.119,-3.119,-3.119,-3.0954,-3.0768,-3.0768,-3.0125,-2.9364,-2.8602,-2.7841,-2.7182,-2.6725,-2.6691,-2.6691,-2.6691,-2.6691,-2.6691,-2.6691,-2.6691,-2.6691,-2.6691,-2.6691,-2.6691,-2.6691,-2.6691,-2.6691,-2.6691,-2.6691,-2.6691,-3.6332,-3.706,-3.711,-3.6569,-3.3876,-3.0684,0.0,-2.3909,-2.012,-1.81,-1.7425,-1.7551,-1.8778,-1.9776,-2.1424,-2.4448,-2.4881,-2.642,-3.1007,0.0,0.0,0.0,0.0,0.0,0.0,0.0,0.0,0.0,0.0,0.0,0.0,-4.4224,-4.4224,-4.4224,-4.3366,-4.3199,-4.3827,-4.3229,-4.3229,-4.3827,-4.3875,-4.3574,-4.3037,-4.2854,-4.2185,0.0,0.0,0.0,0.0,-3.9601,-3.9558,-3.9731,-3.9506,-3.9428,-3.9358,-3.8789,-3.858,-3.8469,-3.7703,-3.7456,-3.7397,-3.7175,-3.6173,-3.5043,-3.5043,-3.4702,-3.4309,-3.4309,-3.4309,-3.4406,-3.4887,-3.4657,-3.4309,-3.4309,-3.4309,-3.4113,-3.3362,-3.3166,-3.2718,-3.1301,-3.1156,-3.1109,-3.0733,-3.0818,-3.0918,-3.0918,-3.0781,-3.072,-3.0898,-3.0326,-2.9606,-2.8876,-2.8108,-2.7385,-2.6759,-2.6691,-2.6691,-2.6691,-2.6691,-2.6691,-2.6691,-2.6691,-2.6691,-2.6691,-2.6691,-2.6691,-2.6691,-2.6691,-2.6691,-2.6691,-2.6691,-2.6691,-3.4138,-3.5081,-3.5616,-3.5616,-3.3075,-2.9903,0.0,-2.3565,-2.012,-1.81,-1.7174,-1.7167,-1.8721,-1.9544,-2.0768,-2.3053,-2.4644,-2.664,-2.9683,0.0,0.0,0.0,0.0,0.0,0.0,0.0,0.0,0.0,0.0,0.0,0.0,0.0,-4.3306,-4.3306,-4.2458,-4.2029,-4.2029,-4.2029,-4.2029,-4.2013,-4.2143,-4.2219,-4.2182,-4.1516,0.0,0.0,0.0,0.0,0.0,-3.8458,-3.8246,-3.8854,-3.8121,-3.7806,-3.7822,-3.7806,-3.7806,-3.7706,-3.6873,-3.66,-3.6492,-3.575,-3.4623,-3.353,-3.353,-3.3555,-3.3608,-3.3608,-3.3608,-3.3608,-3.3608,-3.3624,-3.3608,-3.3608,-3.3608,-3.3406,-3.2668,-3.2508,-3.2093,-3.0671,-3.0881,-3.0915,-2.9647,-2.9913,-3.0293,-3.0293,-2.9805,-2.9629,-3.023,-2.9783,-2.9118,-2.8393,-2.771,-2.7143,-2.6725,-2.6691,-2.6691,-2.6691,-2.6691,-2.6691,-2.6691,-2.6691,-2.6691,-2.6691,-2.6691,-2.6691,-2.6691,-2.6691,-2.6691,-2.6691,-2.6691,-2.6691,-3.0465,-3.1275,-3.1712,-3.1207,-2.9026,-2.6527,-2.4754,-2.1746,-1.8894,-1.7339,-1.6698,-1.6727,-1.7723,-1.8877,-2.0726,-2.4029,-2.5563,0.0,0.0,0.0,0.0,0.0,0.0,0.0,0.0,0.0,0.0,0.0,0.0,0.0,0.0,0.0,-4.1804,-4.2395,-4.1576,-4.1412,-4.1997,-4.0971,-4.0734,-4.1309,-4.0895,-4.0448,-3.9949,-3.9727,0.0,0.0,0.0,0.0,0.0,-3.8007,-3.7921,-3.8121,-3.7892,-3.7793,-3.7719,-3.7174,-3.6964,-3.6889,-3.6117,-3.5831,-3.5723,-3.5031,-3.4203,-3.341,-3.2961,-3.2863,-3.2922,-3.2922,-3.3235,-3.3391,-3.2407,-3.2544,-3.2922,-3.2922,-3.2922,-3.2859,-3.2613,-3.2529,-3.2103,-3.0723,-3.0593,-3.0422,-2.9541,-2.9563,-2.9673,-2.9673,-2.9518,-2.9473,-2.9651,-2.9518,-2.9112,-2.8371,-2.8121,-2.7667,-2.6893,-2.6474,-2.6349,-2.6674,-2.6691,-2.6691,-2.6691,-2.6691,-2.6691,-2.6691,-2.6691,-2.6691,-2.6691,-2.6691,-2.6691,-2.6691,-2.6691,-2.6691,-2.7622,-2.8467,-2.8735,-2.8405,-2.6403,-2.4186,-2.2943,-2.0407,-1.8012,-1.692,-1.6482,-1.6556,-1.7436,-1.8635,-2.042,-2.3191,-2.4889,0.0,0.0,0.0,0.0,0.0,0.0,0.0,0.0,0.0,0.0,0.0,0.0,0.0,0.0,0.0,-4.0437,-4.0622,-4.0362,-4.0343,-4.0638,-3.9683,-3.9344,-3.9623,-3.9251,-3.8836,-3.8394,0.0,0.0,0.0,0.0,0.0,0.0,-3.7175,-3.7086,-3.7308,-3.7025,-3.692,-3.686,-3.6384,-3.6196,-3.6117,-3.5668,-3.5504,-3.5385,-3.4728,-3.3858,-3.3006,-3.2318,-3.2157,-3.216,-3.216,-3.2489,-3.261,-3.1739,-3.1853,-3.216,-3.216,-3.216,-3.216,-3.216,-3.2137,-3.1814,-3.0727,-3.0658,-3.0422,-2.9279,-2.9289,-2.9343,-2.909,-2.8857,-2.881,-2.9019,-2.8857,-2.8545,-2.8077,-2.7819,-2.7504,-2.7123,-2.6909,-2.6706,-2.6535,-2.6732,-2.6837,-2.6786,-2.6552,-2.6505,-2.6691,-2.6691,-2.6691,-2.6691,-2.6691,-2.6691,-2.6691,-2.6691,-2.6691,0.0,-2.6268,-2.6354,-2.6591,-2.4762,-2.2607,-2.1544,-1.94,0.0,-1.6756,-1.648,-1.6653,-1.7748,-1.8819,-1.9974,-2.1343,-2.3342,0.0,0.0,0.0,0.0,0.0,0.0,0.0,0.0,0.0,0.0,0.0,0.0,0.0,0.0,0.0,0.0,-3.8352,-3.8945,-3.8975,-3.8317,-3.8287,-3.7943,-3.733,-3.7403,-3.7466,-3.7435,0.0,0.0,0.0,0.0,0.0,0.0,-3.6085,-3.5894,-3.6446,-3.575,-3.5504,-3.5504,-3.5504,-3.5504,-3.5504,-3.5504,-3.5504,-3.5385,-3.4668,-3.3544,-3.2363,-3.1705,-3.1511,-3.1511,-3.1511,-3.1511,-3.1511,-3.1511,-3.1511,-3.1511,-3.1511,-3.1511,-3.1511,-3.1511,-3.1511,-3.1301,-3.0642,-3.0943,-3.0757,-2.8922,-2.9063,-2.9203,-2.8548,-2.7944,-2.781,-2.8367,-2.7959,-2.76,-2.76,-2.7046,-2.6835,-2.7303,-2.7731,-2.7485,-2.6342,-2.6805,-2.7054,-2.6926,-2.6379,-2.6287,-2.6724,-2.6775,-2.6793,-2.6776,-2.6776,-2.6742,-2.6691,-2.6691,-2.6691,-2.1181,0.0,-2.2304,-2.151,-2.0603,-1.9634,0.0,-1.7639,-1.6756,-1.6129,-1.6368,-1.704,-1.8144,-1.9189,-2.1001,-2.4462,-2.6152,0.0,0.0,0.0,0.0,0.0,0.0,0.0,0.0,0.0,0.0,0.0,0.0,0.0,0.0,0.0,0.0,-3.7659,-3.7793,-3.7793,-3.7644,-3.7165,-3.6851,-3.6701,-3.621,-3.5991,-3.5976,0.0,0.0,0.0,0.0,0.0,-3.6022,-3.5651,-3.5619,-3.5718,-3.5569,-3.5504,-3.5504,-3.5504,-3.5504,-3.5504,-3.5504,-3.5504,-3.531,-3.4113,-3.317,-3.2363,-3.1705,-3.1511,-3.1511,-3.1511,-3.1511,-3.1511,-3.1511,-3.1511,-3.1511,-3.1511,-3.1511,-3.1511,-3.1511,-3.1511,-3.1301,-3.0642,-3.0603,-3.0265,-2.8843,-2.8722,-2.857,-2.7916,-2.7685,-2.7635,-2.7785,-2.7685,-2.76,-2.76,-2.7465,-2.7215,-2.6811,-2.6786,-2.6845,-2.6962,-2.7091,-2.7153,-2.7116,-2.6992,-2.6957,-2.7078,-2.7547,-2.7714,-2.7536,-2.7536,-2.7249,-2.6691,-2.6691,-2.6691,-1.8882,-2.0318,-2.1501,-2.0671,-2.0068,-1.9438,-1.8572,-1.7406,-1.6379,-1.5902,-1.6602,-1.7492,-1.8116,-2.0047,-2.2304,-2.4558,-2.6842,0.0,0.0,0.0,0.0,0.0,0.0,0.0,0.0,0.0,0.0,0.0,0.0,0.0,0.0,0.0,0.0,0.0,-3.6686,-3.6686,-3.6985,-3.6656,-3.6342,-3.6028,-3.5669,-3.5504,-3.5504,0.0,0.0,0.0,0.0,0.0,-3.5504,-3.5504,-3.5504,-3.5504,-3.5504,-3.5504,-3.5504,-3.5504,-3.5504,-3.5504,-3.5504,-3.5295,-3.4861,-3.3829,-3.3051,-3.2363,-3.1705,-3.1511,-3.1511,-3.1511,-3.1511,-3.1511,-3.1511,-3.1511,-3.1511,-3.1511,-3.1511,-3.1511,-3.1511,-3.1511,-3.1391,-3.1017,-3.0943,-3.0629,-2.9639,-2.9475,-2.925,-2.8618,-2.8259,-2.8064,-2.8064,-2.7794,-2.76,-2.76,-2.76,-2.745,-2.7091,-2.6983,-2.6925,-2.6939,-2.7183,-2.7315,-2.7293,-2.7011,-2.6945,-2.7201,-2.7798,-2.805,-2.7952,-2.7851,-2.7587,-2.7199,-2.686,-2.6691,-1.807,-2.0166,-2.211,-2.1305,-2.0852,-2.0393,-1.9608,-1.8027,-1.6609,-1.6258,-1.7186,-1.8136,-1.8403,-2.1096,0.0,0.0,0.0,0.0,0.0,0.0,0.0,0.0,0.0,0.0,0.0,0.0,0.0,0.0,0.0,0.0,0.0,0.0,0.0,0.0,-3.5804,-3.5774,-3.6327,-3.6342,-3.6058,-3.5504,-3.5504,-3.5504,-3.5504,-3.5504,0.0,0.0,0.0,0.0,-3.5504,-3.5504,-3.5504,-3.5504,-3.5504,-3.5504,-3.5504,-3.5504,-3.5504,-3.5504,-3.5504,-3.513,-3.4533,-3.3739,-3.3125,-3.2497,-3.1735,-3.1511,-3.1511,-3.1511,-3.1511,-3.1511,-3.1511,-3.1511,-3.1511,-3.1511,-3.1511,-3.1511,-3.1511,-3.1511,-3.1511,-3.1511,-3.1511,-3.1286,-3.0627,-3.0507,-3.0298,-2.9696,-2.9101,-2.8712,-2.8607,-2.8109,-2.7705,-2.76,-2.76,-2.76,-2.76,-2.76,-2.736,-2.6806,-2.7245,-2.7489,-2.7434,-2.688,-2.6843,-2.7391,-2.7902,-2.8196,-2.826,-2.8104,-2.8006,-2.7959,-2.7334,-2.6995,-1.9309,-2.0944,-2.1754,-1.9462,-1.9745,-2.0334,-1.9312,-1.881,-1.8457,-1.8081,0.0,0.0,0.0,-2.1956,-2.3835,0.0,0.0,0.0,0.0,0.0,0.0,0.0,0.0,0.0,0.0,0.0,0.0,0.0,0.0,0.0,0.0,0.0,0.0,0.0,0.0,-3.5549,-3.5654,-3.5654,-3.5609,-3.5504,-3.5504,-3.5504,-3.5504,-3.5504,-3.5504,0.0,0.0,-3.5504,-3.5504,-3.5504,-3.5504,-3.5504,-3.5504,-3.5504,-3.5504,-3.5504,-3.5504,-3.5504,-3.5504,-3.5429,-3.5145,-3.3903,-3.3425,-3.3125,-3.1869,-3.1511,-3.1511,-3.1511,-3.1511,-3.1511,-3.1511,-3.1511,-3.1511,-3.1511,-3.1511,-3.1511,-3.1511,-3.1511,-3.1511,-3.1511,-3.1511,-3.1286,-3.0627,-3.0507,-3.0298,-2.9696,-2.9517,-2.922,-2.8667,-2.8502,-2.8218,-2.766,-2.76,-2.76,-2.76,-2.76,-2.7555,-2.745,-2.7535,-2.7585,-2.756,-2.747,-2.7689,-2.8295,-2.8373,-2.8628,-2.9041,-2.9006,-2.8932,-2.8824,-2.8705,-2.8365,-1.8628,-2.023,-2.1421,-2.0213,-2.1326,-2.2642,-2.2353,-2.1374,-2.052,-2.0558,0.0,0.0,0.0,0.0,0.0,0.0,0.0,0.0,0.0,0.0,0.0,0.0,0.0,0.0,0.0,0.0,0.0,0.0,0.0,0.0,0.0,0.0,0.0,0.0,0.0,-3.5504,-3.5504,-3.5504,-3.5504,-3.5504,-3.5504,-3.5504,-3.5504,-3.5504,-3.5504,-3.5504,0.0,-3.5504,-3.5504,-3.5504,-3.5504,-3.5504,-3.5504,-3.5504,-3.5504,-3.5504,-3.5504,-3.5504,-3.5504,-3.5265,-3.4786,-3.3814,-3.3245,-3.2781,-3.1795,-3.1511,-3.1511,-3.1511,-3.1511,-3.1511,-3.1511,-3.1511,-3.1511,-3.1511,-3.1511,-3.1511,-3.1511,-3.1511,-3.1511,-3.1511,-3.1511,-3.1406,-3.1077,-3.1032,-3.0943,-3.0687,-3.0313,-2.9968,-2.9669,-2.9026,-2.8472,-2.8158,-2.7824,-2.76,-2.76,-2.76,-2.76,-2.76,-2.76,-2.76,-2.76,-2.76,-2.7735,-2.7993,-2.8319,-2.86,-2.8822,-2.8742,-2.8681,-2.8615,-2.8217,-2.7878,-1.8222,-1.9587,-2.1055,-2.158,-2.2984,-2.4412,-2.5063,-2.3912,-2.2805,-2.3194,0.0,0.0,0.0,0.0,0.0,0.0,0.0,0.0,0.0,0.0,0.0,0.0,0.0,0.0,0.0,0.0,0.0,0.0,0.0,0.0,0.0,0.0,0.0,0.0,0.0,0.0,-3.5504,-3.5504,-3.5504,-3.5504,-3.5504,-3.5504,-3.5504,-3.5504,-3.5504,-3.5504,-3.5504,-3.5504,-3.5504,-3.5504,-3.5504,-3.5504,-3.5504,-3.5504,-3.5504,-3.5504,-3.5504,-3.5489,-3.5325,-3.4921,-3.4369,-3.3529,-3.2916,-3.2363,-3.1705,-3.1511,-3.1511,-3.1511,-3.1511,-3.1511,-3.1511,-3.1511,-3.1511,-3.1511,-3.1511,-3.1511,-3.1511,-3.1511,-3.1511,-3.1511,-3.1511,-3.1511,-3.1511,-3.1511,-3.1511,-3.1511,-3.1062,-3.0687,-3.0522,-2.9654,-2.8936,-2.8637,-2.8128,-2.7764,-2.76,-2.76,-2.76,-2.76,-2.76,-2.76,-2.76,-2.76,-2.76,-2.76,-2.8042,-2.8359,-2.8487,-2.8392,-2.8414,-2.8531,-2.7998,-2.7635,-1.9461,-1.9951,-2.0589,-2.2716,-2.3359,-2.3849,-2.5255,-2.5441,-2.5429,-2.5756,0.0,0.0,0.0,0.0,0.0,0.0,0.0,0.0,0.0,0.0,0.0,0.0,0.0,0.0,0.0,0.0,0.0,0.0,0.0,0.0,0.0,0.0,0.0,0.0,0.0,0.0,-3.5504,-3.5504,-3.5504,-3.5504,-3.5504,-3.5504,-3.5504,-3.5504,-3.5504,-3.5504,-3.5504,-3.5504,-3.5504,-3.5504,-3.5504,-3.5504,-3.5504,-3.5504,-3.5504,-3.5504,-3.5504,-3.5415,-3.4771,-3.4548,-3.4294,-3.2991,-3.2557,-3.2363,-3.1705,-3.1511,-3.1511,-3.1511,-3.1511,-3.1511,-3.1511,-3.1511,-3.1511,-3.1511,-3.1511,-3.1511,-3.1511,-3.1511,-3.1511,-3.1511,-3.1511,-3.1511,-3.1511,-3.1511,-3.1511,-3.1511,-3.1466,-3.1197,-3.0582,-3.0417,-2.9909,-2.8727,-2.8562,-2.8263,-2.7645,-2.76,-2.76,-2.76,-2.76,-2.76,-2.76,-2.76,-2.76,-2.76,-2.7635,-2.7959,-2.8487,-2.8488,-2.8771,-2.9326,-2.9256,-2.8946,-1.8358,-1.9672,-2.1059,-2.2395,-2.3748,-2.5287,-2.7249,-2.7706,-2.8144,-2.965,-2.9209,0.0,0.0,0.0,0.0,0.0,0.0,0.0,0.0,0.0,0.0,0.0,0.0,0.0,0.0,0.0,0.0,0.0,0.0,0.0,0.0,0.0,0.0,0.0,0.0,0.0,0.0,-3.5504,-3.5504,-3.5504,-3.5504,-3.5504,-3.5504,-3.5504,-3.5504,-3.5504,-3.5504,-3.5504,-3.5504,-3.5504,-3.5504,-3.5504,-3.5504,-3.5504,-3.5504,-3.5504,-3.5504,-3.54,-3.4711,-3.4234,-3.3724,-3.2811,-3.2213,-3.1824,-3.1585,-3.1511,-3.1511,-3.1511,-3.1511,-3.1511,-3.1511,-3.1511,-3.1511,-3.1511,-3.1511,-3.1511,-3.1511,-3.1511,-3.1511,-3.1511,-3.1511,-3.1511,-3.1511,-3.1511,-3.1511,-3.1511,-3.1511,-3.1406,-3.1152,-3.0776,-3.0313,-2.9834,-2.9071,-2.8323,-2.766,-2.76,-2.76,-2.76,-2.76,-2.76,-2.76,-2.76,-2.76,-2.76,-2.76,-2.771,-2.7959,-2.7959,-2.8067,-2.828,-2.828,-2.8149,-1.7732,-1.9283,-2.1109,-2.2344,-2.3968,-2.6031,-2.9027,-2.9517,-2.9924,-3.1887,-3.1075,-3.02,0.0,0.0,0.0,0.0,0.0,0.0,0.0,0.0,0.0,0.0,0.0,0.0,0.0,0.0,0.0,0.0,0.0,0.0,0.0,0.0,0.0,0.0,0.0,0.0,0.0,-3.5504,-3.5504,-3.5504,-3.5504,-3.5504,-3.5504,-3.5504,-3.5504,-3.5504,-3.5504,-3.5504,-3.5504,-3.5504,-3.5504,-3.5504,-3.5504,-3.5504,-3.5504,-3.5504,-3.537,-3.5085,-3.4397,-3.3739,-3.308,-3.2392,-3.1869,-3.1511,-3.1511,-3.1511,-3.1511,-3.1511,-3.1511,-3.1511,-3.1511,-3.1511,-3.1511,-3.1511,-3.1511,-3.1511,-3.1511,-3.1511,-3.1511,-3.1511,-3.1511,-3.1511,-3.1511,-3.1511,-3.1511,-3.1511,-3.1511,-3.1511,-3.1511,-3.1092,-3.0746,-3.0522,-2.9355,-2.8412,-2.7959,-2.772,-2.76,-2.76,-2.76,-2.76,-2.76,-2.76,-2.76,-2.76,-2.76,-2.76,-2.76,-2.76,-2.76,-2.76,-2.76,-2.76,-1.7986,-1.8882,-2.0572,-2.2835,-2.3983,-2.5709,-3.0176,-3.0632,-3.0548,-3.2022,-3.1842,-3.1401,-3.1398,0.0,0.0,0.0,0.0,0.0,0.0,0.0,0.0,0.0,0.0,0.0,0.0,0.0,0.0,0.0,0.0,0.0,0.0,0.0,0.0,0.0,0.0,0.0,0.0,-3.5504,-3.5504,-3.5489,-3.5504,-3.5504,-3.5504,-3.5504,-3.5504,-3.5504,-3.5504,-3.5504,-3.5504,-3.5489,-3.5489,-3.5489,-3.5489,-3.5489,-3.5489,-3.5489,-3.5055,-3.4399,-3.3709,-3.3066,-3.2378,-3.172,-3.1511,-3.1511,-3.1511,-3.1511,-3.1511,-3.1511,-3.1511,-3.1511,-3.1511,-3.1511,-3.1511,-3.1511,-3.1511,-3.1511,-3.1511,-3.1511,-3.1511,-3.1511,-3.1511,-3.1511,-3.1511,-3.1511,-3.1511,-3.1511,-3.1511,-3.1511,-3.1511,-3.1511,-3.1241,-3.0567,-2.937,-2.8622,-2.8607,-2.8004,-2.76,-2.76,-2.76,-2.76,-2.76,-2.76,-2.76,-2.76,-2.76,-2.76,-2.76,-2.76,-2.76,-2.76,-2.76,-2.76,-1.723,-1.9266,-2.189,-2.3105,0.0,0.0,0.0,-3.1427,0.0,0.0,-3.3039,-3.2224,0.0,0.0,0.0,0.0,0.0,0.0,0.0,0.0,0.0,0.0,0.0,0.0,0.0,0.0,0.0,0.0,0.0,0.0,0.0,0.0,0.0,0.0,0.0,0.0,0.0,0.0,-3.5265,-3.4786,-3.5265,-3.5504,-3.5504,-3.5504,-3.5504,-3.5504,-3.5504,-3.5504,-3.5474,-3.4981,-3.4786,-3.4786,-3.4786,-3.4786,-3.4786,-3.4786,-3.4352,-3.3694,-3.3036,-3.2677,-3.2378,-3.172,-3.1511,-3.1511,-3.1511,-3.1511,-3.1511,-3.1511,-3.1511,-3.1511,-3.1511,-3.1511,-3.1511,-3.1511,-3.1511,-3.1511,-3.1511,-3.1511,-3.1511,-3.1511,-3.1511,-3.1511,-3.1511,-3.1511,-3.1511,-3.1511,-3.1511,-3.1511,-3.1511,-3.1511,-3.1241,-3.0567,-3.0163,-2.9759,-2.9352,-2.8682,-2.8293,-2.8293,-2.7869,-2.76,-2.76,-2.76,-2.76,-2.76,-2.76,-2.76,-2.76,-2.76,-2.76,-2.76,-2.76,-2.76,-1.8448,-2.0581,-2.3139,-2.4746,-2.708,-2.9619,-3.1968,0.0,0.0,0.0,0.0,0.0,0.0,0.0,0.0,0.0,0.0,0.0,0.0,0.0,0.0,0.0,0.0,0.0,0.0,0.0,0.0,0.0,0.0,0.0,0.0,0.0,0.0,0.0,0.0,0.0,0.0,0.0,0.0,-3.4129,-3.4502,-3.4711,-3.4711,-3.4981,-3.525,-3.5489,-3.522,-3.51,-3.504,-3.4367,-3.4114,-3.4114,-3.4114,-3.4114,-3.4114,-3.4114,-3.3664,-3.3051,-3.2647,-3.2318,-3.2034,-3.163,-3.1511,-3.1511,-3.1511,-3.1511,-3.1511,-3.1511,-3.1511,-3.1438,-3.1117,-3.1029,-3.1087,-3.1409,-3.1511,-3.1511,-3.1511,-3.1511,-3.1511,-3.1511,-3.1511,-3.1511,-3.1511,-3.1219,-3.1117,-3.1438,-3.1511,-3.1511,-3.1511,-3.1511,-3.1346,-3.0928,-3.0672,-3.0357,-2.9983,-2.937,-2.8996,-2.8996,-2.8353,-2.8004,-2.8004,-2.775,-2.76,-2.76,-2.76,-2.76,-2.76,-2.76,-2.76,-2.76,-2.76,-2.76,-2.0615,-2.2223,-2.4171,-2.6995,-2.8518,0.0,-3.3525,-3.4387,-3.4538,-3.4658,0.0,0.0,0.0,0.0,0.0,0.0,0.0,0.0,0.0,0.0,0.0,0.0,0.0,0.0,0.0,0.0,0.0,0.0,0.0,0.0,0.0,0.0,0.0,0.0,0.0,0.0,0.0,0.0,-3.3469,0.0,-3.3469,-3.3469,-3.3425,-3.4114,-3.4726,-3.528,-3.4666,-3.4384,-3.4279,-3.3649,-3.341,-3.341,-3.341,-3.341,-3.341,-3.341,-3.2991,-3.2392,-3.2392,-3.1974,-3.1409,-3.1467,-3.1438,-3.1409,-3.1467,-3.1511,-3.1467,-3.1409,-3.138,-3.119,-3.0389,-3.0178,-3.0359,-3.1087,-3.1278,-3.1278,-3.138,-3.138,-3.138,-3.138,-3.138,-3.138,-3.138,-3.0718,-3.045,-3.1278,-3.1322,-3.1307,-3.138,-3.138,-3.138,-3.138,-3.0914,-3.0597,-3.0597,-3.0028,-2.9696,-2.9696,-2.9056,-2.8682,-2.8682,-2.8004,-2.76,-2.76,-2.76,-2.76,-2.76,-2.76,-2.76,-2.76,-2.76,-2.76,-1.9299,-2.1783,0.0,-2.6488,-2.9281,-3.1802,-3.2598,-3.3681,-3.4687,0.0,0.0,0.0,0.0,0.0,0.0,0.0,0.0,0.0,0.0,0.0,0.0,0.0,0.0,0.0,0.0,0.0,0.0,0.0,0.0,0.0,0.0,0.0,0.0,0.0,0.0,0.0,-3.3499,-3.3499,-3.3245,0.0,-3.3245,-3.3215,-3.2751,-3.341,-3.3784,-3.3918,-3.3769,-3.341,-3.2931,-3.2781,-3.2721,-3.2721,-3.2721,-3.2721,-3.2721,-3.2721,-3.2273,-3.172,-3.172,-3.1205,-3.0644,-3.1278,-3.1058,-3.0673,-3.1307,-3.1511,-3.138,-3.0748,-3.0554,-3.0359,-2.9504,-2.9286,-2.9317,-2.9504,-2.9535,-2.9721,-3.0419,-3.0554,-3.0554,-3.0554,-3.0554,-3.0554,-3.0554,-2.9858,-2.9566,-3.0419,-2.9981,-2.9797,-3.0464,-3.0554,-3.0554,-3.0554,-3.0984,-3.1286,-3.1286,-3.0687,-3.0313,-3.0313,-2.9714,-2.937,-2.937,-2.8244,-2.76,-2.76,-2.76,-2.76,-2.76,-2.76,-2.76,-2.76,-2.76,-2.76,-1.9616,-2.1952,0.0,-2.7604,0.0,-3.2395,-3.275,-3.3423,-3.4083,0.0,0.0,0.0,0.0,0.0,0.0,0.0,0.0,0.0,0.0,0.0,0.0,0.0,0.0,0.0,0.0,0.0,0.0,0.0,0.0,0.0,0.0,0.0,0.0,0.0,0.0,-3.2557,-3.2557,-3.2557,-3.2377,-3.2019,-3.2392,-3.2348,-3.2049,-3.3051,-3.332,-3.3021,-3.3021,-3.2826,-3.2497,-3.2138,-3.2019,-3.2019,-3.2019,-3.2019,-3.2019,-3.2019,-3.1575,-3.0925,-3.0925,-3.0389,-2.9766,-3.0178,-3.0011,-2.9766,-3.0178,-3.0299,-3.0238,-2.9797,-2.9659,-2.9473,-2.8588,-2.8363,-2.8363,-2.8363,-2.8716,-2.9129,-2.9566,-2.9659,-2.9659,-2.9659,-2.9659,-2.9659,-2.9659,-2.9286,-2.9002,-2.9066,-2.9034,-2.916,-2.9628,-2.9659,-2.9659,-2.9659,-3.0042,-3.0464,-3.0896,-3.0234,-2.9972,-3.0367,-2.9823,-2.9442,-2.9442,-2.8571,-2.8094,-2.8094,-2.7764,-2.76,-2.76,-2.76,-2.76,-2.76,-2.76,-2.76,-1.987,-2.207,-2.4611,-2.8856,-3.092,0.0,-3.2848,-3.3119,0.0,0.0,0.0,0.0,0.0,0.0,0.0,0.0,0.0,0.0,0.0,0.0,0.0,0.0,0.0,0.0,0.0,0.0,0.0,0.0,0.0,0.0,0.0,0.0,0.0,-3.2318,-3.1795,-3.1511,-3.1511,-3.1511,-3.1511,-3.1511,-3.1511,-3.1511,-3.154,-3.2662,-3.2856,-3.2318,-3.2318,-3.2318,-3.2273,-3.1735,-3.1511,-3.1511,-3.1511,-3.1511,-3.1511,-3.1511,-3.0999,-3.0299,-3.0299,-2.9628,-2.8812,-2.8939,-2.8907,-2.8812,-2.8939,-2.9002,-2.8971,-2.8812,-2.878,-2.8588,-2.7736,-2.7484,-2.7484,-2.7484,-2.8051,-2.862,-2.8748,-2.878,-2.878,-2.878,-2.878,-2.8716,-2.8588,-2.8556,-2.8363,-2.7802,-2.8214,-2.862,-2.8748,-2.878,-2.878,-2.878,-2.8907,-2.9286,-3.0011,-2.9411,-2.9317,-3.0042,-2.9555,-2.924,-2.924,-2.8675,-2.837,-2.837,-2.7861,-2.76,-2.76,-2.76,-2.76,-2.76,-2.76,-2.76,-1.78,0.0,-2.5117,0.0,-2.977,-3.0598,0.0,0.0,0.0,0.0,0.0,0.0,0.0,0.0,0.0,0.0,0.0,0.0,0.0,0.0,0.0,0.0,0.0,0.0,0.0,0.0,0.0,0.0,0.0,0.0,0.0,0.0,-3.163,-3.163,-3.1555,-3.1511,-3.1511,-3.1511,-3.1511,-3.1511,-3.1511,-3.1511,-3.1511,-3.169,-3.172,-3.163,-3.163,-3.163,-3.163,-3.154,-3.1511,-3.1511,-3.1511,-3.1511,-3.1511,-3.1511,-3.0999,-3.0299,-3.0299,-2.9223,-2.7986,-2.8748,-2.8492,-2.8019,-2.878,-2.9002,-2.8844,-2.8084,-2.7855,-2.7703,-2.6871,-2.6658,-2.6658,-2.6658,-2.6748,-2.704,-2.7736,-2.7855,-2.7855,-2.7855,-2.7855,-2.7637,-2.6939,-2.685,-2.704,-2.7604,-2.7196,-2.7095,-2.7769,-2.7855,-2.7855,-2.7855,-2.8556,-2.9066,-2.916,-2.9066,-2.9066,-2.916,-2.9077,-2.9035,-2.9035,-2.7973,-2.7376,-2.7376,-2.753,-2.76,-2.76,-2.76,-2.76,-2.76,-2.76,-2.76,-1.8307,-2.1109,-2.3985,0.0,-2.8604,-2.9668,-3.0412,0.0,0.0,0.0,0.0,0.0,0.0,0.0,0.0,0.0,0.0,0.0,0.0,0.0,0.0,0.0,0.0,0.0,0.0,0.0,0.0,0.0,0.0,0.0,0.0,-3.1511,-3.1511,-3.1511,-3.1511,0.0,-3.1511,-3.1511,-3.1511,-3.1511,-3.1511,-3.1511,-3.1511,-3.1511,-3.1511,-3.1511,-3.1511,-3.1511,-3.1511,-3.1511,-3.1511,-3.1511,-3.1511,-3.1511,-3.1438,-3.0999,-3.0299,-2.9504,-2.9002,-2.8051,-2.7095,-2.7484,-2.7351,-2.7095,-2.7484,-2.7604,-2.7517,-2.7129,-2.704,-2.6939,-2.6589,-2.6499,-2.6499,-2.6499,-2.6499,-2.6589,-2.6939,-2.704,-2.704,-2.704,-2.704,-2.6905,-2.6555,-2.6499,-2.6624,-2.6973,-2.6714,-2.6624,-2.6973,-2.704,-2.704,-2.704,-2.7384,-2.7769,-2.8247,-2.7855,-2.7802,-2.8247,-2.8266,-2.8266,-2.8266,-2.7851,-2.7508,-2.7207,-2.7048,-2.6982,-2.6982,-2.7408,-2.76,-2.76,-2.76,-2.76,-1.8036,-1.9997,-2.1874,-2.4847,-2.686,-2.8366,0.0,0.0,0.0,0.0,0.0,0.0,0.0,0.0,0.0,0.0,0.0,0.0,0.0,0.0,0.0,0.0,0.0,0.0,0.0,0.0,0.0,0.0,0.0,0.0,-3.1511,-3.1511,-3.1511,-3.1511,-3.1511,-3.1511,-3.1511,-3.1511,-3.1511,-3.1511,-3.1511,-3.1511,-3.1511,-3.1511,-3.1511,-3.1511,-3.1511,-3.1511,-3.1511,-3.1511,-3.1511,-3.1511,-3.1511,-3.1511,-3.1409,-3.0614,-2.9766,-2.8876,-2.7986,-2.7162,-2.6499,-2.6499,-2.6499,-2.6499,-2.6499,-2.6499,-2.6499,-2.6499,-2.6499,-2.6499,-2.6499,-2.6499,-2.6499,-2.6499,-2.6499,-2.6499,-2.6499,-2.6499,-2.6499,-2.6499,-2.6499,-2.6499,-2.6499,-2.6499,-2.6499,-2.6499,-2.6499,-2.6499,-2.6499,-2.6499,-2.6499,-2.6499,-2.6499,-2.6748,-2.7351,-2.685,-2.6748,-2.7351,-2.7384,-2.7384,-2.7384,-2.7381,-2.7207,-2.6793,-2.6493,-2.6311,-2.6229,-2.6759,-2.7045,-2.7045,-2.7045,-2.7045,-1.5402,-1.6915,-1.8763,-2.1772,-2.4171,0.0,0.0,0.0,0.0,0.0,0.0,0.0,0.0,0.0,0.0,0.0,0.0,0.0,0.0,0.0,0.0,0.0,0.0,0.0,0.0,0.0,0.0,0.0,0.0,0.0,-3.1511,-3.1511,-3.1511,-3.1511,-3.1511,-3.1511,-3.1511,-3.1511,-3.1511,-3.1511,-3.1511,-3.1511,-3.1511,-3.1511,-3.1511,-3.1511,-3.1511,-3.1511,-3.1511,-3.1511,-3.1511,-3.1511,-3.1511,-3.1511,-3.1409,-3.0614,-2.9766,-2.8876,-2.7986,-2.7162,-2.6499,-2.6499,-2.6499,-2.6499,-2.6499,-2.6499,-2.6499,-2.6499,-2.6499,-2.6499,-2.6499,-2.6499,-2.6499,-2.6499,-2.6499,-2.6499,-2.6499,-2.6499,-2.6499,-2.6499,-2.6499,-2.6499,-2.6499,-2.6499,-2.6499,-2.6499,-2.6499,-2.6499,-2.6499,-2.6499,-2.6499,-2.6499,-2.6499,-2.6521,-2.6555,-2.6521,-2.6521,-2.6555,-2.6555,-2.6555,-2.6555,-2.6034,-2.5706,-2.5681,-2.586,-2.5754,-2.5453,-2.5508,-2.5508,-2.5508,-2.5508,-2.5508,-1.5199,-1.5984,0.0,-2.0082,-2.2516,0.0,0.0,0.0,0.0,0.0,0.0,0.0,0.0,0.0,0.0,0.0,0.0,0.0,0.0,0.0,0.0,0.0,0.0,0.0,0.0,0.0,0.0,0.0,0.0,0.0,-3.1511,-3.1511,-3.1511,-3.1511,-3.1511,-3.1511,-3.1511,-3.1511,-3.1511,-3.1511,-3.1511,-3.1511,-3.1511,-3.1511,-3.1511,-3.1511,-3.1511,-3.1511,-3.1511,-3.1511,-3.1511,-3.1511,-3.1511,-3.119,-3.0614,-2.9797,-2.8907,-2.8051,-2.7229,-2.6748,-2.6499,-2.6499,-2.6499,-2.6499,-2.6499,-2.6499,-2.6499,-2.6499,-2.6499,-2.6499,-2.6499,-2.6499,-2.6499,-2.6499,-2.6499,-2.6499,-2.6499,-2.6499,-2.6499,-2.6499,-2.6499,-2.6499,-2.6499,-2.6499,-2.6499,-2.6499,-2.6499,-2.6499,-2.6499,-2.6499,-2.6499,-2.6499,-2.6499,-2.6499,-2.6499,-2.6499,-2.6499,-2.6499,-2.6499,-2.6499,-2.6499,-2.6298,-2.6009,-2.5598,-2.5681,-2.5545,-2.5215,-2.5693,-2.5756,-2.5398,-2.5398,-2.5398,-1.4606,-1.5037,0.0,0.0,0.0,0.0,0.0,0.0,0.0,0.0,0.0,0.0,0.0,0.0,0.0,0.0,0.0,0.0,0.0,0.0,0.0,0.0,0.0,0.0,0.0,0.0,0.0,0.0,0.0,0.0,-3.1511,-3.1511,-3.1406,-3.1167,-3.0957,-3.0853,-3.0853,-3.1062,-3.1152,-3.1167,-3.1391,-3.1511,-3.1511,-3.1511,-3.1351,-3.1117,-3.138,-3.1511,-3.1467,-3.1219,-3.1087,-3.1058,-3.0777,-3.0329,-2.9766,-2.8907,-2.8214,-2.7571,-2.6782,-2.6499,-2.6499,-2.6499,-2.6499,-2.6499,-2.6499,-2.6499,-2.6499,-2.6499,-2.6499,-2.6499,-2.6499,-2.6499,-2.6499,-2.6499,-2.6499,-2.6499,-2.6499,-2.6499,-2.6499,-2.6499,-2.6499,-2.6499,-2.6499,-2.6499,-2.6499,-2.6499,-2.6499,-2.6499,-2.6499,-2.6499,-2.6499,-2.6499,-2.6499,-2.6499,-2.6499,-2.6499,-2.6499,-2.6499,-2.6499,-2.6499,-2.6499,-2.6499,-2.6311,-2.5921,-2.5887,-2.5686,-2.5268,-2.5395,-2.5263,-2.4947,-2.4733,-2.4781,0.0,0.0,0.0,0.0,0.0,0.0,0.0,0.0,0.0,0.0,0.0,0.0,0.0,0.0,0.0,0.0,0.0,0.0,0.0,0.0,0.0,0.0,0.0,0.0,0.0,0.0,0.0,0.0,0.0,-3.1496,-3.1466,-3.1451,-3.1137,-3.0492,-2.9894,-2.9606,-2.9606,-3.0178,-3.0477,-3.0507,-3.1152,-3.1452,-3.1467,-3.1467,-3.1029,-3.0329,-3.1087,-3.1438,-3.1409,-3.0614,-3.0269,-3.0178,-2.9317,-2.8971,-2.8876,-2.8019,-2.767,-2.7537,-2.6782,-2.6499,-2.6499,-2.6499,-2.6499,-2.6499,-2.6499,-2.6499,-2.6499,-2.6499,-2.6499,-2.6499,-2.6499,-2.6499,-2.6499,-2.6499,-2.6499,-2.6499,-2.6499,-2.6499,-2.6499,-2.6499,-2.6499,-2.6499,-2.6499,-2.6499,-2.6499,-2.6499,-2.6499,-2.6499,-2.6499,-2.6499,-2.6499,-2.6499,-2.6499,-2.6499,-2.6499,-2.6499,-2.6499,-2.6499,-2.6499,-2.6499,-2.6499,-2.6499,-2.6499,-2.6499,-2.6499,-2.6223,-2.5624,-2.4556,-2.4042,-2.4004,-2.3409,-2.3582,-1.4208,0.0,0.0,0.0,0.0,0.0,0.0,0.0,0.0,0.0,0.0,0.0,0.0,0.0,0.0,0.0,0.0,0.0,0.0,0.0,0.0,0.0,0.0,0.0,0.0,0.0,0.0,0.0,-3.1511,-3.1286,-3.0806,-3.0357,-3.0028,-2.9849,-2.9696,-2.9606,-2.9606,-2.9786,-3.0058,-3.0507,-3.0702,-3.0745,-3.0614,-3.0614,-3.0524,-3.0269,-2.9858,-3.0042,-3.0614,-3.0389,-2.9919,-2.9348,-2.9097,-2.862,-2.8019,-2.7802,-2.7317,-2.6816,-2.6589,-2.6499,-2.6499,-2.6499,-2.6499,-2.6499,-2.6499,-2.6499,-2.6499,-2.6499,-2.6499,-2.6499,-2.6499,-2.6499,-2.6499,-2.6499,-2.6499,-2.6499,-2.6499,-2.6499,-2.6499,-2.6499,-2.6499,-2.6499,-2.6499,-2.6499,-2.6499,-2.6499,-2.6499,-2.6499,-2.6499,-2.6499,-2.6499,-2.6499,-2.6499,-2.6499,-2.6499,-2.6499,-2.6499,-2.6499,-2.6499,-2.6499,-2.6499,-2.6499,-2.6499,-2.6499,-2.6499,-2.6411,-2.6248,-2.5498,-2.4958,-2.4562,-2.4399,-2.4726,-1.5028,-1.496,0.0,0.0,0.0,0.0,0.0,0.0,0.0,0.0,0.0,0.0,0.0,0.0,0.0,0.0,0.0,0.0,0.0,0.0,0.0,0.0,0.0,0.0,0.0,0.0,0.0,0.0,-3.0838,-3.0552,-3.0148,-2.952,-2.9175,-2.9175,-2.8918,-2.8768,-2.8768,-2.9052,-2.9355,-2.9714,-2.9635,-2.9724,-2.988,-2.9551,-2.9358,-2.9223,-2.9066,-2.8907,-2.8748,-2.9097,-2.8907,-2.8427,-2.8084,-2.7637,-2.7196,-2.7196,-2.6905,-2.6499,-2.6499,-2.6499,-2.6499,-2.6499,-2.6499,-2.6499,-2.6499,-2.6499,-2.6499,-2.6499,-2.6499,-2.6499,-2.6499,-2.6499,-2.6499,-2.6499,-2.6499,-2.6499,-2.6499,-2.6499,-2.6499,-2.6499,-2.6499,-2.6499,-2.6499,-2.6499,-2.6499,-2.6499,-2.6499,-2.6499,-2.6499,-2.6499,-2.6499,-2.6499,-2.6499,-2.6499,-2.6499,-2.6499,-2.6499,-2.6499,-2.6499,-2.6499,-2.6499,-2.6499,-2.6499,-2.6499,-2.6499,-2.6499,-2.6499,-2.5875,-2.5322,-2.4788,-2.4788,-2.502,-1.6085,-1.5907,0.0,0.0,0.0,0.0,-1.7996,-1.815,0.0,0.0,0.0,0.0,0.0,0.0,0.0,0.0,0.0,0.0,0.0,0.0,0.0,0.0,0.0,0.0,0.0,0.0,0.0,-3.0402,-2.9819,-2.9502,-2.9502,-2.8846,-2.8487,-2.8487,-2.7914,-2.76,-2.76,-2.8096,-2.8412,-2.8476,-2.8272,-2.8441,-2.8924,-2.8321,-2.7895,-2.7644,-2.84,-2.792,-2.6692,-2.7317,-2.7571,-2.7517,-2.6782,-2.6499,-2.6499,-2.6499,-2.6499,-2.6499,-2.6499,-2.6499,-2.6499,-2.6499,-2.6499,-2.6499,-2.6499,-2.6499,-2.6499,-2.6499,-2.6499,-2.6499,-2.6499,-2.6499,-2.6499,-2.6499,-2.6499,-2.6499,-2.6499,-2.6499,-2.6499,-2.6499,-2.6499,-2.6499,-2.6499,-2.6499,-2.6499,-2.6499,-2.6499,-2.6499,-2.6499,-2.6499,-2.6499,-2.6499,-2.6499,-2.6499,-2.6499,-2.6499,-2.6499,-2.6499,-2.6499,-2.6499,-2.6499,-2.6499,-2.6499,-2.6499,-2.6499,-2.6499,-2.6499,-2.5971,-2.546,-2.5008,-2.5008,-2.5008,-1.7893,-1.7774,-1.7617,0.0,0.0,0.0,0.0,-1.6085,0.0,0.0,0.0,0.0,0.0,0.0,0.0,0.0,0.0,0.0,0.0,0.0,0.0,0.0,0.0,0.0,0.0,0.0,-2.9786,-2.9786,-2.916,-2.8801,-2.8801,-2.8169,-2.7809,-2.7809,-2.766,-2.76,-2.76,-2.714,-2.7171,-2.7706,-2.7074,-2.675,-2.6735,-2.7019,-2.7123,-2.7063,-2.7002,-2.7162,-2.7417,-2.6939,-2.6714,-2.6714,-2.6555,-2.6499,-2.6499,-2.6499,-2.6499,-2.6499,-2.6499,-2.6499,-2.6499,-2.6499,-2.6499,-2.6499,-2.6499,-2.6499,-2.6499,-2.6499,-2.6499,-2.6499,-2.6499,-2.6499,-2.6499,-2.6499,-2.6499,-2.6499,-2.6499,-2.6499,-2.6499,-2.6499,-2.6499,-2.6499,-2.6499,-2.6499,-2.6499,-2.6499,-2.6499,-2.6499,-2.6499,-2.6499,-2.6499,-2.6499,-2.6499,-2.6499,-2.6499,-2.6499,-2.6499,-2.6499,-2.6499,-2.6499,-2.6499,-2.6499,-2.6499,-2.6499,-2.6499,-2.6499,-2.6499,-2.6386,-2.6273,-2.6172,-2.6172,-2.6172,-1.9098,-1.87,-1.8356,-1.7641,0.0,0.0,0.0,0.0,0.0,0.0,0.0,0.0,0.0,0.0,0.0,0.0,0.0,0.0,0.0,0.0,0.0,0.0,0.0,0.0,0.0,0.0,-2.8951,-2.8633,-2.8304,-2.8109,-2.8109,-2.7779,-2.76,-2.76,-2.76,-2.7408,-2.706,-2.6695,-2.6467,-2.6439,-2.5712,-2.5448,-2.5585,-2.5499,-2.5607,-2.5859,-2.5709,-2.5889,-2.6225,-2.5836,-2.5636,-2.5699,-2.6285,-2.6499,-2.6499,-2.6499,-2.6499,-2.6499,-2.6499,-2.6499,-2.6499,-2.6499,-2.6499,-2.6499,-2.6499,-2.6499,-2.6499,-2.6499,-2.6499,-2.6499,-2.6499,-2.6499,-2.6499,-2.6499,-2.6499,-2.6499,-2.6499,-2.6499,-2.6499,-2.6499,-2.6499,-2.6499,-2.6499,-2.6499,-2.6499,-2.6499,-2.6499,-2.6499,-2.6499,-2.6499,-2.6499,-2.6499,-2.6499,-2.6499,-2.6499,-2.6499,-2.6499,-2.6499,-2.6499,-2.6499,-2.6499,-2.6499,-2.6499,-2.6499,-2.6499,-2.6499,-2.6499,-2.6499,-2.6499,-2.6499,-2.6499,-2.6499,0.0,0.0,0.0,0.0,0.0,-1.6997,0.0,0.0,0.0,-1.6906,0.0,0.0,0.0,0.0,0.0,0.0,0.0,0.0,0.0,0.0,0.0,0.0,0.0,0.0,0.0,0.0,-2.7619,-2.76,-2.724,-2.7195,-2.757,-2.7473,-2.7382,-2.7382,-2.724,-2.689,-2.6283,-2.6149,-2.5783,-2.5175,-2.4423,-2.4308,-2.4693,-2.4208,-2.4243,-2.4637,-2.477,-2.4788,-2.4788,-2.4788,-2.4788,-2.4876,-2.5799,-2.6248,-2.6336,-2.6336,-2.6399,-2.6499,-2.6499,-2.6499,-2.6499,-2.6499,-2.6499,-2.6499,-2.6499,-2.6499,-2.6499,-2.6499,-2.6499,-2.6499,-2.6499,-2.6499,-2.6499,-2.6499,-2.6499,-2.6499,-2.6499,-2.6499,-2.6499,-2.6499,-2.6499,-2.6499,-2.6499,-2.6499,-2.6499,-2.6499,-2.6499,-2.6499,-2.6499,-2.6499,-2.6499,-2.6499,-2.6499,-2.6499,-2.6499,-2.6499,-2.6499,-2.6499,-2.6499,-2.6499,-2.6499,-2.6499,-2.6499,-2.6499,-2.6499,-2.6499,-2.6499,-2.6499,-2.6499,-2.6499,-2.6499,-2.6499,0.0,0.0,0.0,0.0,-1.9429,0.0,0.0,0.0,-1.6936,-1.5441,0.0,0.0,0.0,0.0,0.0,0.0,0.0,0.0,0.0,0.0,0.0,0.0,0.0,0.0,0.0,0.0,0.0,-2.742,-2.5959,-2.5734,-2.7495,-2.6982,-2.6616,-2.6616,-2.5973,-2.5618,-2.5536,-2.4879,-2.4509,-2.4436,-2.3619,-2.3283,-2.3329,-2.3796,-2.4029,-2.4117,-2.4575,-2.4788,-2.4788,-2.4788,-2.4788,-2.48,-2.4926,-2.5285,-2.5686,-2.5686,-2.6047,-2.6499,-2.6499,-2.6499,-2.6499,-2.6499,-2.6499,-2.6499,-2.6499,-2.6499,-2.6499,-2.6499,-2.6499,-2.6499,-2.6499,-2.6499,-2.6499,-2.6499,-2.6499,-2.6499,-2.6499,-2.6499,-2.6499,-2.6499,-2.6499,-2.6499,-2.6499,-2.6499,-2.6499,-2.6499,-2.6499,-2.6499,-2.6499,-2.6499,-2.6499,-2.6499,-2.6499,-2.6499,-2.6499,-2.6499,-2.6499,-2.6499,-2.6499,-2.6499,-2.6499,-2.6499,-2.6499,-2.6499,-2.6499,-2.6499,-2.6499,-2.6499,-2.6499,-2.6499,-2.6499,-2.6499,0.0,0.0,0.0,0.0,0.0,0.0,0.0,0.0,-1.6458,0.0,0.0,0.0,0.0,0.0,0.0,0.0,0.0,0.0,0.0,0.0,0.0,0.0,0.0,0.0,0.0,0.0,0.0,0.0,0.0,-2.4721,-2.6293,-2.6089,-2.5883,-2.585,-2.5563,-2.5175,-2.4766,-2.4452,-2.406,-2.359,-2.3245,-2.3108,-2.3108,-2.3358,-2.3471,-2.3484,-2.371,-2.381,-2.381,-2.381,-2.381,-2.381,-2.381,-2.4556,-2.5598,-2.5598,-2.5996,-2.6499,-2.6499,-2.6499,-2.6499,-2.6499,-2.6499,-2.6499,-2.6499,-2.6499,-2.6499,-2.6499,-2.6499,-2.6499,-2.6499,-2.6499,-2.6499,-2.6499,-2.6499,-2.6499,-2.6499,-2.6025,-2.5629,-2.5629,-2.517,-2.4945,-2.5511,-2.6094,-2.6499,-2.6499,-2.6499,-2.6499,-2.6499,-2.6499,-2.6499,-2.6499,-2.6499,-2.6499,-2.6499,-2.6499,-2.6233,-2.5664,-2.5629,-2.5629,-2.5629,-2.6198,-2.6499,-2.6499,-2.6499,-2.6499,-2.6499,-2.6499,-2.6499,-2.6499,-2.6499,-2.6499,-2.2839,0.0,0.0,0.0,0.0,0.0,0.0,0.0,0.0,0.0,0.0,0.0,0.0,0.0,0.0,0.0,0.0,0.0,0.0,0.0,0.0,0.0,0.0,0.0,0.0,0.0,0.0,0.0,0.0,0.0,-2.5431,-2.5314,-2.5172,-2.5122,-2.4884,-2.4496,-2.3972,-2.3972,-2.3679,-2.3108,-2.3108,-2.3108,-2.3108,-2.3108,-2.3108,-2.3108,-2.3108,-2.3108,-2.3108,-2.3108,-2.3108,-2.3108,-2.3108,-2.3923,-2.5172,-2.5335,-2.5737,-2.6285,-2.6436,-2.6499,-2.6499,-2.6499,-2.6499,-2.6499,-2.6499,-2.6499,-2.6499,-2.6499,-2.6499,-2.6499,-2.6499,-2.6499,-2.6418,-2.6164,-2.6094,-2.6013,-2.5721,-2.5099,-2.46,-2.46,-2.4,-2.3745,-2.4445,-2.517,-2.5756,-2.606,-2.6094,-2.599,-2.5721,-2.5908,-2.5978,-2.5721,-2.5687,-2.5687,-2.5687,-2.5687,-2.5358,-2.4636,-2.46,-2.46,-2.46,-2.5546,-2.6094,-2.6094,-2.6349,-2.6349,-2.6094,-2.6383,-2.6349,-2.6094,-2.6383,-2.6499,0.0,0.0,0.0,-2.0352,0.0,0.0,0.0,0.0,-1.7458,0.0,0.0,0.0,0.0,0.0,0.0,0.0,0.0,0.0,0.0,0.0,0.0,0.0,0.0,0.0,0.0,0.0,0.0,0.0,0.0,0.0,-2.5418,-2.4867,-2.4432,-2.4433,-2.3618,-2.3155,-2.3125,-2.3125,-2.3138,-2.3108,-2.3108,-2.3108,-2.3108,-2.3108,-2.3108,-2.3108,-2.3108,-2.3108,-2.3108,-2.3108,-2.3108,-2.3108,-2.3108,-2.3471,-2.4117,-2.4612,-2.5172,-2.5699,-2.6298,-2.6499,-2.6499,-2.6499,-2.6499,-2.6499,-2.6499,-2.6499,-2.6499,-2.6499,-2.6499,-2.6499,-2.6499,-2.6499,-2.6233,-2.53,-2.504,-2.4779,-2.3818,-2.3551,-2.3562,-2.3562,-2.3514,-2.3514,-2.3551,-2.3551,-2.3927,-2.4898,-2.504,-2.4707,-2.3708,-2.4456,-2.4671,-2.3697,-2.3588,-2.3588,-2.3588,-2.3588,-2.3588,-2.3562,-2.3562,-2.3562,-2.3562,-2.4516,-2.504,-2.504,-2.5978,-2.6025,-2.504,-2.6025,-2.599,-2.5087,-2.606,-2.6499,0.0,0.0,-2.3191,-2.1455,0.0,0.0,0.0,0.0,0.0,0.0,0.0,0.0,0.0,0.0,0.0,0.0,0.0,0.0,0.0,0.0,0.0,0.0,0.0,0.0,0.0,0.0,0.0,0.0,0.0,0.0,0.0,-2.3322,-2.3345,-2.3659,-2.2965,-2.2732,-2.3108,-2.3108,-2.3108,-2.3108,-2.3108,-2.3108,-2.3108,-2.3108,-2.3108,-2.3108,-2.3108,-2.3108,-2.3108,-2.3108,-2.3108,-2.3108,-2.3108,-2.3221,-2.3459,-2.4067,-2.4619,-2.5159,-2.5699,-2.5887,-2.5984,-2.6373,-2.6499,-2.6499,-2.6499,-2.6499,-2.6499,-2.6499,-2.6499,-2.6499,-2.6499,-2.6025,-2.5406,-2.5075,-2.4492,-2.3927,-2.3551,-2.2962,-2.2515,-2.2515,-2.2,-2.1783,-2.2403,-2.2,-2.2124,-2.3745,-2.4,-2.3891,-2.3551,-2.3818,-2.3891,-2.3526,-2.3514,-2.3514,-2.3514,-2.2888,-2.2515,-2.2515,-2.2515,-2.2515,-2.2515,-2.3478,-2.4337,-2.4981,-2.466,-2.466,-2.5004,-2.466,-2.4325,-2.4011,-2.4361,-2.524,-2.3595,-2.3595,0.0,0.0,-2.1036,0.0,-1.8416,0.0,0.0,0.0,0.0,0.0,0.0,0.0,0.0,0.0,0.0,0.0,0.0,0.0,0.0,0.0,0.0,0.0,0.0,0.0,-1.6582,-1.9184,0.0,0.0,0.0,0.0,-2.2393,-2.3311,-2.2642,-2.2543,-2.3095,-2.3108,-2.3108,-2.3108,-2.3108,-2.3108,-2.3108,-2.3108,-2.3108,-2.3108,-2.3108,-2.3108,-2.3108,-2.3108,-2.3108,-2.3108,-2.3108,-2.3108,-2.317,-2.3791,-2.4343,-2.4863,-2.541,-2.5598,-2.5686,-2.6298,-2.6499,-2.6499,-2.6499,-2.6233,-2.599,-2.599,-2.5721,-2.5429,-2.5429,-2.4957,-2.4384,-2.4036,-2.3441,-2.2888,-2.2526,-2.1962,-2.1479,-2.1479,-2.1001,-2.0789,-2.1413,-2.1001,-2.1126,-2.2739,-2.2962,-2.285,-2.2526,-2.2776,-2.285,-2.2489,-2.2489,-2.2489,-2.2489,-2.1849,-2.1479,-2.1479,-2.1479,-2.1479,-2.1479,-2.244,-2.3257,-2.3927,-2.3672,-2.3624,-2.3927,-2.3635,-2.3331,-2.2962,-2.3331,-2.4169]},{"header":{"parameterUnit":"m.s-1","parameterCategory":1,"la1":30.6,"la2":29.2853,"lo1":-89.7004,"lo2":-87.6739,"dy":0.0162,"dx":0.0183,"nx":112,"ny":82,"refTime":"2026-05-16T00:00:00:Z","depth":0,"parameterNumber":3,"parameterNumberName":"V-component_of_WINDS"},"data":[0.0,0.0,0.0,0.0,0.0,0.0,0.0,0.0,0.0,0.0,0.0,0.0,0.0,0.0,0.0,0.0,0.0,0.0,0.0,0.0,0.0,0.0,0.0,0.0,0.0,0.0,0.0,0.0,0.0,0.0,0.0,0.0,0.0,0.0,0.0,0.0,0.0,0.0,0.0,0.0,0.0,0.0,0.0,0.0,0.0,0.0,0.0,0.0,0.0,0.0,0.0,0.0,0.0,0.0,0.0,0.0,0.0,0.0,0.0,0.0,0.0,0.0,0.0,0.0,0.0,0.0,0.0,0.0,0.0,0.0,0.0,0.0,0.0,0.0,0.0,0.0,0.0,0.0,0.0,0.0,0.0,0.0,0.0,0.0,0.0,0.0,0.0,0.0,0.0,0.0,0.0,0.2996,0.4482,0.5851,0.6992,0.7311,0.7278,0.6906,0.0,0.0,0.0,0.0,0.0,0.0,0.0,0.0,0.0,0.0,0.0,0.0,0.0,0.0,0.0,0.0,0.0,0.0,0.0,0.0,0.0,0.0,0.0,0.0,0.0,0.0,0.0,0.0,0.0,0.0,0.0,0.0,0.0,0.0,0.0,0.0,0.0,0.0,0.0,0.0,0.0,0.0,0.0,0.0,0.0,0.0,0.0,0.0,0.0,0.0,0.0,0.0,0.0,0.0,0.0,0.0,0.0,0.0,0.0,0.0,0.0,0.0,0.0,0.0,0.0,0.0,0.0,0.0,0.0,0.0,0.0,0.0,0.0,0.0,0.0,0.0,0.0,0.0,0.0,0.0,0.0,0.0,0.0,0.0,0.0,0.0,0.0,0.0,0.0,0.0,0.0,0.0,0.0,0.0,0.0,0.0,0.0,0.0,0.0,0.0,0.0,0.0,0.0,0.0,0.3016,0.4807,0.5225,0.6118,0.7841,0.7499,0.7437,0.8081,0.0,0.0,0.0,0.0,0.0,0.0,0.0,0.0,0.0,0.0,0.0,0.0,0.0,0.0,0.0,0.0,0.0,0.0,0.0,0.0,0.0,0.0,0.0,0.0,0.0,0.0,0.0,0.0,0.0,0.0,0.0,0.0,0.0,0.0,0.0,0.0,0.0,0.0,0.0,0.0,0.0,0.0,0.0,0.0,0.0,0.0,0.0,0.0,0.0,0.0,0.0,0.0,0.0,0.0,0.0,0.0,0.0,0.0,0.0,0.0,0.0,0.0,0.0,0.0,0.0,0.0,0.0,0.0,0.0,0.0,0.0,0.0,0.0,0.0,0.0,0.0,0.0,0.0,0.0,0.0,0.0,0.0,0.0,0.0,0.0,0.0,0.0,0.0,0.0,0.0,0.0,0.0,0.0,0.0,0.0,0.0,0.0,0.0,0.0,0.0,0.0,0.0,0.0,0.2668,0.3577,0.5235,0.5395,0.6143,0.7943,0.7489,0.739,0.8073,0.723,0.0,0.0,0.0,0.0,0.0,0.0,0.0,0.0,0.0,0.0,0.0,0.0,0.0,0.0,0.0,0.0,0.0,0.0,0.0,0.0,0.0,0.0,0.0,0.0,0.0,0.0,0.0,0.0,0.0,0.0,0.0,0.0,0.0,0.0,0.0,0.0,0.0,0.0,0.0,0.0,0.0,0.0,0.0,0.0,0.0,0.0,0.0,0.0,0.0,0.0,0.0,0.0,0.0,0.0,0.0,0.0,0.0,0.0,0.0,0.0,0.0,0.0,0.0,0.0,0.0,0.0,0.0,0.0,0.0,0.0,0.0,0.0,0.0,0.0,0.0,0.0,0.0,0.0,0.0,0.0,0.0,0.0,0.0,0.0,0.0,0.0,0.0,0.0,0.0,0.0,0.0,0.0,0.0,0.0,0.0,0.0,0.0,0.0,0.0,0.0,0.0,0.0,0.3531,0.4119,0.5291,0.5587,0.6285,0.7757,0.7456,0.7367,0.7771,0.6847,0.0,0.0,0.0,0.0,0.0,0.0,0.0,0.0,0.0,0.0,0.0,0.0,0.0,0.0,0.0,0.0,0.0,0.0,0.0,0.0,0.0,0.0,0.0,0.0,0.0,0.0,0.0,0.0,0.0,0.0,0.0,0.0,0.0,0.0,0.0,0.0,0.0,0.0,0.0,0.0,0.0,0.0,0.0,0.0,0.0,0.0,0.0,0.0,0.0,0.0,0.0,0.0,0.0,0.0,0.0,0.0,0.0,0.0,0.0,0.0,0.0,0.0,0.0,0.0,0.0,0.0,0.0,0.0,0.0,0.0,0.0,0.0,0.0,0.0,0.0,0.0,0.0,0.0,0.0,0.0,0.0,0.0,0.0,0.0,0.0,0.0,0.0,0.0,0.0,0.0,0.0,0.0,0.0,0.0,0.0,0.0,0.0,0.0,0.0,0.0,0.0,0.0,0.4163,0.4934,0.5358,0.6141,0.6878,0.7481,0.7481,0.7501,0.7533,0.6177,0.0,0.0,0.0,0.0,0.0,0.0,0.0,0.0,0.0,0.0,0.0,0.0,0.0,0.0,0.0,0.0,0.0,0.0,0.0,0.0,0.0,0.0,0.0,0.0,0.0,0.0,0.0,0.0,0.0,0.0,0.0,0.0,0.0,0.0,0.0,0.0,0.0,0.0,0.0,0.0,0.0,0.0,0.0,0.0,0.0,0.0,0.0,0.0,0.0,0.0,0.0,0.0,0.0,0.0,0.0,0.0,0.0,0.0,0.0,0.0,0.0,0.0,0.0,0.0,0.0,0.0,0.0,0.0,0.0,0.0,0.0,0.0,0.0,0.0,0.0,0.0,0.0,0.0,0.0,0.0,0.0,0.0,0.0,0.0,0.0,0.0,0.0,0.0,0.0,0.0,0.0,0.0,0.0,0.0,0.0,0.0,0.0,0.0,0.0,0.0,0.0,0.0,0.4754,0.5644,0.0,0.6985,0.7737,0.8258,0.7977,0.7677,0.7506,0.0,0.0,0.0,0.0,0.0,0.0,0.0,0.0,0.0,0.0,0.0,0.0,0.0,0.0,0.0,0.0,0.0,0.0,0.0,0.0,0.0,0.0,0.0,0.0,0.0,0.0,0.0,0.0,0.0,0.0,0.0,0.0,0.0,0.0,0.0,0.0,0.0,0.0,0.0,0.0,0.0,0.0,0.0,0.0,0.0,0.0,0.0,0.0,0.0,0.0,0.0,0.0,0.0,0.0,0.0,0.0,0.0,0.0,0.0,0.0,0.0,0.0,0.0,0.0,0.0,0.0,0.0,0.0,0.0,0.0,0.0,0.0,0.0,0.0,0.0,0.0,0.0,0.0,0.0,0.0,0.0,0.0,0.0,0.0,0.0,0.0,0.0,0.0,0.0,0.0,0.0,0.0,0.0,0.0,0.0,0.0,0.0,0.0,0.0,0.0,0.0,0.0,0.4306,0.529,0.6229,0.0,0.7892,0.8477,0.8641,0.8306,0.7858,0.7373,0.0,0.0,0.0,0.0,0.0,0.0,0.0,0.0,0.0,0.0,0.0,0.0,0.0,0.0,0.0,0.0,0.0,0.0,0.0,0.0,0.0,0.0,0.0,0.0,0.0,0.0,0.0,0.0,0.0,0.0,0.0,0.0,0.0,0.0,0.0,0.0,0.0,0.0,0.0,0.0,0.0,0.0,0.0,0.0,0.0,0.0,0.0,0.0,0.0,0.0,0.0,0.0,0.0,0.0,0.0,0.0,0.0,0.0,0.0,0.0,0.0,0.0,0.0,0.0,0.0,0.0,0.0,0.0,0.0,0.0,0.0,0.0,0.0,0.0,0.0,0.0,0.0,0.0,0.0,0.0,0.0,0.0,0.0,0.0,0.0,0.0,0.0,0.0,0.0,0.0,0.0,0.0,0.0,0.0,0.0,0.0,0.0,0.0,0.0,0.0,0.0,0.0,0.5129,0.5829,0.6673,0.7879,0.878,0.9051,0.8463,0.8405,0.7989,0.0,0.0,0.0,0.0,0.0,0.0,0.0,0.0,0.0,0.0,0.0,0.0,0.0,0.0,0.0,0.0,0.0,0.0,0.0,0.0,0.0,0.0,0.0,0.0,0.0,0.0,0.0,0.0,0.0,0.0,0.0,0.0,0.0,0.0,0.0,0.0,0.0,0.0,0.0,0.0,0.0,0.0,0.0,0.0,0.0,0.0,0.0,0.0,0.0,0.0,0.0,0.0,0.0,0.0,0.0,0.0,0.0,0.0,0.0,0.0,0.0,0.0,0.0,0.0,0.0,0.0,0.0,0.0,0.0,0.0,0.0,0.0,0.0,0.0,0.0,0.0,0.0,0.0,0.0,0.0,0.0,0.0,0.0,0.0,0.0,0.0,0.0,0.0,0.0,0.0,0.0,0.0,0.0,0.0,0.0,0.0,0.0,0.0,0.0,0.0,0.0,0.0,0.0,0.0,0.6803,0.8138,0.8858,0.9487,0.9723,0.935,0.8765,0.7989,0.706,0.0,0.0,0.0,0.0,0.0,0.0,0.0,0.0,0.0,0.0,0.0,0.0,0.0,0.0,0.0,0.0,0.0,0.0,0.0,0.0,0.0,0.0,0.0,0.0,0.0,0.0,0.0,0.0,0.0,0.0,0.0,0.0,0.0,0.0,0.0,0.0,0.0,0.0,0.0,0.0,0.0,0.0,0.0,0.0,0.0,0.0,0.0,0.0,0.0,0.0,0.0,0.0,0.0,0.0,0.0,0.0,0.0,0.0,0.0,0.0,0.0,0.0,0.0,0.0,0.0,0.0,0.0,0.0,0.0,0.0,0.0,0.0,0.0,0.0,0.0,0.0,0.0,0.0,0.0,0.0,0.0,0.0,0.0,0.0,0.0,0.0,0.0,0.0,0.0,0.0,0.0,0.0,0.0,0.0,0.0,0.0,0.0,0.0,0.0,0.0,0.0,0.0,0.5711,0.7438,0.8903,0.973,0.9978,1.0,0.9706,0.8904,0.7989,0.706,0.0,0.0,0.0,0.0,0.0,0.0,0.0,0.0,0.0,0.0,0.0,0.0,0.0,0.0,0.0,0.0,0.0,0.0,0.0,0.0,0.0,0.0,0.0,0.0,0.0,0.0,0.0,0.0,0.0,0.0,0.0,0.0,0.0,0.0,0.0,0.0,0.0,0.0,0.0,0.0,0.0,0.0,0.0,0.0,0.0,0.0,0.0,0.0,0.0,0.0,0.0,0.0,0.0,0.0,0.0,0.0,0.0,0.0,0.0,0.0,0.0,0.0,0.0,0.0,0.0,0.0,0.0,0.0,0.0,0.0,0.0,0.0,0.0,0.0,0.0,0.0,0.0,0.0,0.0,0.0,0.0,0.0,0.0,0.0,0.0,0.0,0.0,0.0,0.0,0.0,0.0,0.0,0.0,0.0,0.0,0.0,0.0,0.0,0.0,0.0,0.0,0.0,0.65,0.7847,0.9166,1.0423,1.0254,0.996,0.9666,0.8891,0.802,0.7093,0.0,0.0,0.0,0.0,0.0,0.0,0.0,0.0,0.0,0.0,0.0,0.0,0.0,0.0,0.0,0.0,0.0,0.0,0.0,0.0,0.0,0.0,0.0,0.0,0.0,0.0,0.0,0.0,0.0,0.0,0.0,0.0,0.0,0.0,0.0,0.0,0.0,0.0,0.0,0.0,0.0,0.0,0.0,0.0,0.0,0.0,0.0,0.0,0.0,0.0,0.0,0.0,0.0,0.0,0.0,0.0,0.0,0.0,0.0,0.0,1.17,0.0,0.0,0.0,0.0,0.0,0.0,0.0,0.0,0.0,0.0,0.0,0.0,0.0,0.0,0.0,0.0,0.0,0.0,0.0,0.0,0.0,0.0,0.0,0.0,0.0,0.0,0.0,0.0,0.0,0.0,0.0,0.0,0.0,0.0,0.0,0.0,0.0,0.0,0.0,0.0,0.0,0.7043,0.8508,0.9666,1.0143,0.9953,0.9653,0.9331,0.8744,0.8114,0.7437,0.0,0.0,0.0,0.0,0.0,0.0,0.0,0.0,0.0,0.0,0.0,0.0,0.0,0.0,0.0,0.0,0.0,0.0,0.0,0.0,0.0,0.0,0.0,0.0,0.0,0.0,0.0,0.0,0.0,0.0,0.0,0.0,0.0,0.0,0.0,0.0,0.0,0.0,0.0,0.0,0.0,0.0,0.0,0.0,0.0,0.0,0.0,0.0,0.0,0.0,0.0,0.0,0.0,0.0,0.0,0.0,0.0,0.0,0.0,0.0,0.0,1.3473,0.0,0.0,0.0,0.0,0.0,0.0,0.0,0.0,0.0,0.0,0.0,0.0,0.0,0.0,0.0,0.0,0.0,0.0,0.0,0.0,0.0,0.0,0.0,0.0,0.0,0.0,0.0,0.0,0.0,0.0,0.0,0.0,0.0,0.0,0.0,0.0,0.0,0.0,0.0,0.0,0.7393,0.8637,0.9639,1.0037,0.9726,0.9377,0.9224,0.8711,0.8141,0.7531,0.6794,0.0,0.0,0.0,0.0,0.0,0.0,0.0,0.0,0.0,0.0,0.0,0.0,0.0,0.0,0.0,0.0,0.0,0.0,0.0,0.0,0.0,0.0,0.0,0.0,0.0,0.0,0.0,0.0,0.0,0.0,0.0,0.0,0.0,0.0,0.0,0.0,0.0,0.0,0.0,0.0,0.0,0.0,0.0,0.0,0.0,0.0,0.0,0.0,0.0,0.0,0.0,0.0,0.0,0.0,1.8123,1.8788,1.8997,1.9029,1.885,1.7176,1.5961,1.5145,0.0,0.0,0.0,0.0,0.0,0.0,0.0,0.0,0.0,0.0,0.0,0.0,0.0,0.0,0.0,0.0,0.0,0.0,0.0,0.0,0.0,0.0,0.0,0.0,0.0,0.9854,0.985,0.0,0.0,0.0,0.0,0.0,0.0,0.0,0.0,0.0,0.0,0.0,0.0,0.7797,0.8657,0.9417,0.998,0.9531,0.9191,0.9138,0.8724,0.8214,0.7605,0.7062,0.6392,0.0,0.0,0.0,0.0,0.0,0.0,0.0,0.0,0.0,0.0,0.0,0.0,0.0,0.0,0.0,0.0,0.0,0.0,0.0,0.0,0.0,0.0,0.0,0.0,0.0,0.0,0.0,0.0,0.0,0.0,0.0,0.0,1.4941,1.5068,0.0,0.0,0.0,0.0,0.0,0.0,0.0,0.0,0.0,0.0,0.0,0.0,0.0,0.0,1.9482,1.9847,2.0284,2.0771,2.1097,2.1289,2.1421,2.1438,2.0926,1.9993,1.9606,0.0,1.855,1.7182,0.0,0.0,0.0,0.0,0.0,0.0,0.0,0.0,0.0,0.0,0.0,0.0,0.0,0.0,0.0,0.0,0.0,0.0,0.0,0.0,0.0,0.0,1.118,1.1681,1.1486,1.1226,0.0,0.9553,0.7859,0.7706,0.0,0.0,0.0,0.0,0.0,0.0,0.0,0.0,0.8546,0.8977,0.9337,0.9706,0.9411,0.9111,0.8858,0.8791,0.8497,0.7885,0.7542,0.7089,0.6466,0.5662,0.0,0.0,0.0,0.0,0.0,0.0,0.0,0.0,0.0,0.0,0.0,0.0,0.0,0.0,0.0,0.0,0.0,0.0,0.0,0.0,0.0,0.0,0.0,0.0,0.0,0.0,0.0,0.0,0.0,1.4913,1.6122,1.6122,1.6211,1.5928,0.0,0.0,0.0,0.0,0.0,0.0,0.0,0.0,0.0,1.9757,2.0059,2.0684,2.1678,2.2158,2.2471,2.2676,2.3105,2.331,2.3301,2.3066,2.2679,2.2195,2.1872,2.1492,2.0917,1.8563,1.7237,1.6534,0.0,0.0,0.0,0.0,0.0,1.3273,1.476,0.0,0.0,0.0,0.0,0.0,0.0,0.0,0.0,0.0,0.0,0.0,0.0,0.0,0.0,1.1936,1.1847,1.1701,1.1837,1.0564,0.9265,0.0,0.8325,0.7822,0.707,0.0,0.0,0.0,0.0,0.0,0.8738,0.9031,0.9257,0.9391,0.9144,0.8918,0.8818,0.8804,0.8557,0.7945,0.7779,0.7388,0.662,0.6238,0.5725,0.0,0.0,0.0,0.0,0.0,0.0,0.0,0.0,0.0,0.0,0.0,0.0,0.0,0.0,0.0,0.0,0.0,0.0,0.0,0.0,0.0,0.0,0.0,0.0,0.0,0.0,0.0,0.0,1.6093,1.7184,1.7184,1.7803,1.7797,0.0,0.0,0.0,0.0,0.0,0.0,1.8828,1.9941,2.0937,2.1824,2.2207,2.2725,2.3413,2.3789,2.3945,2.3955,2.4268,2.4414,2.4404,2.4092,2.3896,2.3769,2.3082,2.2751,2.2464,2.0056,1.8974,1.8682,1.7637,1.6862,1.6303,1.6221,1.6008,1.5992,1.709,1.7479,1.7459,1.7194,0.0,1.549,1.4109,0.0,0.0,0.0,0.0,1.0568,1.1082,0.0,1.1703,1.1924,1.202,1.1993,1.1919,1.1594,1.0946,0.0,0.9431,0.9024,0.8083,0.0,0.0,0.0,0.0,0.8731,0.9092,0.9171,0.9244,0.9317,0.8998,0.8804,0.8804,0.8738,0.8477,0.7939,0.7832,0.7475,0.6734,0.6627,0.6265,0.0,0.0,0.0,0.0,0.0,0.0,0.0,0.0,0.0,0.0,0.0,0.0,0.0,0.0,0.0,0.0,0.0,0.0,0.0,0.0,0.0,0.0,0.0,0.0,0.0,0.0,0.0,0.0,0.0,0.0,1.85,1.9648,0.0,0.0,0.0,0.0,1.851,1.9707,2.0625,2.1015,2.1863,2.2773,2.3633,2.3682,2.3906,2.4346,2.4375,2.4385,2.4385,2.4404,2.4414,2.4414,2.4394,2.417,2.3744,2.2565,2.2458,2.2994,2.2107,2.0766,1.9381,1.9611,1.8993,1.8073,1.8807,1.8514,1.7731,1.7702,1.7786,1.7914,1.8147,1.7643,1.6665,1.5256,1.3494,0.0,0.0,1.1149,1.1395,1.1744,1.2044,1.2265,1.2278,1.2278,1.2204,1.1966,1.2565,1.2628,0.0,1.007,0.9552,0.9178,0.0,0.9118,0.9104,0.9138,0.9377,0.995,0.9544,0.9317,0.9633,0.9152,0.8804,0.8804,0.8557,0.8263,0.7925,0.7649,0.7363,0.6993,0.6734,0.6459,0.6156,0.5571,0.0,0.0,0.0,0.0,0.0,0.0,0.0,0.0,0.0,0.0,0.0,0.0,0.0,0.0,0.0,0.0,0.0,0.0,0.0,0.0,0.0,0.0,0.0,0.0,0.0,0.0,0.0,0.0,2.0274,2.1405,0.0,0.0,2.1025,2.1299,2.1103,2.207,2.2715,2.2871,2.3428,2.4004,2.4636,2.4666,2.4824,2.5216,2.5216,2.5216,2.5216,2.5216,2.5216,2.5206,2.4971,2.4756,2.458,2.3604,2.3332,2.3516,2.293,2.2175,2.1387,2.1226,2.0924,2.059,2.0878,2.0749,2.0423,2.0077,1.9982,1.9837,1.8759,1.8434,1.8137,1.6385,1.5816,1.5607,1.4729,1.3912,1.3484,1.4206,1.3375,1.2445,1.3062,1.32,1.3172,1.3064,1.3197,1.3128,1.2473,1.1858,1.1038,0.9755,0.965,0.9644,0.9271,0.9531,0.9784,0.9833,0.9653,0.9492,0.9377,0.9045,0.8804,0.8804,0.8569,0.825,0.7925,0.7635,0.7357,0.7013,0.69,0.664,0.6203,0.5782,0.5124,0.0,0.0,0.0,0.0,0.0,0.0,0.0,0.0,0.0,0.0,0.0,0.0,0.0,0.0,0.0,0.0,0.0,0.0,0.0,0.0,0.0,0.0,0.0,0.0,0.0,0.0,2.1504,2.1609,2.275,2.3242,2.2402,2.2822,2.3154,2.3154,2.3818,2.4219,2.4219,2.4629,2.499,2.5283,2.5293,2.5439,2.5684,2.5693,2.5693,2.5693,2.5693,2.5693,2.5674,2.543,2.5215,2.5086,2.4473,2.4053,2.3769,2.3477,2.3105,2.2652,2.1968,2.1947,2.2201,2.1226,2.14,2.2012,2.1395,2.098,2.0484,1.9539,1.9345,1.9187,1.7608,1.749,1.7701,1.6682,1.5753,1.5186,1.5651,1.4642,1.3616,1.4086,1.4207,1.4099,1.3781,1.4064,1.4185,1.3456,1.2568,1.1536,1.0343,1.02,1.0134,0.9746,1.0013,1.0194,1.0037,0.9836,0.9613,0.9384,0.9038,0.8804,0.8804,0.845,0.8143,0.7919,0.7542,0.7228,0.7006,0.6906,0.6653,0.6203,0.5671,0.5068,0.4402,0.0,0.0,0.0,0.0,0.0,0.0,0.0,0.0,0.0,0.0,0.0,0.0,0.0,0.0,0.0,0.0,0.0,0.0,0.0,0.0,0.0,0.0,0.0,1.998,2.1123,2.2119,2.2539,2.3691,2.4141,2.3364,2.3975,2.4453,2.4453,2.4844,2.5135,2.5135,2.5508,2.5693,2.5693,2.5693,2.5693,2.5693,2.5693,2.5693,2.5693,2.5693,2.5693,2.5693,2.5693,2.5498,2.5135,2.5125,2.459,2.3809,2.3799,2.3535,2.3003,2.18,2.2076,2.277,2.0042,2.0481,2.2393,2.1522,2.0535,1.9765,2.0399,2.0293,1.9743,1.884,1.827,1.7737,1.6754,1.6442,1.6267,1.5909,1.5773,1.5673,1.5281,1.5234,1.4985,1.3991,1.5261,1.5965,1.3816,1.2151,1.1108,1.1061,1.0813,1.0593,1.0593,1.0593,0.0,1.0593,1.0077,0.9715,0.9715,0.9158,0.8804,0.8804,0.8245,0.7905,0.7905,0.7339,0.7,0.7,0.6754,0.6486,0.6209,0.5295,0.4694,0.4442,0.0,0.0,0.0,0.0,0.0,0.0,0.0,0.0,0.0,0.0,0.0,0.0,0.0,0.0,0.0,0.0,0.0,0.0,0.0,0.0,0.0,0.0,2.1689,2.1387,2.2715,2.3877,2.4316,2.4961,2.5235,2.5049,2.5187,2.5323,2.5323,2.544,2.5557,2.5557,2.5625,2.5693,2.5693,2.5693,2.5693,2.5693,2.5693,2.5693,2.5693,2.5693,2.5693,2.5693,2.5693,2.5625,2.5537,2.5205,2.4756,2.4219,2.3916,2.3535,2.3047,2.2721,2.2818,2.2994,2.2236,2.2193,2.248,2.2246,2.1542,2.079,2.0964,2.0752,2.0342,2.0101,1.9395,1.8632,1.835,1.6996,1.5693,1.6019,1.5375,1.4735,1.5111,1.572,1.614,1.586,1.621,1.6427,1.58,1.4601,1.3323,1.2199,1.1223,1.0593,1.0593,0.0,0.0,1.0593,1.0077,0.9715,0.9715,0.9158,0.8804,0.8804,0.8245,0.7905,0.0,0.7339,0.7,0.7,0.6926,0.6767,0.6499,0.5812,0.5415,0.0,0.0,0.0,0.0,0.0,0.0,0.0,0.0,0.0,0.0,0.0,0.0,0.0,0.0,0.0,0.0,0.0,0.0,0.0,0.0,0.0,0.0,2.2021,2.3291,2.3232,2.4072,2.4853,2.5293,2.5586,2.5693,2.5693,2.5693,2.5693,2.5693,2.5693,2.5693,2.5693,2.5693,2.5693,2.5693,2.5693,2.5693,2.5693,2.5693,2.5693,2.5693,2.5693,2.5693,2.5693,2.5693,2.5693,0.0,2.5459,2.5098,2.4658,2.4228,2.3799,0.0,0.0,0.0,0.0,0.0,2.2621,2.2068,2.2398,2.2187,2.1668,2.1307,2.1055,2.081,2.0664,2.0157,1.9678,1.9678,1.8619,1.756,1.7711,1.707,1.6402,1.6599,1.6912,1.707,1.6671,1.6922,1.707,1.6671,0.0,0.0,1.3867,1.2398,1.1167,1.0676,1.0895,1.0989,0.0,1.0474,1.0217,0.9751,0.9265,0.8911,0.8818,0.8383,0.0,0.0,0.0,0.7094,0.6854,0.684,0.0,0.0,0.0,0.0,0.0,0.0,0.0,0.0,0.5008,0.5294,0.0,0.0,0.0,0.0,0.0,0.0,0.0,0.0,0.0,0.0,0.0,0.0,0.0,0.0,0.0,0.0,2.3447,2.4639,2.5078,2.5194,2.5293,2.5645,2.5693,2.5693,2.5693,2.5693,2.5693,2.5693,2.5693,2.5693,2.5693,0.0,0.0,0.0,0.0,2.5693,2.5693,2.5693,2.5693,2.5693,2.5693,2.5693,2.5693,2.5693,2.5693,2.5693,2.5693,2.5459,2.4971,2.458,2.4141,2.3582,2.2082,2.2173,2.3091,2.3091,2.2403,0.0,0.0,0.0,0.0,2.1531,2.1239,2.1112,2.0742,2.0527,2.0401,2.0401,2.0323,2.0139,1.9669,1.9369,1.9047,1.8573,1.8245,1.7817,1.6932,1.7398,1.7759,1.6922,1.6526,1.6132,1.5587,1.3849,1.2136,1.0911,1.1413,0.0,1.0832,1.1162,1.1049,0.9986,0.0,0.0,0.8878,0.8583,0.8402,0.8402,0.7859,0.731,0.676,0.674,0.6626,0.635,0.6344,0.6324,0.629,0.629,0.631,0.633,0.5965,0.6106,0.0,0.0,0.0,0.0,0.0,0.0,0.0,0.0,0.0,0.0,0.0,0.0,0.0,0.0,0.0,2.3213,2.4277,2.5098,2.5547,2.5557,2.5596,2.5674,2.5693,2.5693,2.5693,2.5693,2.5693,2.5693,2.5693,2.5693,2.5693,2.5693,0.0,2.5693,2.5693,2.5693,2.5693,2.5693,2.5693,2.5693,0.0,0.0,2.5693,2.5693,2.5693,2.5693,2.5693,2.5235,2.4531,2.4453,2.3955,2.3208,2.2891,2.2906,2.3091,2.3091,2.296,2.2755,2.2906,2.275,2.2432,2.1924,2.1523,2.1112,2.0742,2.0001,0.0,1.9323,1.863,1.7854,1.7579,1.7973,1.8338,1.7642,1.8,1.8348,1.7827,1.7862,1.794,1.7759,1.7692,1.7173,1.5739,1.4322,1.2972,1.1762,1.2235,1.2481,1.1679,1.203,1.2001,1.1101,1.0546,0.9939,0.9186,0.8677,0.8402,0.8402,0.8043,0.7766,0.7652,0.7646,0.7528,0.7264,0.7258,0.7115,0.6833,0.6833,0.6981,0.7244,0.6687,0.6607,0.0,0.0,0.0,0.0,0.0,0.0,0.0,0.0,0.0,0.0,0.0,2.0294,2.1662,0.0,2.3428,2.4287,2.498,2.5478,2.5654,2.5693,2.5693,2.5693,2.5693,2.5693,2.5693,2.5693,2.5693,2.5693,2.5693,2.5693,2.5693,2.5693,2.5693,2.5693,2.5693,2.5693,2.5693,2.5693,2.5693,2.5693,2.5693,2.5693,2.5693,2.5693,2.5693,2.5693,2.5693,2.5361,2.4707,2.4277,2.3721,2.3091,2.3091,2.3091,2.3091,2.3091,2.3091,2.3091,2.3091,2.2955,2.2711,2.2334,2.1914,2.1484,2.1035,2.0379,1.9805,1.9805,1.9392,1.8903,1.8774,1.8931,1.8948,1.8402,1.8433,1.849,1.8105,1.8008,1.8008,1.8008,1.8008,1.759,1.6302,1.556,1.4523,1.2684,1.3092,1.3304,1.2512,1.2994,1.294,1.172,1.1344,1.074,0.959,0.8934,0.8677,0.8888,0.8427,0.8083,0.7912,0.7905,0.7832,0.7702,0.7695,0.7622,0.7453,0.7453,0.7533,0.7689,0.7402,0.7319,0.0,0.0,0.0,0.0,0.0,0.0,0.0,0.0,1.9248,2.0997,2.1602,2.2197,2.3374,2.4082,2.4687,2.5127,2.5508,2.5693,2.5693,2.5693,2.5693,2.5693,2.5693,2.5693,2.5693,2.5693,2.5693,2.5693,2.5693,2.5693,2.5693,2.5693,2.5693,2.5693,2.5693,2.5693,2.5693,2.5693,2.5693,2.5693,2.5693,2.5693,2.5693,2.5693,2.5693,2.5684,2.5644,2.5352,2.4883,2.4111,2.3535,2.3091,2.3091,2.3091,2.3091,2.3091,2.3091,2.3091,2.3091,2.3091,2.3013,2.2549,2.2158,2.1787,2.1269,2.085,2.0605,2.0605,2.0605,2.0605,2.0605,2.0303,1.9912,1.9404,1.9023,1.8588,1.8115,1.8008,1.8008,1.8008,1.8008,1.7764,1.696,1.6755,1.5917,1.3574,1.3906,1.4145,1.3342,1.3936,1.3902,1.2516,1.2228,1.1551,1.0125,0.9387,0.9132,0.9465,0.8847,0.835,0.8085,0.8079,0.8052,0.7992,0.7992,0.7965,0.7905,0.7905,0.7939,0.7992,0.7992,0.7992,1.7946,1.7328,1.7145,1.859,1.8428,1.8848,0.0,0.0,2.1934,2.3633,2.4023,2.4228,2.4803,2.4979,2.5146,2.5596,2.5654,2.5693,2.5693,2.5693,2.5693,2.5693,2.5693,2.5693,2.5693,2.5693,2.5693,2.5693,2.5693,2.5693,2.5693,2.5693,2.5693,2.5693,2.5693,2.5693,2.5693,2.5693,2.5693,2.5693,2.5693,2.5693,2.5693,2.5693,2.5693,2.5664,2.5312,2.4893,2.4453,2.3984,2.3535,2.3091,2.3091,2.3091,2.3091,2.3091,2.3091,2.3091,2.3091,2.3091,2.2964,2.2217,2.1924,2.1728,2.0928,2.0644,2.0605,2.0605,2.0605,2.0605,2.0605,2.0566,2.0331,1.9482,1.9248,1.8994,1.8184,1.8008,1.8008,1.8008,1.8008,1.7861,1.7393,1.6992,1.6114,1.433,1.4746,1.4991,1.4183,1.4785,1.4924,1.4048,1.3362,1.2351,1.0828,1.0064,0.9695,0.9761,0.9136,0.8744,0.8711,0.8711,0.8591,0.8355,0.8348,0.8196,0.7905,0.7905,0.8045,0.8348,0.8348,0.8348,1.9535,1.9241,0.0,0.0,2.0713,2.1435,2.31,2.3203,2.334,2.4551,2.4795,2.4932,2.5381,2.5459,2.5518,0.0,2.5693,2.5693,2.5693,2.5518,2.5352,2.5352,2.5352,2.5449,2.5664,2.5693,2.5693,2.5693,2.5693,2.5693,2.5693,2.5693,2.5693,2.5693,2.5693,2.5693,2.5693,2.5693,2.5693,2.5693,2.5693,2.5693,2.5693,2.5693,2.5693,2.5645,2.5,2.458,2.4365,2.3691,2.3257,2.3091,2.3091,2.3091,2.3091,2.3091,2.3091,2.3091,2.3091,2.3091,2.3033,2.2734,2.2285,2.1816,2.1486,2.1016,2.0605,2.0605,2.0605,2.0605,2.0605,2.0605,2.039,1.9492,1.9287,1.9053,1.8193,1.8008,1.8008,1.8008,1.8008,1.7881,1.7461,1.7021,1.6389,1.5448,1.536,1.5294,1.4932,1.5196,1.5168,1.4601,1.347,1.2642,1.2399,1.115,1.0542,1.0939,0.9969,0.9387,0.9387,0.9008,0.8751,0.8624,0.8624,0.8564,0.8418,0.8418,0.8504,0.8624,0.8624,0.8624,2.0341,0.0,0.0,2.1445,2.2471,2.3443,2.3677,2.3971,2.4316,2.4988,2.5116,2.5137,2.5284,2.5469,2.5557,2.5557,2.5615,2.5693,2.5693,2.5352,2.5116,2.5116,2.5008,2.5068,2.5508,2.5615,2.5693,2.5693,2.5693,2.5693,2.5693,2.5693,2.5693,2.5693,2.5693,2.5693,2.5693,2.5693,2.5693,2.5693,2.5693,2.5693,2.5693,2.5693,2.5693,2.5645,2.4932,2.4531,2.4355,2.3578,2.3198,2.3091,2.3091,2.3091,2.3091,2.3091,2.3091,2.3091,2.3091,2.3091,2.3052,2.2828,2.2383,2.1846,2.1592,2.1114,2.0605,2.0605,2.0605,2.0605,2.0605,2.0605,2.039,1.9492,1.9287,1.9053,1.8193,1.8008,1.8008,1.8008,1.8008,1.791,1.7607,1.7197,1.6758,1.6318,1.5869,1.5547,1.543,1.541,1.5254,1.4834,1.3814,1.3274,1.364,1.2203,1.148,1.1969,1.0803,0.9987,0.9814,0.951,0.9185,0.8811,0.8982,0.8982,0.8804,0.8804,0.8804,0.8804,0.8804,0.8804,0.0,0.0,2.1375,2.2266,2.3125,2.3984,2.4861,2.5067,2.5086,2.5106,2.5116,2.4941,2.4531,2.4805,2.5135,2.5135,2.5449,2.5693,2.5693,2.5352,2.5116,2.5116,2.4697,2.4609,0.0,2.5478,2.5693,2.5693,2.5693,2.5693,2.5693,2.5693,2.5693,2.5693,2.5693,2.5693,2.5693,2.5693,2.5693,2.5693,2.5693,2.5693,2.5693,2.5693,2.5693,2.5664,2.5254,2.4805,2.4385,2.3945,2.3525,2.3091,2.3091,2.3091,2.3091,2.3091,2.3091,2.3091,2.3091,2.3091,2.2955,2.2187,2.1904,2.1728,2.0909,2.0625,2.0605,2.0605,2.0605,2.0605,2.0605,2.0605,2.039,1.9492,1.9287,1.9053,1.8193,1.8008,1.8008,1.8008,1.8008,1.8008,1.7988,1.7637,1.7217,1.6746,1.6328,1.5919,1.5469,1.541,1.5254,1.4834,1.4766,1.4543,1.4124,1.3085,1.2463,1.2489,1.1405,1.0491,0.9814,1.0389,1.0141,0.8831,0.9439,0.9439,0.8804,0.8804,0.8804,0.8804,0.8804,0.8804,2.0094,0.0,2.2285,2.3144,2.3789,2.4355,2.4941,2.4844,2.456,2.4277,2.4219,2.4082,2.3608,2.3926,2.4307,2.459,2.501,2.54,2.5645,2.5352,2.4961,2.4668,2.4756,0.0,0.0,0.0,0.0,2.5664,2.5693,2.5693,2.5693,2.5693,2.5693,2.5693,2.5693,2.5693,2.5693,2.5693,2.5693,2.5693,2.5693,2.5693,2.5693,2.5693,2.5693,2.5645,2.4961,2.4551,2.4355,2.3608,2.3227,2.3091,2.3091,2.3091,2.3091,2.3091,2.3091,2.3091,2.3091,2.3091,2.3003,2.248,2.2119,2.1777,2.1191,2.0801,2.0605,2.0605,2.0605,2.0605,2.0605,2.0605,2.0458,1.9834,1.9492,1.9131,1.851,1.8178,1.8008,1.8008,1.8008,1.8008,1.8008,1.7666,1.7139,1.6396,1.5918,1.5576,1.543,1.541,1.5352,1.5215,1.4951,1.4727,1.458,1.3955,1.3458,1.3182,1.2397,1.1678,1.1149,1.0914,1.0593,1.0141,0.9909,0.9692,0.9465,0.9008,0.8804,0.8804,0.8804,0.8804,2.0937,2.1982,2.2896,2.3799,2.4336,2.4687,2.4805,2.4502,2.4023,2.3447,2.3213,2.293,2.2324,2.2578,2.3115,2.3848,2.4326,2.4873,2.5586,2.5352,2.5008,2.4687,2.4756,0.0,0.0,0.0,0.0,2.5654,2.5693,2.5693,2.5693,2.5693,2.5693,2.5693,2.5693,2.5693,2.5693,2.5693,2.5693,2.5693,2.5693,2.5693,2.5693,2.5693,2.5693,2.5635,2.4805,2.4414,2.4355,2.3452,2.3091,2.3091,2.3091,2.3091,2.3091,2.3091,2.3091,2.3091,2.3091,2.3091,2.3003,2.2471,2.2109,2.1777,2.1172,2.0791,2.0605,2.0605,2.0605,2.0605,2.0605,2.0605,2.0488,2.0019,1.9707,1.9355,1.8724,1.8393,1.8159,1.8037,1.8008,1.8008,1.8008,1.7529,1.6953,1.6387,1.5791,1.541,1.541,1.541,1.541,1.541,1.5176,1.501,1.501,1.4619,1.4248,1.3984,1.3273,1.2676,1.2282,1.1934,1.1618,1.1262,1.1086,1.0849,1.0618,1.0199,0.9838,0.954,0.9455,0.9308,2.2021,2.2822,2.3325,2.418,2.4697,2.493,2.4453,2.4014,2.3447,2.2559,2.2041,2.1475,0.0,0.0,2.1541,2.2861,2.3467,2.4248,2.5508,2.5371,2.5145,0.0,0.0,0.0,0.0,0.0,0.0,2.5654,0.0,2.5693,2.5693,2.5693,2.5693,2.5693,2.5693,2.5693,2.5693,2.5693,2.5693,2.5693,2.5693,2.5693,2.5693,2.5693,2.5693,2.5635,2.4805,2.4414,2.4355,2.3452,2.3091,2.3091,2.3091,2.3091,2.3091,2.3091,2.3091,2.3091,2.3091,2.3091,2.2955,2.2187,2.1904,2.1728,2.0899,2.0625,2.0605,2.0605,2.0605,2.0605,2.0605,2.0605,2.0498,2.0049,1.9932,1.9687,1.8812,1.8617,1.8481,1.8086,1.8008,1.8008,1.8008,1.7291,1.6726,1.6707,1.5966,1.5439,1.541,1.541,1.541,1.541,1.541,1.541,1.541,1.5049,1.4805,1.4813,1.4023,1.3444,1.315,1.3401,1.3111,1.2225,1.2785,1.2785,1.215,1.2122,1.1696,1.0956,1.0692,1.0315,2.1836,2.2822,2.3672,2.3896,2.4033,2.4004,2.3584,2.291,2.2031,2.083,2.0244,1.9627,0.0,0.0,0.0,2.1562,2.2891,0.0,2.5508,2.5586,0.0,2.5155,0.0,2.5312,2.5135,2.5371,0.0,0.0,2.5693,2.5693,2.5693,2.5693,2.5693,2.5693,2.5693,2.5693,2.5693,2.5693,2.5693,2.5693,2.5693,2.5693,2.5693,2.5693,2.5693,2.5635,2.4805,2.4414,2.4355,2.3452,2.3091,2.3091,2.3091,2.3091,2.3091,2.3091,2.3091,2.3091,2.3091,2.3091,2.3013,2.2519,2.2139,2.1777,2.123,2.083,2.0605,2.0605,2.0605,2.0605,2.0605,2.0605,2.0576,2.0458,2.0146,1.9775,1.9238,1.8867,1.8481,1.8086,1.8008,1.8008,1.8008,1.7568,1.7109,1.6746,1.626,1.5811,1.5449,1.541,1.541,1.541,1.541,1.541,1.541,1.5312,1.5117,1.4833,1.458,1.4284,1.3863,1.3917,1.3838,1.3584,1.3286,1.3032,1.284,1.2344,1.1983,1.178,1.1718,1.1615,2.25,2.3242,2.3789,2.3789,2.3652,2.3296,2.2288,2.1398,2.0322,1.8828,1.8174,0.0,0.0,0.0,0.0,0.0,0.0,0.0,2.5234,2.5567,2.5644,0.0,2.5538,0.0,2.5391,2.5596,2.5693,0.0,2.5693,2.5693,2.5693,2.5693,2.5693,2.5693,2.5693,2.5693,2.5693,2.5693,2.5693,2.5693,2.5693,2.5693,2.5693,2.5693,2.5586,2.541,0.0,2.4316,2.4092,2.3374,2.3091,2.3091,2.3091,2.3091,2.3091,2.3091,2.3091,2.3091,2.3091,2.3091,2.3023,2.2646,2.2227,2.1807,2.1327,2.0918,2.0605,2.0605,2.0605,2.0605,2.0605,2.0605,2.0605,2.0605,2.0419,2.0078,1.9658,1.9228,1.874,1.8135,1.8008,1.8008,1.8008,1.7666,1.7305,1.7061,1.6506,1.6007,1.5732,1.5527,1.541,1.541,1.541,1.541,1.541,1.541,1.5312,1.5078,1.4893,1.4756,1.4669,1.4484,1.4475,1.466,1.4297,1.412,1.412,1.3716,1.3375,1.3032,1.2896,1.2706,2.3389,2.3701,2.3691,2.3633,2.3345,2.2582,2.0948,1.9875,1.8799,1.7117,0.0,1.5891,1.5349,1.6341,1.7764,1.9473,0.0,2.2978,2.4861,2.54,2.5625,2.5684,2.5693,2.5693,2.5693,2.5693,2.5693,2.5693,2.5693,2.5693,2.5693,2.5693,2.5693,2.5693,2.5693,2.5693,2.5693,2.5693,2.5693,2.5693,2.5693,2.5693,2.5693,2.5693,2.5488,2.5086,0.0,0.0,2.375,2.3276,2.3091,2.3091,2.3091,2.3091,2.3091,2.3091,2.3091,2.3091,2.3091,2.3091,2.3033,2.2672,2.2275,2.1816,2.1435,2.0967,2.0605,2.0605,2.0605,2.0605,2.0605,2.0605,2.0605,2.0605,2.0605,2.0488,2.001,1.9541,1.8965,1.8164,1.8008,1.8008,1.8008,1.7705,1.7451,1.7425,1.6711,1.6163,1.6105,1.5684,1.541,1.541,1.541,1.541,1.541,1.541,1.541,1.541,1.5068,1.5029,1.54,1.5059,1.5039,1.5371,1.541,1.541,1.541,1.541,1.505,1.4353,1.4122,1.3772,2.3052,2.3208,2.312,2.2822,2.2422,2.1804,2.0555,1.962,0.0,0.0,0.0,1.5509,1.4707,1.5527,1.6887,1.8539,0.0,0.0,0.0,0.0,2.5322,0.0,0.0,0.0,0.0,0.0,0.0,0.0,0.0,0.0,2.5693,2.5693,2.5693,2.5693,2.5693,2.5693,2.5693,2.5693,2.5693,2.5693,2.5693,2.5693,2.5693,2.5693,2.5488,2.5086,0.0,0.0,2.375,2.3276,2.3091,2.3091,2.3091,2.3091,2.3091,2.3091,2.3091,2.3091,2.3091,2.3091,2.3081,2.3013,2.251,2.1875,2.1797,2.1251,2.0605,2.0605,2.0605,2.0605,2.0605,2.0605,2.0605,2.0605,2.0605,2.0488,2.001,1.926,1.8568,1.8105,1.8008,1.8008,1.8008,1.7949,1.7783,1.7432,1.6943,1.6484,1.6144,1.5684,1.541,1.541,1.541,1.541,1.541,1.541,1.541,1.541,1.5342,1.5342,1.541,1.5342,1.5342,1.541,1.541,1.541,1.541,1.541,1.5323,1.5196,1.5129,1.5071,2.2984,2.3091,2.2994,2.2617,2.2344,2.1695,1.9663,0.0,0.0,0.0,0.0,1.4185,1.375,1.4636,0.0,0.0,0.0,0.0,0.0,0.0,0.0,0.0,0.0,0.0,0.0,0.0,0.0,0.0,0.0,0.0,2.5693,2.5693,2.5693,2.5693,2.5693,2.5693,2.5693,2.5693,2.5693,2.5693,2.5693,2.5693,2.5693,2.5693,2.5371,2.4717,0.0,0.0,2.3437,2.3179,2.3091,2.3091,2.3091,2.3091,2.3091,2.3091,2.3091,2.3091,2.3091,2.3091,2.3091,2.3091,2.2568,2.1885,2.1885,2.131,2.0605,2.0605,2.0605,2.0605,2.0605,2.0605,2.0605,2.0605,2.0605,2.0419,1.9727,1.9268,1.8779,1.8135,1.8008,1.8008,1.8008,1.8008,1.7939,1.7744,1.7344,1.6992,1.6809,1.6162,1.5664,1.5439,1.541,1.541,1.541,1.541,1.541,1.541,1.541,1.541,1.541,1.541,1.541,1.541,1.541,1.541,1.541,1.541,1.541,1.541,1.541,1.541,2.2877,2.3023,2.2974,2.251,2.2352,2.1655,1.8968,1.794,0.0,0.0,1.3817,1.3354,1.322,0.0,1.512,0.0,1.7555,0.0,0.0,0.0,0.0,0.0,0.0,0.0,0.0,0.0,0.0,0.0,0.0,0.0,0.0,2.5693,2.5693,2.5693,2.5693,2.5693,2.5693,2.5693,2.5693,2.5693,2.5693,2.5693,2.5684,2.5586,2.5118,2.4414,0.0,0.0,0.0,2.3091,2.3091,2.3091,2.3091,2.3091,2.3091,2.3091,2.3091,2.3135,2.3387,2.3464,2.3507,2.3767,2.2931,2.1885,2.1885,2.131,2.0605,2.0605,2.0605,2.0605,2.0605,2.0605,2.0605,2.0605,2.0605,2.037,1.9473,1.9287,1.9033,1.8174,1.8008,1.8008,1.8008,1.8008,1.8008,1.8008,1.7656,1.7383,1.7383,1.6721,1.6035,1.5596,1.5469,1.541,1.541,1.541,1.541,1.541,1.541,1.541,1.541,1.541,1.541,1.541,1.541,1.541,1.541,1.541,1.541,1.541,1.541,1.541,2.2559,2.2808,2.2906,2.2139,2.1968,2.135,1.9092,0.0,0.0,1.5828,1.5061,1.4477,1.3926,1.4166,1.4809,1.5959,0.0,1.8555,0.0,0.0,0.0,0.0,0.0,0.0,0.0,0.0,0.0,0.0,0.0,0.0,0.0,2.5693,2.5693,2.5693,2.5693,2.5693,2.5693,2.5693,2.5693,2.5693,2.5693,2.5693,2.5674,2.5312,2.4873,2.4394,0.0,0.0,0.0,2.3091,2.3091,2.3091,2.3091,2.3091,2.3091,2.3091,2.3091,2.3266,2.4286,2.4617,2.4787,2.585,2.4241,2.1885,2.1885,2.131,2.0605,2.0605,2.0605,2.0605,2.0605,2.0605,2.0605,2.0605,2.0605,2.037,1.9473,1.9287,1.9033,1.8174,1.8008,1.8008,1.8008,1.8008,1.8008,1.8008,1.7656,1.7383,1.7383,1.6963,1.6494,1.6075,1.5644,1.541,1.541,1.541,1.541,1.541,1.541,1.541,1.541,1.541,1.541,1.541,1.541,1.541,1.541,1.541,1.541,1.541,1.541,1.541,2.1924,2.2256,2.2246,2.1641,2.1637,2.1218,1.9085,0.0,1.7074,1.5552,1.4444,1.3682,1.3412,1.3473,1.3947,1.5123,1.5371,1.6484,1.9502,0.0,0.0,0.0,0.0,0.0,0.0,0.0,0.0,0.0,0.0,0.0,0.0,2.5693,2.5693,2.5693,2.6428,2.6476,2.5684,2.6476,2.6476,2.5693,2.5693,2.5547,2.5332,2.5146,2.4697,2.4033,0.0,0.0,0.0,2.3091,2.3091,2.3091,2.3091,2.3091,2.3178,2.3887,2.4125,2.4296,2.542,2.5797,2.5891,2.6348,2.5245,2.3764,2.3764,2.2676,2.1441,2.1441,2.1441,2.1298,2.075,2.1011,2.1441,2.1441,2.1441,2.1277,2.0692,1.9892,1.9282,1.9274,1.8584,1.8008,1.8008,1.8008,1.8008,1.8008,1.7871,1.7764,1.7764,1.7393,1.6953,1.6514,1.6074,1.5693,1.543,1.541,1.541,1.541,1.541,1.541,1.541,1.541,1.541,1.541,1.541,1.541,1.541,1.541,1.541,1.541,1.541,1.541,2.0977,2.1396,2.1426,2.1113,2.1271,2.0941,0.0,1.7894,1.692,1.5255,1.4111,1.3316,1.3057,1.3152,1.3518,1.4294,1.4365,1.5215,1.7857,0.0,0.0,0.0,0.0,0.0,0.0,0.0,0.0,0.0,0.0,0.0,0.0,2.6245,2.6245,2.6245,2.7494,2.772,2.6791,2.7673,2.7673,2.6791,2.6297,2.5924,2.5605,2.4992,2.4355,0.0,0.0,0.0,0.0,2.3854,2.3887,2.3637,2.3973,2.4102,2.4178,2.501,2.5294,2.5462,2.6584,2.6964,2.7046,2.7383,2.6767,2.593,2.593,2.4299,2.244,2.244,2.244,2.2291,2.1642,2.1973,2.244,2.244,2.244,2.2312,2.1925,2.1078,2.0395,2.0473,1.9468,1.8646,1.8741,1.8563,1.8395,1.8395,1.8586,1.8687,1.8428,1.8357,1.8187,1.7696,1.7267,1.6577,1.5488,1.541,1.541,1.541,1.541,1.541,1.541,1.541,1.541,1.541,1.541,1.541,1.541,1.541,1.541,1.541,1.541,1.541,1.966,2.0254,2.0615,2.0615,2.0819,2.0456,0.0,1.7637,1.692,1.5255,1.4475,1.3871,1.3139,1.3495,1.3811,1.3546,1.4228,1.542,1.7181,0.0,0.0,0.0,0.0,0.0,0.0,0.0,0.0,0.0,0.0,0.0,0.0,0.0,2.7589,2.7589,2.8773,2.9361,2.9361,2.9361,2.9361,2.935,2.7696,2.6896,2.6808,2.4761,0.0,0.0,0.0,0.0,0.0,2.5515,2.5797,2.4872,2.6016,2.6472,2.6483,2.6472,2.6472,2.6648,2.7723,2.8084,2.8255,2.9404,2.8988,2.8073,2.8073,2.5923,2.3478,2.3478,2.3478,2.3478,2.3478,2.3489,2.3478,2.3478,2.3478,2.3391,2.2981,2.2868,2.2576,2.1576,2.0683,2.0172,2.0519,1.9846,1.9299,1.9299,2.0009,2.0268,1.9398,2.0042,2.0389,1.9927,1.9403,1.8051,1.5624,1.541,1.541,1.541,1.541,1.541,1.541,1.541,1.541,1.541,1.541,1.541,1.541,1.541,1.541,1.541,1.541,1.541,1.7545,1.8057,1.8355,1.8018,1.827,1.8231,1.6775,1.635,1.5889,1.4614,1.3643,1.301,1.3054,1.2913,1.3268,1.4653,1.5058,0.0,0.0,0.0,0.0,0.0,0.0,0.0,0.0,0.0,0.0,0.0,0.0,0.0,0.0,0.0,2.9681,2.8866,3.0,3.0226,2.9407,2.9836,2.9663,2.8858,2.791,2.7282,2.7009,2.6357,0.0,0.0,0.0,0.0,0.0,2.6182,2.6307,2.6016,2.6348,2.6524,2.6595,2.7319,2.7602,2.7735,2.8858,2.9275,2.9252,2.92,2.8699,2.8034,2.7657,2.6141,2.4528,2.4528,2.4036,2.3818,2.5205,2.5028,2.4528,2.4528,2.4528,2.4481,2.4354,2.3579,2.2899,2.2838,2.1822,2.0908,2.0637,2.0365,2.0204,2.0204,2.043,2.0494,2.0236,2.043,2.0432,1.9958,1.9736,1.8882,1.6927,1.6382,1.595,1.5439,1.541,1.541,1.541,1.541,1.541,1.541,1.541,1.541,1.541,1.541,1.541,1.541,1.541,1.541,1.5907,1.6436,1.6674,1.6774,1.6861,1.674,1.6065,1.5659,1.5148,1.4292,1.3258,1.2561,1.2785,1.254,1.2729,1.4038,1.4624,0.0,0.0,0.0,0.0,0.0,0.0,0.0,0.0,0.0,0.0,0.0,0.0,0.0,0.0,0.0,3.0749,3.0472,3.1392,3.1448,3.0484,3.0865,3.0601,2.9656,2.8648,2.8022,2.7767,0.0,0.0,0.0,0.0,0.0,0.0,2.7383,2.7504,2.7168,2.7585,2.7758,2.7839,2.849,2.8727,2.8858,2.9534,2.9792,2.9691,2.9076,2.8411,2.7695,2.7178,2.6332,2.5581,2.5581,2.5099,2.4909,2.6164,2.6025,2.5581,2.5581,2.5581,2.5581,2.5581,2.4883,2.4246,2.4277,2.3313,2.2357,2.1963,2.1623,2.1319,2.1135,2.1353,2.1416,2.1132,2.1353,2.1413,2.1158,2.0916,2.0259,1.8948,1.7768,1.6932,1.6581,1.6261,1.6086,1.6134,1.5954,1.569,1.541,1.541,1.541,1.541,1.541,1.541,1.541,1.541,1.541,0.0,1.5166,1.5408,1.6415,1.6235,1.5829,1.5869,1.5362,0.0,1.4154,1.3197,1.2464,1.2485,1.2368,1.23,1.2447,1.3477,0.0,0.0,0.0,0.0,0.0,0.0,0.0,0.0,0.0,0.0,0.0,0.0,0.0,0.0,0.0,0.0,3.211,3.2679,3.2704,3.2152,3.2127,3.1838,3.1323,2.9752,2.8944,2.892,0.0,0.0,0.0,0.0,0.0,0.0,2.8961,2.9197,2.8347,2.9404,2.9792,2.9792,2.9792,2.9792,2.9792,2.9792,2.9792,2.9691,2.9026,2.8147,2.7216,2.6663,2.6499,2.6499,2.6499,2.6499,2.6499,2.6499,2.6499,2.6499,2.6499,2.6499,2.6499,2.6499,2.6499,2.6323,2.5711,2.4946,2.4302,2.4054,2.3325,2.2611,2.2054,2.2628,2.2823,2.2063,2.2641,2.3108,2.3108,2.2644,2.2072,2.1332,1.9373,1.8278,1.8531,1.7784,1.7402,1.7528,1.7008,1.6386,1.5703,1.5615,1.5547,1.5459,1.5459,1.5439,1.541,1.541,1.541,1.2259,0.0,1.3008,1.3343,1.3637,1.3844,0.0,1.4062,1.4123,1.3534,1.2645,1.2267,1.3273,1.2551,1.2526,1.4881,1.5481,0.0,0.0,0.0,0.0,0.0,0.0,0.0,0.0,0.0,0.0,0.0,0.0,0.0,0.0,0.0,0.0,3.1599,3.1712,3.1712,3.1587,3.1185,3.0922,3.0796,2.9982,2.9603,2.9591,0.0,0.0,0.0,0.0,0.0,2.904,2.9585,2.9624,2.9443,2.9714,2.9792,2.9792,2.9792,2.9792,2.9792,2.9792,2.9792,2.9628,2.8624,2.7833,2.7216,2.6663,2.6499,2.6499,2.6499,2.6499,2.6499,2.6499,2.6499,2.6499,2.6499,2.6499,2.6499,2.6499,2.6499,2.6323,2.5711,2.5453,2.5004,2.4148,2.3835,2.3499,2.291,2.2975,2.3035,2.2854,2.2975,2.3108,2.3108,2.2995,2.2685,2.2101,2.0693,1.9639,1.9143,1.8925,1.8837,1.8855,1.8725,1.857,1.8393,1.7719,1.69,1.5938,1.5938,1.5732,1.541,1.541,1.541,1.0929,1.176,1.2602,1.2917,1.3063,1.3235,1.368,1.3569,1.3323,1.3226,1.2596,1.2305,1.3012,1.2771,1.3008,1.4683,1.5772,0.0,0.0,0.0,0.0,0.0,0.0,0.0,0.0,0.0,0.0,0.0,0.0,0.0,0.0,0.0,0.0,0.0,3.0783,3.0783,3.1035,3.0758,3.0495,3.0231,2.993,2.9792,2.9792,0.0,0.0,0.0,0.0,0.0,2.9792,2.9792,2.9792,2.9792,2.9792,2.9792,2.9792,2.9792,2.9792,2.9792,2.9792,2.9616,2.9252,2.8386,2.7733,2.7216,2.6663,2.6499,2.6499,2.6499,2.6499,2.6499,2.6499,2.6499,2.6499,2.6499,2.6499,2.6499,2.6499,2.6499,2.6399,2.6084,2.6021,2.5757,2.487,2.4732,2.4544,2.396,2.3659,2.3496,2.3496,2.3271,2.3108,2.3108,2.3108,2.2982,2.2681,2.2046,2.137,2.0718,2.0299,2.012,2.015,1.9941,1.9667,1.9313,1.8443,1.7656,1.6961,1.6406,1.5968,1.5703,1.5508,1.541,1.0459,1.1672,1.2991,1.3377,1.3252,1.3244,1.4148,1.3431,1.2716,1.3224,1.2892,1.2611,1.2946,1.3343,0.0,0.0,0.0,0.0,0.0,0.0,0.0,0.0,0.0,0.0,0.0,0.0,0.0,0.0,0.0,0.0,0.0,0.0,0.0,0.0,3.0043,3.0018,3.0482,3.0495,3.0256,2.9792,2.9792,2.9792,2.9792,2.9792,0.0,0.0,0.0,0.0,2.9792,2.9792,2.9792,2.9792,2.9792,2.9792,2.9792,2.9792,2.9792,2.9792,2.9792,2.9478,2.8913,2.831,2.7795,2.7329,2.6688,2.6499,2.6499,2.6499,2.6499,2.6499,2.6499,2.6499,2.6499,2.6499,2.6499,2.6499,2.6499,2.6499,2.6499,2.6499,2.6499,2.6311,2.5699,2.5598,2.5423,2.4863,2.4418,2.4092,2.4004,2.3534,2.3195,2.3108,2.3108,2.3108,2.3108,2.3108,2.2907,2.2443,2.172,2.138,2.1482,2.1048,2.0458,1.9718,1.8953,1.8442,1.8091,1.7012,1.6374,1.6183,1.5781,1.5664,1.1204,1.2122,1.275,1.2161,1.2518,1.3048,1.3211,1.3079,1.3105,1.3749,0.0,0.0,0.0,1.4915,1.4894,0.0,0.0,0.0,0.0,0.0,0.0,0.0,0.0,0.0,0.0,0.0,0.0,0.0,0.0,0.0,0.0,0.0,0.0,0.0,0.0,2.9829,2.9917,2.9917,2.988,2.9792,2.9792,2.9792,2.9792,2.9792,2.9792,0.0,0.0,2.9792,2.9792,2.9792,2.9792,2.9792,2.9792,2.9792,2.9792,2.9792,2.9792,2.9792,2.9792,2.9729,2.949,2.8448,2.8047,2.7795,2.6801,2.6499,2.6499,2.6499,2.6499,2.6499,2.6499,2.6499,2.6499,2.6499,2.6499,2.6499,2.6499,2.6499,2.6499,2.6499,2.6499,2.6311,2.5699,2.5598,2.5423,2.4863,2.4713,2.4519,2.4054,2.3916,2.3678,2.3158,2.3108,2.3108,2.3108,2.3108,2.307,2.2982,2.285,2.279,2.282,2.2745,2.2322,2.1516,2.1381,2.0373,1.8501,1.8301,1.7643,1.6599,1.6531,1.6918,1.0782,1.168,1.243,1.2055,1.2782,1.3739,1.4241,1.3814,1.355,1.4362,0.0,0.0,0.0,0.0,0.0,0.0,0.0,0.0,0.0,0.0,0.0,0.0,0.0,0.0,0.0,0.0,0.0,0.0,0.0,0.0,0.0,0.0,0.0,0.0,0.0,2.9792,2.9792,2.9792,2.9792,2.9792,2.9792,2.9792,2.9792,2.9792,2.9792,2.9792,0.0,2.9792,2.9792,2.9792,2.9792,2.9792,2.9792,2.9792,2.9792,2.9792,2.9792,2.9792,2.9792,2.9591,2.9189,2.8373,2.7896,2.7507,2.6738,2.6499,2.6499,2.6499,2.6499,2.6499,2.6499,2.6499,2.6499,2.6499,2.6499,2.6499,2.6499,2.6499,2.6499,2.6499,2.6499,2.6411,2.6135,2.6097,2.6021,2.5749,2.5435,2.5146,2.4895,2.4356,2.3891,2.3627,2.3296,2.3108,2.3108,2.3108,2.3108,2.3108,2.3108,2.3108,2.3108,2.3108,2.2914,2.2567,2.2125,2.1405,2.0369,1.9662,1.8984,1.8406,1.8194,1.8321,1.0547,1.1309,1.2125,1.2428,1.3237,1.4201,1.5134,1.4582,1.4146,1.5135,0.0,0.0,0.0,0.0,0.0,0.0,0.0,0.0,0.0,0.0,0.0,0.0,0.0,0.0,0.0,0.0,0.0,0.0,0.0,0.0,0.0,0.0,0.0,0.0,0.0,0.0,2.9792,2.9792,2.9792,2.9792,2.9792,2.9792,2.9792,2.9792,2.9792,2.9792,2.9792,2.9792,2.9792,2.9792,2.9792,2.9792,2.9792,2.9792,2.9792,2.9792,2.9792,2.9779,2.9641,2.9302,2.8775,2.8134,2.762,2.7216,2.6663,2.6499,2.6499,2.6499,2.6499,2.6499,2.6499,2.6499,2.6499,2.6499,2.6499,2.6499,2.6499,2.6499,2.6499,2.6499,2.6499,2.6499,2.6499,2.6499,2.6499,2.6499,2.6122,2.5749,2.5611,2.4883,2.428,2.4029,2.3602,2.3246,2.3108,2.3108,2.3108,2.3108,2.3108,2.3108,2.3108,2.3108,2.3108,2.3108,2.2506,2.2106,2.1908,2.0865,2.0268,2.007,1.9741,1.9712,1.1292,1.1577,1.1917,1.3115,1.3486,1.3769,1.4655,1.4763,1.5016,1.6094,0.0,0.0,0.0,0.0,0.0,0.0,0.0,0.0,0.0,0.0,0.0,0.0,0.0,0.0,0.0,0.0,0.0,0.0,0.0,0.0,0.0,0.0,0.0,0.0,0.0,0.0,2.9792,2.9792,2.9792,2.9792,2.9792,2.9792,2.9792,2.9792,2.9792,2.9792,2.9792,2.9792,2.9792,2.9792,2.9792,2.9792,2.9792,2.9792,2.9792,2.9792,2.9792,2.9716,2.9176,2.8925,2.8712,2.7682,2.7318,2.7216,2.6663,2.6499,2.6499,2.6499,2.6499,2.6499,2.6499,2.6499,2.6499,2.6499,2.6499,2.6499,2.6499,2.6499,2.6499,2.6499,2.6499,2.6499,2.6499,2.6499,2.6499,2.6499,2.6461,2.6235,2.5661,2.5523,2.5096,2.4104,2.3966,2.3715,2.3145,2.3108,2.3108,2.3108,2.3108,2.3108,2.3108,2.3108,2.3108,2.3108,2.3035,2.2641,2.1908,2.1811,2.1338,2.0534,2.0533,2.0934,1.0625,1.1357,1.2158,1.293,1.3711,1.46,1.5732,1.5996,1.6331,1.7509,1.8564,0.0,0.0,0.0,0.0,0.0,0.0,0.0,0.0,0.0,0.0,0.0,0.0,0.0,0.0,0.0,0.0,0.0,0.0,0.0,0.0,0.0,0.0,0.0,0.0,0.0,0.0,2.9792,2.9792,2.9792,2.9792,2.9792,2.9792,2.9792,2.9792,2.9792,2.9792,2.9792,2.9792,2.9792,2.9792,2.9792,2.9792,2.9792,2.9792,2.9792,2.9792,2.9704,2.9126,2.8662,2.8298,2.7532,2.709,2.6763,2.6562,2.6499,2.6499,2.6499,2.6499,2.6499,2.6499,2.6499,2.6499,2.6499,2.6499,2.6499,2.6499,2.6499,2.6499,2.6499,2.6499,2.6499,2.6499,2.6499,2.6499,2.6499,2.6499,2.6411,2.6197,2.5824,2.5435,2.5034,2.4393,2.3766,2.3158,2.3108,2.3108,2.3108,2.3108,2.3108,2.3108,2.3108,2.3108,2.3108,2.3108,2.2944,2.2641,2.2641,2.2476,2.2144,2.2144,2.2341,1.0263,1.1133,1.2187,1.29,1.3838,1.5029,1.6716,1.6999,1.7233,1.8364,1.956,2.061,0.0,0.0,0.0,0.0,0.0,0.0,0.0,0.0,0.0,0.0,0.0,0.0,0.0,0.0,0.0,0.0,0.0,0.0,0.0,0.0,0.0,0.0,0.0,0.0,0.0,2.9792,2.9792,2.9792,2.9792,2.9792,2.9792,2.9792,2.9792,2.9792,2.9792,2.9792,2.9792,2.9792,2.9792,2.9792,2.9792,2.9792,2.9792,2.9792,2.9679,2.944,2.8863,2.831,2.7758,2.7241,2.6801,2.6499,2.6499,2.6499,2.6499,2.6499,2.6499,2.6499,2.6499,2.6499,2.6499,2.6499,2.6499,2.6499,2.6499,2.6499,2.6499,2.6499,2.6499,2.6499,2.6499,2.6499,2.6499,2.6499,2.6499,2.6499,2.6499,2.6147,2.5799,2.5611,2.4632,2.3841,2.3409,2.3208,2.3108,2.3108,2.3108,2.3108,2.3108,2.3108,2.3108,2.3108,2.3108,2.3108,2.3108,2.3108,2.3108,2.3108,2.3108,2.3108,1.041,1.0929,1.1907,1.3184,1.3812,1.4806,1.7422,1.7686,1.7637,1.8442,1.9322,2.0392,2.1934,0.0,0.0,0.0,0.0,0.0,0.0,0.0,0.0,0.0,0.0,0.0,0.0,0.0,0.0,0.0,0.0,0.0,0.0,0.0,0.0,0.0,0.0,0.0,0.0,2.9792,2.9792,2.9779,2.9792,2.9792,2.9792,2.9792,2.9792,2.9792,2.9792,2.9792,2.9792,2.9779,2.9779,2.9779,2.9779,2.9779,2.9779,2.9779,2.9415,2.88,2.8285,2.7745,2.7228,2.6675,2.6499,2.6499,2.6499,2.6499,2.6499,2.6499,2.6499,2.6499,2.6499,2.6499,2.6499,2.6499,2.6499,2.6499,2.6499,2.6499,2.6499,2.6499,2.6499,2.6499,2.6499,2.6499,2.6499,2.6499,2.6499,2.6499,2.6499,2.6499,2.6273,2.5649,2.4644,2.4017,2.4004,2.3446,2.3108,2.3108,2.3108,2.3108,2.3108,2.3108,2.3108,2.3108,2.3108,2.3108,2.3108,2.3108,2.3108,2.3108,2.3108,2.3108,0.9923,1.1123,1.267,1.334,0.0,0.0,0.0,1.8144,0.0,0.0,2.1456,2.2044,0.0,0.0,0.0,0.0,0.0,0.0,0.0,0.0,0.0,0.0,0.0,0.0,0.0,0.0,0.0,0.0,0.0,0.0,0.0,0.0,0.0,0.0,0.0,0.0,0.0,0.0,2.9591,2.9189,2.9591,2.9792,2.9792,2.9792,2.9792,2.9792,2.9792,2.9792,2.9767,2.9352,2.9189,2.9189,2.9189,2.9189,2.9189,2.9189,2.8825,2.8273,2.772,2.7419,2.7228,2.6675,2.6499,2.6499,2.6499,2.6499,2.6499,2.6499,2.6499,2.6499,2.6499,2.6499,2.6499,2.6499,2.6499,2.6499,2.6499,2.6499,2.6499,2.6499,2.6499,2.6499,2.6499,2.6499,2.6499,2.6499,2.6499,2.6499,2.6499,2.6499,2.6273,2.5649,2.531,2.4971,2.4575,2.4067,2.374,2.374,2.3333,2.3108,2.3108,2.3108,2.3108,2.3108,2.3108,2.3108,2.3108,2.3108,2.3108,2.3108,2.3108,2.3108,1.0624,1.1853,1.3359,1.4287,1.5635,1.7058,1.8457,0.0,0.0,0.0,0.0,0.0,0.0,0.0,0.0,0.0,0.0,0.0,0.0,0.0,0.0,0.0,0.0,0.0,0.0,0.0,0.0,0.0,0.0,0.0,0.0,0.0,0.0,0.0,0.0,0.0,0.0,0.0,0.0,2.8574,2.895,2.9126,2.9126,2.9352,2.9578,2.9779,2.9553,2.9453,2.9402,2.8837,2.8562,2.8562,2.8562,2.8562,2.8562,2.8562,2.8247,2.7733,2.7394,2.7178,2.6939,2.66,2.6499,2.6499,2.6499,2.6499,2.6499,2.6499,2.6499,2.6555,2.6871,2.6973,2.6905,2.6589,2.6499,2.6499,2.6499,2.6499,2.6499,2.6499,2.6499,2.6499,2.6499,2.6782,2.6871,2.6555,2.6499,2.6499,2.6499,2.6499,2.6361,2.6009,2.5737,2.5473,2.5159,2.4644,2.433,2.433,2.3791,2.3446,2.3446,2.3233,2.3108,2.3108,2.3108,2.3108,2.3108,2.3108,2.3108,2.3108,2.3108,2.3108,1.1872,1.2798,1.3955,1.5625,1.6465,0.0,1.9355,1.9853,2.0294,2.1604,0.0,0.0,0.0,0.0,0.0,0.0,0.0,0.0,0.0,0.0,0.0,0.0,0.0,0.0,0.0,0.0,0.0,0.0,0.0,0.0,0.0,0.0,0.0,0.0,0.0,0.0,0.0,0.0,2.8084,0.0,2.8084,2.8084,2.8047,2.8562,2.9139,2.9603,2.9089,2.8787,2.87,2.8235,2.8034,2.8034,2.8034,2.8034,2.8034,2.8034,2.7682,2.7241,2.7241,2.6949,2.6589,2.6521,2.6555,2.6589,2.6521,2.6499,2.6521,2.6589,2.6624,2.6816,2.7604,2.7835,2.7637,2.6905,2.6714,2.6714,2.6624,2.6624,2.6624,2.6624,2.6624,2.6624,2.6624,2.7297,2.7537,2.6714,2.6692,2.6679,2.6624,2.6624,2.6624,2.6624,2.6055,2.5674,2.5674,2.5197,2.4863,2.4863,2.4381,2.4067,2.4067,2.3446,2.3108,2.3108,2.3108,2.3108,2.3108,2.3108,2.3108,2.3108,2.3108,2.3108,1.1143,1.2545,0.0,1.5293,1.6863,1.8315,1.8773,1.9397,2.0077,0.0,0.0,0.0,0.0,0.0,0.0,0.0,0.0,0.0,0.0,0.0,0.0,0.0,0.0,0.0,0.0,0.0,0.0,0.0,0.0,0.0,0.0,0.0,0.0,0.0,0.0,0.0,2.8109,2.8109,2.7896,0.0,2.7896,2.7871,2.7482,2.8034,2.8348,2.8461,2.8335,2.8034,2.7632,2.7507,2.7457,2.7457,2.7457,2.7457,2.7457,2.7457,2.714,2.6675,2.6675,2.7007,2.7351,2.6714,2.6939,2.7317,2.6679,2.6499,2.6624,2.7263,2.7451,2.7637,2.8492,2.8716,2.8684,2.8492,2.846,2.8266,2.7571,2.7451,2.7451,2.7451,2.7451,2.7451,2.7451,2.8149,2.8427,2.7571,2.8019,2.8214,2.755,2.7451,2.7451,2.7451,2.6756,2.6311,2.6311,2.5749,2.5435,2.5435,2.4933,2.4644,2.4644,2.3647,2.3108,2.3108,2.3108,2.3108,2.3108,2.3108,2.3108,2.3108,2.3108,2.3108,1.1297,1.2642,0.0,1.5937,0.0,1.8656,1.8861,1.9297,1.9678,0.0,0.0,0.0,0.0,0.0,0.0,0.0,0.0,0.0,0.0,0.0,0.0,0.0,0.0,0.0,0.0,0.0,0.0,0.0,0.0,0.0,0.0,0.0,0.0,0.0,0.0,2.7318,2.7318,2.7318,2.7168,2.6927,2.718,2.7203,2.6952,2.7733,2.7959,2.7708,2.7708,2.7544,2.7268,2.7027,2.6927,2.6927,2.6927,2.6927,2.6927,2.6927,2.6967,2.7061,2.7061,2.7604,2.8247,2.7835,2.7986,2.8247,2.7835,2.7703,2.7769,2.8214,2.833,2.8524,2.9411,2.9628,2.9628,2.9628,2.9286,2.8876,2.8427,2.833,2.833,2.833,2.833,2.833,2.833,2.8716,2.9002,2.8939,2.8971,2.8844,2.8363,2.833,2.833,2.833,2.7953,2.755,2.7095,2.7163,2.7046,2.6631,2.6097,2.582,2.582,2.4348,2.3521,2.3521,2.3246,2.3108,2.3108,2.3108,2.3108,2.3108,2.3108,2.3108,1.1443,1.271,1.4209,1.666,1.7852,0.0,1.8965,1.9121,0.0,0.0,0.0,0.0,0.0,0.0,0.0,0.0,0.0,0.0,0.0,0.0,0.0,0.0,0.0,0.0,0.0,0.0,0.0,0.0,0.0,0.0,0.0,0.0,0.0,2.7178,2.6738,2.6499,2.6499,2.6499,2.6499,2.6499,2.6499,2.6499,2.6524,2.7406,2.757,2.7178,2.7178,2.7178,2.714,2.6688,2.6499,2.6499,2.6499,2.6499,2.6499,2.6499,2.7007,2.7703,2.7703,2.8363,2.9192,2.9066,2.9097,2.9192,2.9066,2.9002,2.9034,2.9192,2.9223,2.9411,3.0269,3.0524,3.0524,3.0524,2.995,2.938,2.9254,2.9223,2.9223,2.9223,2.9223,2.9286,2.9411,2.9442,2.9628,3.0208,2.9797,2.938,2.9254,2.9223,2.9223,2.9223,2.9097,2.8716,2.7986,2.8588,2.8684,2.7953,2.7501,2.7267,2.7267,2.5537,2.4553,2.4553,2.3586,2.3108,2.3108,2.3108,2.3108,2.3108,2.3108,2.3108,1.0303,0.0,1.4465,0.0,1.7187,1.7666,0.0,0.0,0.0,0.0,0.0,0.0,0.0,0.0,0.0,0.0,0.0,0.0,0.0,0.0,0.0,0.0,0.0,0.0,0.0,0.0,0.0,0.0,0.0,0.0,0.0,0.0,2.66,2.66,2.6537,2.6499,2.6499,2.6499,2.6499,2.6499,2.6499,2.6499,2.6499,2.665,2.6675,2.66,2.66,2.66,2.66,2.6524,2.6499,2.6499,2.6499,2.6499,2.6499,2.6499,2.7007,2.7703,2.7703,2.878,3.0011,2.9254,2.9504,2.9981,2.9223,2.9002,2.916,2.9919,3.0133,3.0299,3.1117,3.1351,3.1351,3.1351,3.1248,3.097,3.0269,3.0133,3.0133,3.0133,3.0133,3.0359,3.1058,3.1161,3.097,3.0389,3.0807,3.0896,3.0238,3.0133,3.0133,3.0133,2.9442,2.8939,2.8844,2.8939,2.8939,2.8844,2.8761,2.872,2.872,2.7489,2.6786,2.6786,2.4356,2.3108,2.3108,2.3108,2.3108,2.3108,2.3108,2.3108,1.0596,1.2187,1.3848,0.0,1.6473,1.7129,1.7559,0.0,0.0,0.0,0.0,0.0,0.0,0.0,0.0,0.0,0.0,0.0,0.0,0.0,0.0,0.0,0.0,0.0,0.0,0.0,0.0,0.0,0.0,0.0,0.0,2.6499,2.6499,2.6499,2.6499,0.0,2.6499,2.6499,2.6499,2.6499,2.6499,2.6499,2.6499,2.6499,2.6499,2.6499,2.6499,2.6499,2.6499,2.6499,2.6499,2.6499,2.6499,2.6499,2.6555,2.7007,2.7703,2.8492,2.9002,2.995,3.0896,3.0524,3.0644,3.0896,3.0524,3.0389,3.0494,3.0866,3.097,3.1058,3.1409,3.1511,3.1511,3.1511,3.1511,3.1409,3.1058,3.097,3.097,3.097,3.097,3.1087,3.1438,3.1511,3.138,3.1029,3.1278,3.138,3.1029,3.097,3.097,3.097,3.0614,3.0238,2.9766,3.0133,3.0208,2.9766,2.9721,2.9721,2.9721,2.8465,2.7568,2.7207,2.4948,2.3767,2.3767,2.3305,2.3108,2.3108,2.3108,2.3108,1.044,1.1575,1.2661,1.4346,1.5508,1.6377,0.0,0.0,0.0,0.0,0.0,0.0,0.0,0.0,0.0,0.0,0.0,0.0,0.0,0.0,0.0,0.0,0.0,0.0,0.0,0.0,0.0,0.0,0.0,0.0,2.6499,2.6499,2.6499,2.6499,2.6499,2.6499,2.6499,2.6499,2.6499,2.6499,2.6499,2.6499,2.6499,2.6499,2.6499,2.6499,2.6499,2.6499,2.6499,2.6499,2.6499,2.6499,2.6499,2.6499,2.6589,2.7384,2.8247,2.9129,3.0011,3.0837,3.1511,3.1511,3.1511,3.1511,3.1511,3.1511,3.1511,3.1511,3.1511,3.1511,3.1511,3.1511,3.1511,3.1511,3.1511,3.1511,3.1511,3.1511,3.1511,3.1511,3.1511,3.1511,3.1511,3.1511,3.1511,3.1511,3.1511,3.1511,3.1511,3.1511,3.1511,3.1511,3.1511,3.1248,3.0644,3.1161,3.1248,3.0644,3.0614,3.0614,3.0614,2.9427,2.8545,2.8049,2.6263,2.5077,2.4567,2.3989,2.3666,2.3666,2.3666,2.3666,0.887,0.9766,1.086,1.2602,1.3955,0.0,0.0,0.0,0.0,0.0,0.0,0.0,0.0,0.0,0.0,0.0,0.0,0.0,0.0,0.0,0.0,0.0,0.0,0.0,0.0,0.0,0.0,0.0,0.0,0.0,2.6499,2.6499,2.6499,2.6499,2.6499,2.6499,2.6499,2.6499,2.6499,2.6499,2.6499,2.6499,2.6499,2.6499,2.6499,2.6499,2.6499,2.6499,2.6499,2.6499,2.6499,2.6499,2.6499,2.6499,2.6589,2.7384,2.8247,2.9129,3.0011,3.0837,3.1511,3.1511,3.1511,3.1511,3.1511,3.1511,3.1511,3.1511,3.1511,3.1511,3.1511,3.1511,3.1511,3.1511,3.1511,3.1511,3.1511,3.1511,3.1511,3.1511,3.1511,3.1511,3.1511,3.1511,3.1511,3.1511,3.1511,3.1511,3.1511,3.1511,3.1511,3.1511,3.1511,3.1467,3.1438,3.1467,3.1467,3.1438,3.1438,3.1438,3.1438,3.0753,3.0365,3.0335,2.8911,2.7258,2.5342,2.5287,2.5287,2.5287,2.5287,2.5287,0.8753,0.9228,0.0,1.1623,1.3032,0.0,0.0,0.0,0.0,0.0,0.0,0.0,0.0,0.0,0.0,0.0,0.0,0.0,0.0,0.0,0.0,0.0,0.0,0.0,0.0,0.0,0.0,0.0,0.0,0.0,2.6499,2.6499,2.6499,2.6499,2.6499,2.6499,2.6499,2.6499,2.6499,2.6499,2.6499,2.6499,2.6499,2.6499,2.6499,2.6499,2.6499,2.6499,2.6499,2.6499,2.6499,2.6499,2.6499,2.6816,2.7384,2.8214,2.9097,2.995,3.0777,3.1248,3.1511,3.1511,3.1511,3.1511,3.1511,3.1511,3.1511,3.1511,3.1511,3.1511,3.1511,3.1511,3.1511,3.1511,3.1511,3.1511,3.1511,3.1511,3.1511,3.1511,3.1511,3.1511,3.1511,3.1511,3.1511,3.1511,3.1511,3.1511,3.1511,3.1511,3.1511,3.1511,3.1511,3.1511,3.1511,3.1511,3.1511,3.1511,3.1511,3.1511,3.1511,3.1271,3.0928,3.0507,3.0002,2.8747,2.6746,2.626,2.5813,2.5398,2.5398,2.5398,0.8412,0.8682,0.0,0.0,0.0,0.0,0.0,0.0,0.0,0.0,0.0,0.0,0.0,0.0,0.0,0.0,0.0,0.0,0.0,0.0,0.0,0.0,0.0,0.0,0.0,0.0,0.0,0.0,0.0,0.0,2.6499,2.6499,2.6411,2.621,2.6034,2.5946,2.5946,2.6122,2.6197,2.621,2.6399,2.6499,2.6499,2.6499,2.6658,2.6871,2.6624,2.6499,2.6521,2.6782,2.6905,2.6939,2.7229,2.767,2.8247,2.9097,2.9797,3.0419,3.1219,3.1511,3.1511,3.1511,3.1511,3.1511,3.1511,3.1511,3.1511,3.1511,3.1511,3.1511,3.1511,3.1511,3.1511,3.1511,3.1511,3.1511,3.1511,3.1511,3.1511,3.1511,3.1511,3.1511,3.1511,3.1511,3.1511,3.1511,3.1511,3.1511,3.1511,3.1511,3.1511,3.1511,3.1511,3.1511,3.1511,3.1511,3.1511,3.1511,3.1511,3.1511,3.1511,3.1511,3.1286,3.0823,3.0851,3.0075,2.8497,2.7593,2.6915,2.6462,2.6234,2.6,0.0,0.0,0.0,0.0,0.0,0.0,0.0,0.0,0.0,0.0,0.0,0.0,0.0,0.0,0.0,0.0,0.0,0.0,0.0,0.0,0.0,0.0,0.0,0.0,0.0,0.0,0.0,0.0,0.0,2.6487,2.6461,2.6449,2.6185,2.5586,2.5084,2.4788,2.4788,2.5322,2.5573,2.5598,2.6197,2.6508,2.6521,2.6521,2.6973,2.767,2.6905,2.6555,2.6589,2.7384,2.7736,2.7835,2.8684,2.9034,2.9129,2.9981,3.0329,3.045,3.1219,3.1511,3.1511,3.1511,3.1511,3.1511,3.1511,3.1511,3.1511,3.1511,3.1511,3.1511,3.1511,3.1511,3.1511,3.1511,3.1511,3.1511,3.1511,3.1511,3.1511,3.1511,3.1511,3.1511,3.1511,3.1511,3.1511,3.1511,3.1511,3.1511,3.1511,3.1511,3.1511,3.1511,3.1511,3.1511,3.1511,3.1511,3.1511,3.1511,3.1511,3.1511,3.1511,3.1511,3.1511,3.1511,3.1511,3.1182,3.0537,2.9265,2.8652,2.8607,2.7959,2.7248,0.8203,0.0,0.0,0.0,0.0,0.0,0.0,0.0,0.0,0.0,0.0,0.0,0.0,0.0,0.0,0.0,0.0,0.0,0.0,0.0,0.0,0.0,0.0,0.0,0.0,0.0,0.0,0.0,2.6499,2.6311,2.585,2.5473,2.5197,2.5046,2.4863,2.4788,2.4788,2.4938,2.5222,2.5598,2.5762,2.6375,2.7384,2.7384,2.7484,2.7736,2.8149,2.7953,2.7384,2.7604,2.8084,2.8652,2.8907,2.938,2.9981,3.0208,3.0673,3.119,3.1409,3.1511,3.1511,3.1511,3.1511,3.1511,3.1511,3.1511,3.1511,3.1511,3.1511,3.1511,3.1511,3.1511,3.1511,3.1511,3.1511,3.1511,3.1511,3.1511,3.1511,3.1511,3.1511,3.1511,3.1511,3.1511,3.1511,3.1511,3.1511,3.1511,3.1511,3.1511,3.1511,3.1511,3.1511,3.1511,3.1511,3.1511,3.1511,3.1511,3.1511,3.1511,3.1511,3.1511,3.1511,3.1511,3.1511,3.1406,3.1212,3.0387,2.9744,2.9337,2.9142,2.8633,0.8698,0.8659,0.0,0.0,0.0,0.0,0.0,0.0,0.0,0.0,0.0,0.0,0.0,0.0,0.0,0.0,0.0,0.0,0.0,0.0,0.0,0.0,0.0,0.0,0.0,0.0,0.0,0.0,2.5933,2.5636,2.5297,2.477,2.4481,2.4481,2.4211,2.4086,2.4086,2.4324,2.4632,2.4933,2.5479,2.6298,2.738,2.7677,2.8165,2.878,2.8939,2.9097,2.9254,2.8907,2.9097,2.9566,2.9919,3.0359,3.0807,3.0807,3.1087,3.1511,3.1511,3.1511,3.1511,3.1511,3.1511,3.1511,3.1511,3.1511,3.1511,3.1511,3.1511,3.1511,3.1511,3.1511,3.1511,3.1511,3.1511,3.1511,3.1511,3.1511,3.1511,3.1511,3.1511,3.1511,3.1511,3.1511,3.1511,3.1511,3.1511,3.1511,3.1511,3.1511,3.1511,3.1511,3.1511,3.1511,3.1511,3.1511,3.1511,3.1511,3.1511,3.1511,3.1511,3.1511,3.1511,3.1511,3.1511,3.1511,3.1511,3.0836,3.0178,2.9606,2.9606,2.9359,0.9404,0.9323,0.0,0.0,0.0,0.0,1.2368,1.2591,0.0,0.0,0.0,0.0,0.0,0.0,0.0,0.0,0.0,0.0,0.0,0.0,0.0,0.0,0.0,0.0,0.0,0.0,0.0,2.5511,2.5021,2.47,2.47,2.4205,2.3904,2.3904,2.3371,2.3108,2.3108,2.3732,2.4053,2.416,2.5344,2.6348,2.709,2.7831,2.8886,3.0168,2.9538,3.0072,3.1322,3.0673,3.0419,3.0494,3.1219,3.1511,3.1511,3.1511,3.1511,3.1511,3.1511,3.1511,3.1511,3.1511,3.1511,3.1511,3.1511,3.1511,3.1511,3.1511,3.1511,3.1511,3.1511,3.1511,3.1511,3.1511,3.1511,3.1511,3.1511,3.1511,3.1511,3.1511,3.1511,3.1511,3.1511,3.1511,3.1511,3.1511,3.1511,3.1511,3.1511,3.1511,3.1511,3.1511,3.1511,3.1511,3.1511,3.1511,3.1511,3.1511,3.1511,3.1511,3.1511,3.1511,3.1511,3.1511,3.1511,3.1511,3.1511,3.0883,3.0342,2.9804,2.9804,2.9804,1.1208,1.1323,1.1386,0.0,0.0,0.0,0.0,1.2595,0.0,0.0,0.0,0.0,0.0,0.0,0.0,0.0,0.0,0.0,0.0,0.0,0.0,0.0,0.0,0.0,0.0,0.0,2.4938,2.4938,2.4469,2.4167,2.4167,2.3584,2.3283,2.3283,2.3158,2.3108,2.3108,2.3854,2.4465,2.4892,2.5749,2.6808,2.805,2.8722,2.9213,2.9534,3.0587,3.0837,3.0584,3.1058,3.1278,3.1278,3.1438,3.1511,3.1511,3.1511,3.1511,3.1511,3.1511,3.1511,3.1511,3.1511,3.1511,3.1511,3.1511,3.1511,3.1511,3.1511,3.1511,3.1511,3.1511,3.1511,3.1511,3.1511,3.1511,3.1511,3.1511,3.1511,3.1511,3.1511,3.1511,3.1511,3.1511,3.1511,3.1511,3.1511,3.1511,3.1511,3.1511,3.1511,3.1511,3.1511,3.1511,3.1511,3.1511,3.1511,3.1511,3.1511,3.1511,3.1511,3.1511,3.1511,3.1511,3.1511,3.1511,3.1511,3.1511,3.1376,3.1241,3.1122,3.1122,3.1122,1.2225,1.2407,1.2705,1.2935,0.0,0.0,0.0,0.0,0.0,0.0,0.0,0.0,0.0,0.0,0.0,0.0,0.0,0.0,0.0,0.0,0.0,0.0,0.0,0.0,0.0,0.0,2.4293,2.3973,2.3697,2.3534,2.3534,2.3258,2.3108,2.3108,2.3108,2.3305,2.3679,2.4089,2.4627,2.5255,2.5994,2.6875,2.7921,2.8631,2.9135,2.9486,3.0235,3.0312,2.997,3.0383,3.0552,3.0627,3.1256,3.1511,3.1511,3.1511,3.1511,3.1511,3.1511,3.1511,3.1511,3.1511,3.1511,3.1511,3.1511,3.1511,3.1511,3.1511,3.1511,3.1511,3.1511,3.1511,3.1511,3.1511,3.1511,3.1511,3.1511,3.1511,3.1511,3.1511,3.1511,3.1511,3.1511,3.1511,3.1511,3.1511,3.1511,3.1511,3.1511,3.1511,3.1511,3.1511,3.1511,3.1511,3.1511,3.1511,3.1511,3.1511,3.1511,3.1511,3.1511,3.1511,3.1511,3.1511,3.1511,3.1511,3.1511,3.1511,3.1511,3.1511,3.1511,3.1511,0.0,0.0,0.0,0.0,0.0,1.349,0.0,0.0,0.0,1.4217,0.0,0.0,0.0,0.0,0.0,0.0,0.0,0.0,0.0,0.0,0.0,0.0,0.0,0.0,0.0,0.0,2.3175,2.3108,2.2807,2.2769,2.3083,2.3258,2.3335,2.3335,2.3471,2.3842,2.4509,2.4652,2.5007,2.5618,2.6363,2.6997,2.7544,2.8281,2.8891,2.9427,2.952,2.9606,2.9606,2.9606,2.9606,2.9711,3.0746,3.1212,3.1316,3.1316,3.1391,3.1511,3.1511,3.1511,3.1511,3.1511,3.1511,3.1511,3.1511,3.1511,3.1511,3.1511,3.1511,3.1511,3.1511,3.1511,3.1511,3.1511,3.1511,3.1511,3.1511,3.1511,3.1511,3.1511,3.1511,3.1511,3.1511,3.1511,3.1511,3.1511,3.1511,3.1511,3.1511,3.1511,3.1511,3.1511,3.1511,3.1511,3.1511,3.1511,3.1511,3.1511,3.1511,3.1511,3.1511,3.1511,3.1511,3.1511,3.1511,3.1511,3.1511,3.1511,3.1511,3.1511,3.1511,3.1511,0.0,0.0,0.0,0.0,1.6194,0.0,0.0,0.0,1.4243,1.2956,0.0,0.0,0.0,0.0,0.0,0.0,0.0,0.0,0.0,0.0,0.0,0.0,0.0,0.0,0.0,0.0,0.0,2.2957,2.1782,2.1594,2.302,2.3767,2.4176,2.4176,2.4809,2.5175,2.5259,2.5933,2.6283,2.6377,2.7111,2.7503,2.7618,2.8297,2.8637,2.8742,2.9352,2.9606,2.9606,2.9606,2.9606,2.9621,2.9771,3.0133,3.0612,3.0612,3.0972,3.1511,3.1511,3.1511,3.1511,3.1511,3.1511,3.1511,3.1511,3.1511,3.1511,3.1511,3.1511,3.1511,3.1511,3.1511,3.1511,3.1511,3.1511,3.1511,3.1511,3.1511,3.1511,3.1511,3.1511,3.1511,3.1511,3.1511,3.1511,3.1511,3.1511,3.1511,3.1511,3.1511,3.1511,3.1511,3.1511,3.1511,3.1511,3.1511,3.1511,3.1511,3.1511,3.1511,3.1511,3.1511,3.1511,3.1511,3.1511,3.1511,3.1511,3.1511,3.1511,3.1511,3.1511,3.1511,0.0,0.0,0.0,0.0,0.0,0.0,0.0,0.0,1.381,0.0,0.0,0.0,0.0,0.0,0.0,0.0,0.0,0.0,0.0,0.0,0.0,0.0,0.0,0.0,0.0,0.0,0.0,0.0,0.0,2.1067,2.316,2.3594,2.4136,2.4909,2.5231,2.5618,2.6041,2.6336,2.6721,2.7137,2.7458,2.76,2.76,2.7899,2.8034,2.8049,2.8319,2.8438,2.8438,2.8438,2.8438,2.8438,2.8438,2.9265,3.0507,3.0507,3.0913,3.1511,3.1511,3.1511,3.1511,3.1511,3.1511,3.1511,3.1511,3.1511,3.1511,3.1511,3.1511,3.1511,3.1511,3.1511,3.1511,3.1511,3.1511,3.1511,3.1511,3.1853,3.2148,3.2148,3.2434,3.2583,3.2216,3.1796,3.1511,3.1511,3.1511,3.1511,3.1511,3.1511,3.1511,3.1511,3.1511,3.1511,3.1511,3.1511,3.1682,3.212,3.2148,3.2148,3.2148,3.171,3.1511,3.1511,3.1511,3.1511,3.1511,3.1511,3.1511,3.1511,3.1511,3.1511,1.8004,0.0,0.0,0.0,0.0,0.0,0.0,0.0,0.0,0.0,0.0,0.0,0.0,0.0,0.0,0.0,0.0,0.0,0.0,0.0,0.0,0.0,0.0,0.0,0.0,0.0,0.0,0.0,0.0,0.0,2.2748,2.34,2.4149,2.5122,2.5712,2.6269,2.68,2.68,2.706,2.76,2.76,2.76,2.76,2.76,2.76,2.76,2.76,2.76,2.76,2.76,2.76,2.76,2.76,2.8573,2.9998,3.0193,3.0672,3.1256,3.1436,3.1511,3.1511,3.1511,3.1511,3.1511,3.1511,3.1511,3.1511,3.1511,3.1511,3.1511,3.1511,3.1511,3.1553,3.1739,3.1796,3.1838,3.2048,3.2489,3.2868,3.2868,3.3261,3.3443,3.296,3.2434,3.202,3.1824,3.1796,3.1881,3.2048,3.1923,3.1866,3.2048,3.2076,3.2076,3.2076,3.2076,3.2312,3.2841,3.2868,3.2868,3.2868,3.2188,3.1796,3.1796,3.1611,3.1611,3.1796,3.1582,3.1611,3.1796,3.1582,3.1511,0.0,0.0,0.0,1.7039,0.0,0.0,0.0,0.0,1.4714,0.0,0.0,0.0,0.0,0.0,0.0,0.0,0.0,0.0,0.0,0.0,0.0,0.0,0.0,0.0,0.0,0.0,0.0,0.0,0.0,0.0,2.1423,2.3393,2.4485,2.454,2.6462,2.7534,2.756,2.756,2.7575,2.76,2.76,2.76,2.76,2.76,2.76,2.76,2.76,2.76,2.76,2.76,2.76,2.76,2.76,2.8034,2.8742,2.9397,2.9998,3.0627,3.1271,3.1511,3.1511,3.1511,3.1511,3.1511,3.1511,3.1511,3.1511,3.1511,3.1511,3.1511,3.1511,3.1511,3.1682,3.2382,3.2559,3.2734,3.3391,3.3556,3.3572,3.3572,3.3582,3.3582,3.3556,3.3556,3.3313,3.2668,3.2559,3.2788,3.3469,3.2975,3.2815,3.3453,3.3531,3.3531,3.3531,3.3531,3.3531,3.3572,3.3572,3.3572,3.3572,3.2906,3.2559,3.2559,3.1866,3.1853,3.2559,3.1853,3.1881,3.2547,3.1824,3.1511,0.0,0.0,1.9459,1.8003,0.0,0.0,0.0,0.0,0.0,0.0,0.0,0.0,0.0,0.0,0.0,0.0,0.0,0.0,0.0,0.0,0.0,0.0,0.0,0.0,0.0,0.0,0.0,0.0,0.0,0.0,0.0,2.2522,2.3912,2.526,2.636,2.7151,2.76,2.76,2.76,2.76,2.76,2.76,2.76,2.76,2.76,2.76,2.76,2.76,2.76,2.76,2.76,2.76,2.76,2.7735,2.8019,2.8682,2.934,2.9983,3.0627,3.0851,3.0898,3.1361,3.1511,3.1511,3.1511,3.1511,3.1511,3.1511,3.1511,3.1511,3.1511,3.1853,3.2299,3.2532,3.2949,3.3313,3.3556,3.3962,3.426,3.426,3.4616,3.4776,3.4333,3.4616,3.456,3.3443,3.3261,3.3339,3.3556,3.3391,3.3339,3.3598,3.3582,3.3582,3.3582,3.4012,3.426,3.426,3.426,3.426,3.426,3.3608,3.3039,3.2629,3.2799,3.2799,3.2586,3.2799,3.3024,3.3277,3.2997,3.2379,1.9798,1.9798,0.0,0.0,1.7652,0.0,1.5487,0.0,0.0,0.0,0.0,0.0,0.0,0.0,0.0,0.0,0.0,0.0,0.0,0.0,0.0,0.0,0.0,0.0,0.0,0.0,1.5978,1.7889,0.0,0.0,0.0,0.0,2.3392,2.4943,2.6046,2.6926,2.7585,2.76,2.76,2.76,2.76,2.76,2.76,2.76,2.76,2.76,2.76,2.76,2.76,2.76,2.76,2.76,2.76,2.76,2.7675,2.8353,2.9011,2.9696,3.0283,3.0507,3.0612,3.1271,3.1511,3.1511,3.1511,3.1682,3.1881,3.1881,3.2048,3.2256,3.2256,3.2598,3.3029,3.3235,3.3633,3.4012,3.4276,3.464,3.4965,3.4965,3.5299,3.547,3.5028,3.5299,3.5247,3.4112,3.3962,3.4037,3.4276,3.4087,3.4037,3.4301,3.4301,3.4301,3.4301,3.4712,3.4965,3.4965,3.4965,3.4965,3.4965,3.4309,3.3761,3.3313,3.3495,3.3505,3.3313,3.3521,3.371,3.3962,3.371,3.3114]}]]